GFSSW_sfc_30mbdewp_000.txt.gz
Dewpoint
50 50 50 51 51 50 50 51 52 52 52 51 52 53 55 57 58 59 57 54 49 53 51 48 47 46 43 39 39 37 30 23 25 25 27 33 32 32 31 30 27 28 36 48 52
50 49 50 50 50 50 50 50 50 50 51 51 51 53 55 57 53 54 58 57 55 58 46 45 43 43 41 39 38 36 31 24 24 26 32 34 34 32 30 31 30 30 41 52 53
49 49 50 49 49 50 49 49 49 50 50 50 51 53 55 56 51 50 58 58 59 62 47 45 44 43 41 41 38 36 34 32 26 31 34 33 32 35 30 30 32 29 38 47 53
49 49 50 50 49 50 49 50 50 51 51 52 53 54 56 54 38 44 58 59 61 62 51 45 44 42 41 39 38 35 34 30 28 32 32 31 33 32 32 31 32 32 38 46 51
49 48 48 49 49 48 49 49 49 50 51 51 53 55 54 49 46 49 59 61 60 60 50 45 43 42 40 38 36 34 31 30 30 29 34 31 30 32 32 33 32 32 33 43 47
48 48 49 48 48 48 48 48 50 51 54 54 55 55 51 44 47 48 58 59 57 58 50 46 43 43 40 37 32 31 32 30 31 31 32 29 30 30 31 33 32 32 32 35 42
49 49 49 49 49 48 48 48 50 53 54 55 54 53 49 45 46 50 58 58 57 53 50 46 44 42 40 34 32 31 29 32 30 31 29 29 27 27 29 32 32 31 31 31 34
49 49 49 49 49 48 49 50 52 53 54 53 52 51 44 48 56 53 55 57 52 50 49 46 46 41 38 31 31 30 30 29 29 30 28 28 24 24 28 29 29 30 31 31 32
49 49 48 48 49 49 50 52 54 55 53 53 47 48 40 53 53 54 54 52 48 47 47 48 41 36 31 30 31 29 23 25 24 29 28 28 26 28 29 28 28 28 28 29 29
49 48 49 51 52 51 52 53 53 52 50 48 45 43 46 43 50 55 54 51 49 48 44 43 37 31 30 26 26 24 23 23 22 29 28 27 26 26 25 25 26 25 25 24 25
52 51 52 53 53 52 53 52 46 43 45 43 41 41 42 54 56 55 53 51 48 46 43 40 33 28 27 28 26 27 24 20 21 28 26 24 24 24 22 22 24 21 25 25 25
52 53 53 54 55 55 54 47 48 48 44 50 49 48 51 53 49 51 52 47 47 47 41 36 29 26 26 29 29 26 23 22 25 27 27 24 25 22 21 20 21 25 28 31 30
51 53 53 53 54 54 51 49 53 52 45 47 50 47 49 53 48 48 49 47 46 46 40 29 26 26 32 31 28 26 25 26 27 27 29 27 25 21 22 25 26 29 31 32 33
51 53 53 54 52 52 50 54 53 53 37 41 43 47 50 51 45 52 51 46 44 43 30 26 29 30 30 29 28 24 28 28 28 26 24 26 21 21 24 27 28 31 33 33 33
52 53 53 54 52 50 52 52 53 50 28 42 45 53 51 45 46 45 49 41 33 28 27 26 28 29 28 28 28 30 30 27 26 25 24 23 22 20 25 27 28 30 33 34 34
52 52 52 53 52 52 51 52 52 40 29 40 44 44 43 45 42 44 45 44 28 25 26 27 28 28 28 29 29 29 26 26 25 24 22 20 20 19 22 26 30 32 33 34 34
52 53 50 50 46 53 48 50 41 33 42 40 41 43 40 40 42 41 31 27 27 24 23 24 23 21 24 24 24 26 25 24 24 23 21 19 19 20 21 28 30 32 33 35 35
52 51 50 49 48 48 50 45 34 39 40 44 44 43 39 41 39 33 27 30 30 30 25 27 23 23 23 24 25 23 26 27 25 23 20 20 20 22 21 25 28 32 34 35 35
50 49 48 52 51 50 49 39 38 39 42 42 43 38 40 42 41 39 31 33 36 36 30 28 27 26 26 24 22 27 28 26 26 25 23 23 24 23 21 23 24 30 34 35 35
45 45 46 48 49 51 44 39 40 42 42 41 39 40 38 40 38 37 37 39 40 40 39 33 28 28 26 24 22 20 21 22 24 20 19 21 20 20 20 21 24 30 32 34 35
47 42 43 48 51 47 39 40 41 42 41 40 36 39 40 39 39 35 35 39 39 40 38 36 34 32 29 28 26 24 22 21 20 20 19 18 19 23 23 23 22 30 34 34 34
46 38 42 48 41 42 40 41 41 40 41 39 39 37 36 37 35 34 37 39 40 40 37 39 36 32 32 31 32 27 25 23 22 21 21 19 19 26 26 29 31 33 35 34 36
40 39 43 46 38 39 39 39 40 40 40 39 39 39 39 38 37 38 39 40 40 41 39 38 34 32 32 32 33 32 30 27 28 27 26 20 19 27 27 30 32 33 35 34 36
40 35 41 41 38 37 36 37 37 40 40 40 39 39 37 38 39 38 37 40 41 40 39 38 34 31 26 26 29 31 31 32 30 26 25 24 24 25 27 29 30 28 35 34 35
38 35 38 36 34 35 35 33 34 36 39 38 37 35 35 35 36 35 36 37 37 37 37 37 30 29 29 29 26 26 27 27 28 28 26 22 23 24 24 26 27 34 35 34 35
39 33 36 34 34 28 31 33 31 32 34 35 37 35 35 34 34 35 35 34 34 35 34 35 29 27 24 22 19 19 20 20 23 25 26 26 25 27 27 34 34 34 34 36 35
41 38 37 33 32 28 33 32 33 32 34 36 36 35 36 32 30 30 33 36 35 33 31 31 26 23 19 21 23 22 23 24 24 24 23 22 24 27 28 32 34 35 36 36 35

GFSSW_sfc_30mbdewp_003.txt.gz
Dewpoint
51 51 50 50 51 52 52 51 52 52 53 53 53 52 53 55 57 57 52 56 59 57 51 48 49 48 48 40 39 37 33 24 23 25 26 34 33 34 31 30 28 34 39 45 51
50 50 50 49 51 51 51 50 51 51 52 52 52 52 52 55 55 52 52 58 60 60 54 45 46 46 42 39 38 36 33 30 26 30 27 33 32 32 33 31 31 40 51 52 52
49 49 50 49 50 50 50 50 50 50 51 51 51 51 53 55 49 46 51 58 60 61 55 48 45 43 41 41 40 37 34 35 34 34 31 31 31 33 33 31 32 30 45 52 52
49 49 48 48 49 50 50 51 49 50 50 50 50 51 54 52 36 41 48 55 60 62 57 46 45 43 41 40 41 38 37 36 35 34 31 33 32 30 32 33 33 32 41 52 52
49 49 48 48 49 50 49 50 50 49 50 51 51 53 52 47 44 44 53 57 59 60 56 49 44 43 41 41 40 39 37 36 34 31 30 33 32 29 30 32 34 36 42 47 51
49 49 49 49 48 48 47 49 50 49 49 51 52 53 49 41 46 47 52 58 58 58 56 49 44 44 42 41 40 35 33 32 32 32 31 32 31 30 30 31 33 32 37 43 47
50 50 49 49 49 49 48 48 48 49 51 53 53 52 46 41 45 46 46 57 58 59 54 51 46 44 43 42 38 36 31 31 32 32 31 29 27 27 28 30 31 32 32 34 41
49 49 49 49 50 49 49 49 49 51 52 53 53 51 42 47 48 49 48 52 58 58 54 53 51 45 43 39 32 31 31 29 31 30 31 28 25 27 29 29 30 30 29 31 32
49 48 50 50 50 50 50 50 51 53 52 52 50 47 41 52 48 48 49 54 57 56 56 53 50 43 40 35 30 31 27 27 27 29 29 27 26 27 28 29 28 28 28 26 27
51 52 51 51 52 52 51 53 53 53 51 46 45 43 44 43 47 51 53 56 55 51 50 51 49 39 36 30 28 26 27 26 23 26 28 27 27 28 28 24 25 25 25 29 31
52 53 53 53 52 52 51 52 44 44 44 39 40 41 43 47 48 51 55 55 50 48 46 48 44 39 37 30 29 28 26 23 24 28 27 27 26 26 25 22 25 27 29 31 33
52 52 53 52 54 54 53 46 45 45 37 40 43 43 51 49 46 50 56 50 46 45 45 43 40 37 31 30 29 26 25 24 25 28 26 25 27 24 20 23 29 32 32 33 35
52 52 52 52 54 54 51 50 52 50 40 44 42 46 47 53 48 49 52 49 45 44 44 41 39 33 30 28 28 27 25 28 28 28 28 28 26 20 24 28 31 32 33 35 36
52 53 53 53 51 52 49 53 53 52 36 39 44 47 50 51 46 53 52 49 48 44 43 37 31 32 28 30 28 25 28 28 28 26 24 28 22 21 25 28 31 32 33 33 35
53 53 53 53 51 49 52 54 54 49 26 39 43 50 51 46 47 47 50 47 46 44 40 31 29 27 30 28 28 29 30 28 26 25 24 24 21 21 27 28 30 33 34 33 34
53 53 52 53 53 53 53 53 51 37 27 37 44 45 42 46 43 46 44 48 46 42 30 28 30 30 29 29 30 30 27 26 26 25 22 23 22 21 26 28 30 32 34 33 34
53 53 52 52 49 54 53 50 37 32 40 37 40 42 40 40 40 41 41 40 37 27 25 24 22 21 26 25 24 26 26 24 23 22 20 20 19 20 25 30 30 33 34 34 34
53 53 50 49 52 51 50 43 34 38 38 43 41 41 39 41 40 39 36 33 27 25 26 25 23 22 22 25 25 23 25 27 25 24 23 20 18 19 24 31 33 34 35 34 34
52 50 50 51 50 51 49 38 38 39 41 40 41 38 40 42 37 36 32 33 37 30 28 25 26 26 26 23 24 26 26 28 25 26 23 25 25 22 27 30 33 34 35 34 34
46 46 46 53 51 52 44 40 42 44 43 43 37 40 36 36 36 36 37 39 40 40 40 31 26 27 26 26 23 21 22 23 25 20 19 21 21 21 23 26 30 34 34 35 35
46 43 44 51 51 47 40 41 42 44 43 42 41 39 38 38 38 35 37 39 40 39 39 37 32 31 29 27 27 26 23 20 22 22 20 18 20 24 22 23 26 32 35 35 35
46 35 41 51 41 42 40 41 42 42 43 40 42 40 39 40 35 38 38 39 41 41 37 38 34 31 32 30 31 28 26 24 21 22 22 20 20 26 29 25 30 34 35 35 36
40 40 43 43 39 39 40 40 41 41 41 40 40 40 39 38 37 39 38 41 41 40 38 38 34 31 31 31 33 31 31 28 28 28 24 21 20 27 30 31 33 35 35 35 37
42 35 38 38 40 38 37 38 38 41 40 40 39 39 39 38 39 38 38 40 40 39 39 37 32 28 26 26 30 30 31 32 29 25 23 23 24 25 28 29 31 32 35 36 38
38 33 38 32 33 34 34 36 37 37 39 39 36 37 37 36 35 35 37 37 36 37 35 34 27 28 27 27 25 26 26 27 29 29 24 20 22 24 25 27 29 34 35 36 35
38 34 36 34 33 32 34 33 33 34 36 37 37 37 36 34 36 35 36 35 34 35 34 33 27 24 19 22 21 18 19 19 21 25 27 28 26 28 28 29 34 36 35 35 32
42 40 33 33 31 30 32 33 33 34 35 34 36 36 34 30 29 29 33 35 36 33 31 29 24 21 16 24 24 22 24 23 23 22 21 20 23 25 28 32 34 36 36 35 32

GFSSW_sfc_30mbdewp_006.txt.gz
Dewpoint
52 52 51 51 51 51 52 53 53 53 54 54 55 53 53 54 55 55 51 52 59 61 59 50 50 47 48 43 39 37 32 29 24 23 26 29 29 34 35 31 30 38 38 43 47
50 50 50 50 50 51 52 52 52 52 53 53 54 53 53 54 53 51 53 51 57 63 57 47 46 47 44 40 38 36 33 32 31 27 32 33 31 32 32 32 31 37 50 51 52
48 49 49 50 50 51 51 51 51 51 52 52 52 52 53 53 47 44 52 52 53 62 61 54 47 45 42 41 39 37 34 35 35 35 36 33 31 32 30 31 32 32 42 51 52
49 49 49 49 49 50 51 51 51 51 51 51 51 51 53 52 33 41 48 52 56 60 60 54 47 43 42 40 42 38 37 36 36 37 36 31 32 32 31 30 33 33 36 51 51
49 49 49 48 48 49 50 50 50 51 50 51 51 51 51 45 41 43 50 51 54 60 58 51 44 43 41 41 41 39 39 39 38 37 34 31 30 31 31 31 32 33 40 48 50
49 50 49 49 49 48 48 48 50 51 50 50 51 52 48 40 43 44 45 50 55 59 59 51 45 44 42 41 40 39 37 35 33 32 32 31 31 31 31 31 30 32 39 46 49
49 49 50 50 49 49 49 48 48 50 50 50 50 51 46 40 43 42 43 50 56 58 56 52 48 44 43 42 41 35 34 35 32 32 31 31 29 27 29 29 28 29 32 36 43
49 49 50 50 50 50 49 49 48 49 49 50 52 50 40 44 45 45 47 48 53 58 56 54 52 47 44 41 34 30 31 29 30 31 31 30 27 28 29 29 28 28 30 29 30
51 51 50 50 50 50 50 49 49 50 51 51 49 45 37 51 47 45 45 47 50 56 57 56 51 46 43 41 33 31 28 27 27 29 29 29 27 28 29 28 27 28 26 30 33
51 52 54 52 52 52 52 51 51 51 50 50 49 41 43 43 47 47 48 47 52 54 55 54 52 43 39 35 33 30 28 27 26 26 29 27 28 28 28 24 24 25 29 32 34
51 52 52 53 54 53 52 50 43 42 47 41 41 40 41 45 49 48 51 48 53 52 47 51 46 42 42 36 33 30 27 25 25 26 26 27 27 27 27 25 25 29 31 34 36
51 51 52 53 53 53 51 47 43 43 39 42 42 43 48 46 41 47 53 48 48 44 47 47 43 44 42 40 31 30 27 24 26 28 27 25 25 26 22 26 29 31 33 35 37
51 52 53 53 53 53 49 48 52 48 36 39 42 40 43 46 44 46 52 50 45 43 45 43 44 44 39 35 32 29 27 26 27 28 28 27 26 22 25 30 32 33 34 36 37
52 54 54 53 50 51 49 52 53 51 35 36 40 41 45 48 45 53 54 50 44 41 43 42 40 41 38 32 28 27 28 28 27 26 23 27 21 21 26 29 31 32 33 35 37
54 54 53 53 51 48 51 54 53 48 26 38 41 51 47 44 47 48 53 50 42 41 41 40 36 37 32 31 30 27 30 28 26 25 24 24 24 22 25 27 30 32 33 34 37
54 54 53 53 53 53 54 54 50 35 26 37 44 44 41 45 45 48 49 49 46 40 38 33 33 33 30 30 30 31 27 27 27 25 22 23 23 21 24 26 30 33 33 34 37
53 53 53 54 49 55 54 49 34 31 39 38 40 41 40 41 43 44 44 44 40 35 35 34 28 25 29 26 26 27 26 24 23 23 20 22 22 22 24 28 29 33 33 33 37
53 53 53 50 54 54 51 42 32 36 37 41 40 40 39 40 41 42 41 37 37 32 31 30 25 22 23 26 25 25 26 24 22 22 22 21 19 20 25 29 32 34 34 34 36
52 51 49 51 54 52 46 37 36 38 40 39 38 36 39 40 39 39 38 34 33 32 26 25 25 26 25 23 26 24 25 28 26 26 24 24 25 23 31 32 33 34 34 34 35
49 45 47 51 53 50 44 40 41 43 40 40 36 39 36 35 35 35 37 38 38 35 36 29 24 27 25 25 23 26 26 24 25 22 19 21 21 22 28 31 34 34 34 34 34
46 43 50 50 51 47 40 41 44 42 44 44 39 38 35 35 34 36 37 39 41 39 38 32 28 29 27 26 26 24 22 21 24 23 20 19 20 24 24 31 33 34 35 35 34
45 36 50 50 43 42 41 44 46 46 47 45 38 36 38 39 37 38 38 39 41 40 36 38 32 28 29 30 30 28 26 23 20 20 22 20 20 25 27 28 31 33 35 36 36
40 41 50 49 39 39 40 41 45 45 43 42 43 42 41 39 37 38 39 41 41 40 37 37 34 30 30 31 33 30 28 26 27 27 24 21 21 27 31 25 30 33 35 35 37
41 35 38 41 40 39 37 38 39 44 42 41 41 42 40 38 39 37 38 40 39 38 39 36 31 30 28 28 31 30 32 29 26 23 22 24 23 25 28 30 33 34 35 35 38
38 34 38 34 35 36 36 37 37 37 41 41 38 37 37 35 35 36 38 36 37 36 34 31 27 27 27 27 27 29 29 31 29 27 22 22 23 24 26 26 28 29 32 36 36
36 34 36 34 33 33 33 33 35 35 36 37 36 34 35 34 34 35 36 35 34 34 33 31 26 24 20 21 22 19 21 21 25 28 29 28 23 26 27 28 32 35 35 36 34
42 41 32 33 31 30 32 32 33 35 33 34 35 32 31 28 29 33 35 35 35 33 30 27 23 19 14 24 23 18 23 23 20 21 19 18 20 26 28 33 35 36 35 35 33

GFSSW_sfc_30mbdewp_009.txt.gz
Dewpoint
51 51 52 52 51 51 52 53 54 54 55 55 56 56 54 54 55 54 50 50 54 61 62 54 53 49 48 46 40 36 33 31 29 23 23 30 33 33 33 32 33 37 39 44 47
49 50 50 50 51 51 51 52 53 54 54 54 55 55 54 54 52 50 52 52 53 59 60 48 48 47 44 43 38 36 34 34 33 26 29 34 34 33 31 31 32 33 47 50 51
48 49 50 50 50 51 51 51 52 52 53 53 54 54 54 53 46 43 49 52 52 55 60 55 48 46 44 40 38 36 34 35 35 34 37 36 35 33 31 30 32 32 33 48 51
49 49 49 49 49 50 50 51 51 52 52 53 53 53 53 51 33 42 47 50 52 53 57 57 51 44 42 40 41 37 37 36 36 37 38 36 34 33 31 30 32 33 33 45 49
49 49 49 49 48 48 49 50 51 51 51 52 52 52 51 45 41 43 47 50 52 52 55 54 45 43 41 41 41 40 39 39 39 39 37 35 32 31 31 32 33 32 33 40 49
49 49 50 50 49 49 48 49 51 51 52 51 52 52 48 39 43 44 43 48 51 52 57 55 45 44 42 41 41 41 40 39 37 36 33 32 31 32 31 32 31 30 30 38 47
50 50 50 50 50 50 49 48 48 50 51 51 51 50 46 39 42 45 42 46 51 54 56 56 49 44 43 41 42 38 35 33 33 34 33 32 30 29 31 30 29 28 29 32 37
51 50 50 50 50 51 50 49 48 49 51 51 50 49 41 44 46 45 44 49 51 55 58 56 51 46 44 42 34 31 31 30 31 31 31 31 26 30 31 29 28 29 28 29 32
51 51 53 53 51 50 50 50 50 49 50 50 48 46 39 45 43 44 43 45 47 53 57 55 50 47 45 41 37 31 30 28 28 29 29 29 26 28 30 28 27 27 28 32 35
49 51 52 53 53 52 51 51 50 50 49 48 47 41 42 40 46 45 44 44 50 49 54 54 50 45 42 40 36 33 29 29 27 27 28 27 27 28 29 26 25 26 31 34 36
51 51 51 52 54 54 51 48 43 42 44 39 41 41 41 42 48 43 44 43 49 49 46 51 45 42 42 41 39 34 29 26 27 27 26 26 27 27 28 27 25 29 32 35 36
50 50 51 52 53 54 51 44 42 41 39 43 42 42 44 46 44 45 44 41 44 41 47 47 42 44 43 38 35 32 29 29 28 29 27 26 26 27 26 25 27 30 33 35 37
51 51 53 54 54 52 47 46 50 49 38 38 41 41 41 45 41 46 44 45 42 39 44 41 44 46 43 42 37 33 31 31 29 28 27 27 26 27 25 28 32 33 35 37 37
52 53 54 54 50 50 46 50 52 51 33 34 38 39 40 42 40 47 46 45 43 39 42 44 44 45 43 38 40 38 32 30 28 27 24 27 23 24 24 29 32 33 35 37 39
53 53 53 52 51 48 51 51 52 45 20 34 38 47 44 39 45 46 53 49 40 39 44 41 42 43 43 39 34 36 29 28 28 25 24 24 23 24 25 28 30 32 33 36 39
53 53 53 53 52 52 54 52 45 31 25 35 40 39 39 41 42 48 49 51 43 41 40 38 42 44 41 38 32 30 28 27 27 25 23 24 23 22 23 25 29 32 33 36 39
52 53 53 54 48 54 54 48 33 26 36 35 35 39 38 38 42 43 43 44 38 36 36 34 36 36 31 29 29 29 27 25 24 24 22 23 23 23 24 26 28 32 33 36 39
52 52 52 51 55 54 49 38 27 35 35 41 40 38 35 38 41 41 42 41 40 35 35 31 33 31 26 27 27 27 27 25 19 21 20 23 19 20 27 28 30 33 33 35 38
53 50 49 51 54 53 44 31 34 38 40 39 38 35 37 39 41 41 40 39 37 36 32 29 30 25 24 25 27 25 25 28 26 26 25 23 24 25 31 31 32 33 33 34 36
48 47 47 51 54 50 41 36 40 41 40 39 35 38 34 37 38 37 38 39 34 34 31 30 24 27 24 24 22 26 27 24 25 23 22 21 22 23 26 30 33 33 33 34 36
46 43 50 53 52 46 39 40 41 41 42 40 37 38 35 36 38 37 37 38 39 35 37 29 26 28 25 25 23 22 23 23 25 24 20 19 20 24 24 30 33 34 34 34 35
44 38 50 52 44 44 40 45 41 40 47 44 40 36 35 35 36 38 37 38 41 39 36 35 29 26 27 30 29 27 23 22 21 21 21 20 20 25 29 29 34 34 35 35 35
40 45 50 49 40 41 44 44 44 45 44 41 36 37 41 37 38 39 39 41 42 39 37 36 31 28 30 31 33 29 27 24 26 26 23 20 20 26 28 28 32 34 35 35 36
42 36 45 47 43 41 39 42 43 46 42 43 42 42 39 38 38 38 39 39 39 38 39 36 32 27 24 28 31 29 30 27 26 25 23 23 23 25 28 29 31 33 35 35 37
39 33 37 36 37 38 38 40 41 41 44 43 41 40 38 36 36 37 37 36 37 36 34 30 28 28 27 28 31 30 30 28 26 25 23 23 24 25 26 28 27 29 31 35 37
37 34 36 34 34 34 34 35 37 37 41 41 40 39 39 35 35 36 36 36 35 34 31 30 27 24 21 23 22 21 25 31 31 30 28 28 27 26 27 30 32 35 35 35 36
41 41 33 33 31 31 32 36 35 34 35 39 36 36 37 32 31 34 34 34 34 32 29 25 24 21 20 24 23 16 20 20 21 22 24 21 19 27 32 34 34 35 35 36 35

GFSSW_sfc_30mbdewp_012.txt.gz
Dewpoint
50 50 51 52 52 52 52 52 54 55 56 56 56 57 56 55 55 53 50 50 52 56 62 57 54 51 48 46 40 35 33 31 31 26 23 29 34 35 34 33 32 34 37 41 49
49 49 50 50 51 51 51 52 53 54 54 55 56 56 56 55 52 50 51 52 52 54 57 54 51 48 44 45 38 36 34 34 33 28 27 33 36 36 33 31 30 32 40 48 50
50 49 49 50 50 50 51 52 52 53 53 54 54 55 55 53 46 44 49 52 51 52 55 58 51 46 43 41 38 36 35 36 35 34 33 37 37 36 33 31 31 29 32 36 47
49 49 49 49 49 50 50 51 51 52 52 53 53 54 53 49 37 44 50 49 51 52 53 57 52 44 43 41 40 36 37 36 37 37 38 37 37 35 33 32 33 33 34 34 41
48 49 50 50 49 49 49 49 50 52 52 52 53 53 51 45 42 42 47 45 50 51 51 55 46 43 42 42 41 39 39 40 39 40 39 38 35 33 32 33 33 33 32 32 38
49 50 50 50 51 50 50 48 50 51 51 52 52 51 47 39 43 44 43 43 49 50 51 55 47 44 42 41 41 41 41 40 40 39 37 35 35 33 33 33 32 31 30 30 35
51 51 51 50 50 50 50 49 48 50 51 51 52 50 45 40 42 45 45 41 45 50 50 56 52 44 43 41 42 41 39 37 36 34 34 34 31 31 32 31 30 29 29 30 31
51 52 52 51 50 50 50 50 49 48 50 51 51 48 40 44 44 43 44 45 49 51 51 57 54 47 43 41 35 37 32 34 34 32 31 31 24 27 30 31 29 28 28 33 37
50 50 50 52 53 51 51 51 50 49 49 50 48 44 38 45 43 44 43 42 48 50 54 56 51 47 45 40 34 31 34 30 32 30 30 30 27 25 30 28 28 26 30 35 37
50 49 50 52 52 54 52 50 49 49 49 47 46 40 40 40 43 43 43 42 47 48 51 52 49 45 43 40 35 34 31 31 32 29 28 27 27 28 29 27 27 26 32 35 37
50 50 50 52 52 54 52 47 42 40 43 39 38 39 40 40 47 42 43 41 45 47 44 48 45 41 42 42 39 36 32 32 29 28 27 26 26 27 28 28 27 27 33 36 37
52 52 51 52 53 54 50 42 40 42 36 41 42 40 42 44 42 42 41 40 43 34 44 47 41 43 43 41 40 33 31 30 31 29 27 27 27 28 28 27 26 27 33 36 37
52 52 53 54 54 53 47 43 49 46 38 38 40 41 41 42 40 42 40 41 41 33 40 42 43 44 43 38 38 35 35 35 34 31 28 27 25 26 26 27 30 32 35 37 37
52 52 53 54 51 50 47 51 51 47 33 34 37 39 42 42 39 45 39 41 40 33 38 44 47 44 42 41 39 38 37 34 32 29 25 27 23 25 25 27 30 33 36 37 39
52 53 53 54 49 47 48 52 51 47 20 33 36 42 41 39 40 43 41 38 39 36 40 42 45 44 42 41 41 40 36 35 32 27 25 25 23 24 24 26 30 33 35 37 39
53 53 53 52 52 51 53 51 47 31 21 33 37 38 38 37 40 43 42 45 44 37 41 40 44 46 45 43 39 36 31 27 27 25 24 24 23 22 23 24 29 32 34 37 39
53 53 52 53 47 54 51 45 31 25 35 34 33 36 35 36 37 40 39 39 38 33 35 38 41 41 40 39 32 33 29 26 24 24 23 24 23 23 24 25 27 31 33 37 39
52 52 52 51 54 52 47 38 27 33 31 38 35 35 32 36 36 39 38 37 43 33 33 34 33 36 31 38 37 33 28 25 19 21 21 24 21 19 27 31 29 32 33 37 39
53 49 49 51 54 52 39 30 31 37 37 38 35 31 33 34 38 36 38 38 41 35 30 31 33 31 33 30 39 28 29 28 26 26 25 25 23 26 30 31 31 32 33 36 38
47 46 47 51 54 48 37 33 37 42 40 37 32 35 30 31 37 36 38 41 40 36 33 31 27 29 24 26 24 27 28 26 26 23 22 23 22 23 23 27 32 32 33 35 37
46 43 50 53 52 44 33 34 42 41 39 38 36 35 35 34 36 36 36 40 39 36 32 28 26 27 24 24 26 24 25 25 26 25 21 19 19 24 24 26 31 33 33 35 37
44 39 51 51 41 41 36 42 43 42 45 43 40 37 34 37 36 38 37 39 39 37 32 31 27 26 24 30 27 24 24 24 23 22 22 21 22 25 28 30 32 34 34 35 36
40 44 51 50 39 41 43 42 42 42 43 42 37 37 36 37 37 39 40 41 40 37 33 33 29 27 29 30 33 27 25 23 25 24 21 20 21 27 27 32 34 34 35 35 35
41 39 45 46 45 42 41 41 41 46 44 43 39 39 38 38 40 39 39 39 40 39 39 35 31 26 27 28 29 28 27 25 25 23 23 23 23 25 28 30 32 33 35 35 36
40 34 41 39 40 41 40 42 42 42 44 43 41 38 37 36 37 38 37 37 37 38 35 30 29 29 27 30 30 29 28 27 25 25 24 25 25 25 27 28 29 29 32 35 36
37 34 36 35 34 38 36 40 41 38 41 40 39 40 38 37 36 37 36 36 35 34 32 30 27 25 22 24 25 27 30 28 27 27 25 26 25 28 29 30 34 35 35 34 37
40 41 33 33 32 33 34 37 37 37 41 37 39 37 34 33 33 35 34 34 34 31 29 26 24 23 23 23 22 19 21 30 29 29 29 26 27 27 33 33 33 34 34 35 36

GFSSW_sfc_30mbdewp_015.txt.gz
Dewpoint
49 49 50 50 51 52 52 53 53 55 57 57 57 57 57 56 56 53 49 49 51 51 54 57 55 55 48 46 39 35 33 32 31 28 29 27 34 36 35 34 33 33 37 40 49
50 50 49 49 50 51 51 52 52 53 54 55 56 56 56 56 52 50 52 52 52 52 53 56 52 50 46 45 39 36 34 34 34 30 29 30 36 37 36 33 32 31 35 42 48
49 50 50 50 50 50 50 52 52 52 53 54 55 55 55 53 48 46 50 53 53 52 52 55 57 48 45 42 40 37 36 36 36 34 32 35 37 38 35 33 32 31 32 34 40
48 49 48 49 50 50 50 51 52 52 52 53 54 54 53 49 35 44 49 50 52 53 51 53 55 46 46 42 40 37 37 37 37 37 38 37 38 37 35 34 34 34 34 34 33
49 49 49 50 50 50 49 49 50 51 52 52 52 53 51 46 43 45 47 45 47 51 50 51 51 45 45 43 41 38 38 39 39 39 40 40 39 37 36 35 35 34 34 33 32
50 50 50 51 50 51 50 50 49 50 51 51 52 51 47 40 43 44 44 43 41 49 50 51 51 45 44 42 42 41 40 40 40 40 39 37 37 35 37 35 34 32 31 30 31
51 51 52 51 51 50 50 50 50 49 51 51 51 50 46 41 43 44 45 44 41 47 49 51 53 44 43 42 42 41 39 39 38 37 36 35 33 33 34 34 32 31 29 31 35
51 51 53 52 52 51 50 50 50 50 49 51 51 48 41 45 45 44 43 43 47 48 50 50 53 48 43 41 39 39 37 37 37 34 33 31 32 29 30 32 31 29 30 36 39
50 50 50 50 52 53 52 51 51 50 49 49 48 45 38 44 44 43 41 41 44 51 51 50 53 48 45 37 36 34 36 34 37 35 34 30 27 29 29 29 28 27 32 36 38
51 51 50 50 52 53 53 50 49 49 49 48 46 41 41 40 43 43 44 41 43 49 48 47 50 45 43 39 35 33 34 31 32 31 29 28 28 29 29 29 28 27 33 36 38
51 52 51 51 51 52 53 47 40 40 44 38 39 38 39 40 44 42 43 41 41 46 39 43 44 41 41 41 38 34 33 33 35 30 27 27 27 28 29 29 28 27 33 36 38
52 52 53 52 52 53 52 42 39 38 36 40 41 40 41 44 41 43 42 37 40 37 39 41 41 44 43 42 37 35 33 32 32 30 29 31 29 28 29 29 28 27 34 36 38
51 53 52 51 54 53 49 43 48 44 37 38 38 40 41 41 39 39 40 39 41 34 37 39 41 44 42 41 39 36 34 33 35 33 30 27 26 26 27 27 29 30 36 37 37
52 53 52 53 51 51 47 49 50 45 31 34 36 37 41 41 35 40 40 39 41 33 33 40 46 42 41 40 40 38 36 36 35 36 33 27 25 26 26 26 30 33 36 37 38
53 53 53 52 50 47 49 51 50 44 21 34 36 40 42 36 38 40 41 37 37 33 34 39 45 42 41 40 40 39 39 38 36 33 26 25 24 25 25 24 29 33 36 38 39
53 53 52 51 52 51 52 51 47 30 21 33 38 38 38 38 37 40 38 40 45 34 33 43 49 44 42 42 41 32 30 30 28 26 24 25 24 23 22 23 28 32 36 38 39
53 53 52 51 48 53 52 44 30 24 34 32 33 37 33 35 35 36 35 34 35 30 30 39 44 47 45 39 36 35 36 32 27 24 24 24 23 23 25 26 28 31 34 38 39
53 52 51 51 52 52 47 38 26 29 31 35 34 35 32 34 35 36 34 33 38 39 28 33 34 40 41 41 38 38 36 28 23 22 22 24 22 20 25 31 31 32 34 38 39
53 49 49 49 53 50 41 29 29 32 34 35 33 30 30 33 34 36 35 33 37 38 26 32 33 38 33 38 41 36 36 30 26 25 25 25 25 26 28 30 31 31 34 38 39
46 44 46 50 52 45 35 32 35 39 39 34 25 29 27 31 32 34 33 37 36 40 35 33 28 31 30 32 31 35 33 33 27 23 21 24 23 24 23 24 31 32 34 37 39
46 42 50 52 50 40 31 33 37 39 40 33 33 31 28 28 35 34 34 39 40 40 35 30 28 27 29 29 27 33 32 29 27 26 23 19 19 24 24 26 28 32 34 37 38
43 39 51 52 39 39 35 38 41 42 41 38 37 36 33 30 33 35 36 38 40 39 32 28 28 29 25 30 30 29 30 27 25 23 23 22 22 25 27 27 30 33 34 36 38
41 44 51 49 36 36 39 39 39 42 39 41 39 37 35 31 35 37 38 38 41 40 33 31 29 29 29 29 32 28 24 25 25 24 22 21 21 27 30 33 34 33 34 35 37
41 40 44 45 44 41 40 40 41 45 44 44 39 38 37 37 39 37 39 41 41 38 37 33 30 28 28 28 29 27 25 24 25 24 23 22 22 25 29 32 34 34 35 35 35
41 37 43 38 39 41 43 42 39 41 43 45 39 37 36 37 39 37 40 38 39 39 36 32 28 28 27 29 29 27 27 25 24 25 24 24 24 25 27 30 32 33 35 35 36
39 35 37 36 36 41 41 41 39 41 42 40 38 37 38 37 37 37 38 37 36 35 34 30 29 25 24 27 29 29 29 27 25 25 25 25 25 27 29 31 32 34 33 33 36
40 41 35 33 33 37 36 39 41 42 42 38 38 38 39 34 34 39 38 37 36 33 31 30 25 25 25 23 23 25 25 29 27 28 26 25 26 28 32 33 34 34 35 35 36

GFSSW_sfc_30mbdewp_018.txt.gz
Dewpoint
50 50 50 50 50 51 52 52 53 54 57 57 58 57 58 58 56 53 48 47 48 50 51 53 55 55 53 47 42 38 33 30 30 31 32 28 34 37 37 35 32 32 33 37 44
50 50 50 50 50 50 51 52 52 53 54 55 56 56 57 56 52 50 51 53 53 53 47 51 52 53 49 46 44 38 34 32 34 33 32 33 36 38 37 34 33 30 32 34 36
49 50 50 50 50 50 51 51 52 52 53 54 55 55 56 54 47 44 49 53 55 54 50 49 55 52 48 45 43 40 35 36 36 35 34 36 37 38 38 35 33 31 31 32 34
49 49 49 49 50 50 50 50 51 53 52 53 54 54 55 49 32 47 51 50 50 53 50 45 51 50 48 44 42 38 39 37 37 38 38 37 38 38 39 38 38 38 38 35 33
50 50 49 50 51 51 50 49 50 51 52 53 53 54 50 45 40 47 48 45 43 49 49 44 47 49 46 45 42 40 38 38 38 38 38 39 39 39 39 39 39 39 37 35 33
51 51 51 51 51 51 51 50 50 49 51 52 53 52 46 39 41 43 44 44 42 46 49 44 47 46 45 45 42 40 40 39 39 39 39 39 38 38 37 37 37 34 34 34 32
51 51 52 52 52 52 50 51 50 50 50 52 52 49 45 40 41 42 43 41 42 40 46 46 47 48 44 45 44 41 40 40 39 40 38 38 36 35 36 31 30 30 32 33 37
51 52 52 53 52 52 51 50 50 50 49 51 51 47 40 43 44 43 42 42 43 40 43 45 47 51 47 44 43 41 41 37 37 39 39 36 32 33 33 29 30 29 29 35 38
51 52 52 51 50 52 53 53 51 51 50 49 48 44 37 43 42 41 41 40 43 44 41 45 47 49 46 41 39 40 36 36 34 38 37 35 32 32 30 30 29 29 30 35 37
51 52 52 51 50 51 53 53 50 50 49 47 46 41 39 37 39 40 41 39 38 44 43 45 44 45 44 40 35 34 35 31 34 34 33 34 32 31 31 30 29 29 31 34 36
52 52 52 52 51 51 52 49 43 42 44 36 35 34 38 41 44 40 41 38 37 42 38 41 39 38 42 40 37 34 31 33 34 34 32 32 33 31 32 32 29 29 30 34 36
52 53 53 53 52 52 52 44 39 39 36 40 39 38 41 41 39 39 41 35 36 35 40 36 36 41 44 41 35 34 33 32 33 32 31 33 33 34 33 30 29 29 31 34 37
52 52 53 52 51 52 50 45 48 45 36 38 38 39 39 38 37 37 40 34 33 34 37 34 37 42 42 37 36 36 33 32 32 33 35 32 31 30 28 28 28 28 32 35 36
52 52 53 52 50 51 48 50 48 45 31 34 36 36 39 40 36 36 40 33 35 34 37 33 39 40 41 37 36 35 35 34 36 37 33 32 27 29 27 28 29 29 34 35 36
53 53 53 52 50 47 49 50 48 42 21 34 36 40 37 34 35 34 41 35 34 36 37 34 40 42 40 38 38 33 38 36 37 37 34 32 29 27 27 25 27 31 34 35 37
54 53 53 51 50 51 51 50 44 29 21 33 37 36 35 35 31 39 38 36 41 38 35 33 44 44 40 39 38 39 37 34 30 29 30 30 27 25 22 23 27 31 35 36 37
54 53 51 49 45 53 51 43 29 24 33 32 33 34 32 32 33 37 34 33 32 31 31 32 36 45 42 40 39 37 35 33 31 30 26 25 25 25 25 26 28 31 35 36 38
54 53 51 47 49 52 46 36 25 29 31 36 33 33 30 32 31 35 31 30 38 37 31 30 32 43 42 40 37 36 35 29 24 24 25 25 24 22 25 28 29 30 35 37 38
55 52 49 48 50 51 40 28 29 32 35 35 32 30 28 31 30 32 30 29 34 37 31 30 32 42 43 41 39 38 35 31 26 26 23 24 25 27 28 29 30 29 35 37 38
47 44 43 47 51 47 35 31 34 37 37 36 27 28 26 28 29 31 29 31 32 37 38 30 32 39 40 42 39 39 38 33 28 23 21 22 24 22 24 25 30 30 34 37 38
45 42 48 51 50 40 30 32 36 39 39 36 28 27 25 27 28 29 29 34 33 33 38 34 32 31 35 39 37 36 37 36 30 26 22 19 20 25 24 26 27 30 33 37 38
44 39 50 50 38 37 33 37 39 38 40 37 34 25 25 27 27 35 29 35 34 34 35 36 28 29 35 31 36 37 36 36 30 26 25 22 21 24 27 28 29 31 34 37 38
41 44 51 48 34 35 37 38 38 38 39 37 37 28 27 25 25 36 32 33 39 37 34 32 28 28 29 31 29 33 36 36 32 26 24 23 22 26 31 33 33 33 34 37 38
42 39 43 44 44 40 37 36 37 41 40 42 39 36 26 25 30 31 36 38 41 38 38 34 30 25 25 26 29 31 32 32 32 28 26 24 24 25 29 32 33 34 34 36 38
41 40 42 36 38 40 40 39 38 40 44 45 41 34 28 24 34 34 38 39 41 40 39 36 29 29 28 30 28 29 30 29 30 30 27 27 26 26 26 30 33 34 34 34 36
37 38 39 41 41 41 39 38 39 39 41 39 41 36 32 27 34 35 38 37 38 39 38 35 31 28 25 28 29 27 28 30 32 32 30 27 26 27 28 31 31 34 35 34 35
42 41 37 34 34 40 40 40 42 41 43 39 41 37 35 34 38 38 38 38 38 37 37 34 32 28 27 25 27 26 28 28 27 27 27 26 27 28 29 30 31 33 33 34 35

GFSSW_sfc_30mbdewp_021.txt.gz
Dewpoint
50 51 50 50 50 51 52 52 53 54 56 57 58 58 58 58 57 53 48 47 47 52 52 49 46 52 52 49 45 41 34 31 29 29 28 31 31 32 36 34 33 31 32 35 36
50 50 50 50 50 51 51 52 52 53 54 55 56 56 57 57 51 50 50 52 53 54 48 44 43 45 49 47 44 40 34 31 31 31 30 32 34 36 36 34 33 33 31 33 33
51 50 50 50 50 50 51 51 52 53 53 53 54 56 56 53 46 45 48 52 54 55 50 44 46 51 47 47 43 41 36 34 33 33 34 33 35 36 37 35 35 33 33 35 35
51 50 50 49 50 51 50 51 51 52 53 53 54 55 55 47 32 46 51 49 52 54 50 45 41 46 46 45 43 39 38 36 35 36 37 36 35 36 36 37 38 38 38 38 37
51 51 50 50 51 51 51 50 49 51 51 53 53 54 50 43 38 49 48 46 43 46 48 45 39 40 40 41 44 40 38 37 37 36 37 37 36 36 37 38 38 38 38 38 37
51 52 51 51 52 52 51 51 50 49 51 53 53 53 46 37 36 38 46 44 42 43 45 45 40 39 39 40 40 42 39 38 37 37 37 37 36 36 36 37 36 35 34 34 35
51 52 52 52 53 52 52 51 51 50 49 51 52 49 43 38 39 39 39 39 40 41 42 46 43 39 41 40 40 43 40 38 37 37 36 37 36 35 36 36 33 27 27 29 33
51 51 53 52 53 52 52 51 50 51 50 50 51 47 42 42 42 41 40 40 40 39 38 41 47 41 43 44 42 39 43 39 36 36 37 37 34 34 33 33 29 27 27 31 36
52 52 53 53 52 51 52 53 53 51 51 49 45 44 38 41 40 40 39 38 38 40 38 38 42 42 45 44 41 40 36 38 37 35 35 36 34 33 33 32 29 28 27 32 36
54 52 53 53 52 51 52 53 53 51 49 47 43 40 37 36 38 39 39 38 36 37 38 36 40 40 41 41 35 35 36 37 36 33 35 34 33 33 33 30 31 29 26 31 34
55 53 53 53 52 51 51 49 44 41 46 39 37 35 34 36 39 40 37 38 37 34 35 37 37 35 36 42 37 36 35 34 33 32 32 32 32 31 31 31 31 30 28 30 34
55 53 53 53 53 52 51 45 41 43 39 42 39 37 36 40 37 38 38 35 34 31 32 34 34 35 33 38 42 36 34 32 30 32 33 32 30 31 32 32 34 31 28 30 36
54 53 53 53 52 50 49 47 48 42 37 38 40 39 37 38 35 34 37 36 30 29 30 32 32 35 31 38 40 37 35 30 29 32 33 32 31 31 33 34 33 30 29 32 35
54 53 53 52 48 46 48 51 48 45 32 33 37 38 39 42 37 36 37 35 31 28 29 33 35 35 33 37 41 37 34 32 30 33 30 34 25 27 28 29 28 28 29 33 35
54 53 53 52 47 48 49 49 48 44 21 34 36 40 38 39 33 33 34 37 32 29 35 31 34 34 34 36 42 34 34 32 33 32 34 34 31 27 28 26 28 28 30 34 35
55 54 53 50 48 49 49 47 44 30 22 33 37 37 36 37 33 35 33 36 34 32 38 31 36 37 36 39 42 39 34 35 34 33 31 31 30 24 26 25 25 28 32 35 35
55 54 52 45 42 51 49 43 29 24 33 32 33 36 34 31 32 32 34 34 33 28 30 33 33 40 42 41 44 38 36 33 30 30 25 26 28 25 23 25 26 29 33 35 36
55 55 52 45 47 51 45 35 24 29 30 36 36 34 31 28 28 30 33 33 34 34 31 29 28 36 39 43 40 39 36 26 23 23 22 25 23 23 25 27 27 31 34 35 36
55 53 50 48 48 49 40 27 29 33 36 34 35 32 30 27 28 30 33 31 30 32 30 31 31 36 44 45 40 38 32 32 26 25 23 25 26 24 27 29 29 29 34 35 36
51 48 47 50 49 47 37 31 34 37 38 37 31 28 25 26 27 29 31 31 28 33 36 35 30 35 43 41 40 38 34 31 27 22 20 22 22 22 24 25 28 28 33 35 37
46 42 45 49 50 42 31 32 36 38 39 35 34 29 24 23 25 29 28 29 27 30 38 39 34 33 41 40 38 37 35 35 30 27 21 20 19 25 24 26 27 29 33 36 37
45 37 50 50 38 38 33 35 39 38 40 38 38 31 23 22 23 27 26 27 29 33 37 39 37 32 35 36 38 39 36 34 28 27 25 23 21 24 27 29 29 30 33 36 38
42 43 50 46 33 34 37 36 38 38 39 38 37 34 25 22 23 30 31 28 35 34 34 37 32 32 32 35 38 37 38 38 34 30 26 22 23 27 31 31 30 31 33 36 38
42 39 43 44 41 38 35 35 35 39 39 39 36 32 25 23 24 28 33 33 36 32 36 36 31 27 27 30 36 35 37 36 34 30 27 25 24 25 29 31 32 32 34 36 37
41 40 40 36 37 39 40 38 37 37 41 39 39 33 27 22 23 26 30 33 35 37 34 37 29 28 25 28 31 33 34 35 34 33 29 27 26 25 27 29 32 33 34 36 37
39 36 42 41 38 38 38 37 37 38 41 39 39 35 30 21 23 29 32 33 35 38 35 37 30 29 27 29 28 26 29 32 32 32 30 28 27 30 29 28 32 33 33 35 36
45 42 38 34 37 39 39 38 38 40 40 42 40 39 31 23 26 36 37 35 37 37 36 36 34 29 26 27 28 27 27 28 29 30 29 28 29 31 28 29 30 33 34 34 35

GFSSW_sfc_30mbdewp_024.txt.gz
Dewpoint
51 51 51 51 51 51 51 52 53 54 56 57 58 58 58 58 58 55 50 48 51 54 53 47 46 44 51 51 50 45 39 36 33 32 32 30 30 31 35 34 34 34 32 36 40
51 51 50 51 51 51 51 51 52 52 53 55 56 56 57 57 52 50 52 52 53 54 49 43 42 41 43 49 49 44 40 37 35 33 31 31 32 35 36 35 34 35 34 34 35
51 51 50 50 50 51 50 51 51 53 53 53 54 56 56 54 48 45 50 53 54 54 52 48 43 42 46 46 47 44 41 39 35 34 34 33 34 34 35 35 36 35 38 39 38
51 51 51 50 49 51 51 50 51 51 53 53 54 55 55 49 34 49 52 50 50 53 52 49 44 40 43 43 44 42 42 40 38 37 36 35 36 36 35 36 38 38 39 39 38
51 51 52 51 50 51 51 51 50 50 52 53 53 55 50 43 39 50 50 48 48 50 49 47 44 39 39 41 44 43 42 39 38 37 37 37 37 37 36 37 38 38 38 38 38
51 51 52 52 52 52 52 51 51 50 50 52 53 54 48 38 38 38 46 44 42 41 43 46 44 41 37 37 37 42 43 42 40 37 36 36 36 37 37 37 37 37 37 35 36
52 51 53 53 52 53 52 53 51 51 51 50 52 50 44 38 38 38 39 40 41 40 38 42 43 43 37 36 38 38 39 42 41 38 37 37 35 36 37 37 36 36 34 29 32
53 52 52 54 53 53 52 52 52 51 51 50 51 47 41 42 43 42 40 39 39 38 37 39 41 42 44 42 42 40 39 38 40 41 37 37 34 37 37 36 35 35 29 30 35
54 53 53 53 53 53 51 52 52 53 51 50 47 44 35 41 42 40 40 38 38 38 38 37 37 42 41 38 40 39 36 36 39 40 37 35 34 36 37 35 34 32 30 31 36
56 54 53 53 54 52 52 51 53 53 52 48 45 39 39 35 38 39 40 39 37 35 37 38 35 38 40 36 30 34 37 36 37 40 38 36 34 36 36 34 31 31 30 32 36
56 55 54 54 53 52 50 49 44 42 47 40 39 36 35 38 37 37 38 37 36 35 33 35 33 33 35 36 36 35 35 35 35 37 36 36 33 34 35 35 34 32 32 31 36
55 55 54 53 52 52 50 45 43 44 39 43 41 39 38 38 35 35 38 35 35 33 33 31 32 32 33 35 35 36 37 37 37 36 36 34 33 34 33 33 32 32 32 31 37
55 55 54 53 52 51 48 46 47 43 38 39 42 40 39 37 37 35 37 35 32 31 32 30 31 34 31 32 32 32 36 37 37 34 34 32 31 32 32 31 32 33 34 34 37
54 55 54 52 48 46 44 48 48 47 33 34 37 40 41 41 38 40 37 36 35 31 30 29 30 30 34 31 32 30 35 38 39 35 32 33 28 30 31 31 32 33 33 35 36
54 54 53 49 48 46 49 49 48 45 22 35 37 39 40 38 36 36 38 37 35 32 30 31 31 30 30 33 33 32 36 39 39 37 36 35 32 32 31 29 31 31 29 35 36
54 54 53 51 49 49 49 48 44 31 21 33 37 36 36 38 37 36 35 36 37 34 32 32 35 36 30 32 34 35 36 39 41 36 32 32 33 29 28 28 28 29 30 35 35
54 54 52 47 43 50 48 43 30 25 32 33 33 36 33 34 34 34 32 32 31 29 29 31 33 34 37 33 32 34 35 30 30 31 30 31 30 30 25 26 28 29 33 35 36
54 55 53 47 51 49 44 36 25 25 31 37 36 35 32 31 31 30 34 32 33 32 30 26 20 34 36 35 34 36 34 32 26 27 24 27 28 27 27 27 29 31 35 36 37
54 54 51 49 51 48 40 28 27 29 36 34 35 31 32 30 28 28 29 29 30 33 29 29 28 36 34 37 38 35 31 37 28 23 24 25 26 24 29 29 29 32 35 36 37
51 50 49 49 51 45 37 30 32 35 38 37 30 33 28 27 27 31 29 31 30 33 34 31 28 36 38 40 42 39 39 33 30 22 22 25 25 23 26 28 28 33 35 36 38
48 44 47 51 50 42 31 33 34 38 39 35 34 33 29 26 26 31 32 30 33 33 35 34 31 34 36 36 35 39 38 35 31 28 24 22 22 26 25 28 28 31 35 36 37
45 39 49 51 40 38 34 35 38 37 39 38 38 36 31 25 24 26 30 29 30 36 34 35 33 31 33 39 41 40 36 34 27 28 27 23 22 26 27 28 30 29 35 37 38
42 43 50 48 34 34 36 37 37 37 38 37 36 38 33 30 22 24 27 29 33 34 36 38 35 30 32 37 42 39 37 34 34 31 27 23 23 30 30 29 30 31 36 37 38
43 38 43 44 42 37 35 34 33 39 38 39 38 37 34 32 23 27 28 31 33 28 36 41 37 33 32 35 37 36 36 36 35 31 28 26 24 29 31 31 31 32 36 37 38
42 39 40 35 37 38 38 37 35 34 39 39 38 37 34 26 22 23 31 32 37 33 36 37 36 36 36 37 36 36 36 37 36 34 30 28 23 27 31 32 32 33 36 37 38
40 38 42 40 37 37 38 37 36 37 39 38 36 37 36 27 22 22 30 32 32 36 32 34 34 32 28 36 36 34 35 36 36 35 34 33 29 27 29 32 32 33 35 37 37
45 43 39 37 38 38 37 37 37 39 39 40 39 38 37 33 24 37 29 32 35 34 36 35 35 31 26 28 28 27 29 34 35 35 35 32 32 31 29 31 32 33 35 36 37

GFSSW_sfc_30mbdewp_027.txt.gz
Dewpoint
51 51 51 51 51 51 52 52 52 53 55 56 58 60 59 58 58 56 51 50 52 54 54 48 46 46 44 49 52 51 43 38 38 35 33 34 30 31 34 34 35 35 34 37 45
51 51 51 51 51 51 51 52 52 53 53 54 56 56 57 57 54 52 54 54 54 54 50 47 46 44 42 48 51 48 43 41 39 37 34 34 32 34 36 36 36 36 37 38 45
51 52 52 51 51 50 51 50 52 52 53 53 54 55 56 56 49 47 52 54 55 55 54 52 49 46 42 42 46 48 44 42 40 39 38 35 35 35 34 34 37 36 37 39 39
51 51 52 51 50 50 52 51 50 51 53 53 53 55 55 52 36 48 52 52 51 54 53 51 49 44 40 43 45 45 46 46 43 43 41 37 36 35 35 35 37 38 38 39 39
53 51 52 52 51 51 52 52 51 49 51 52 53 54 51 46 45 51 49 49 48 51 51 50 47 45 39 39 41 43 43 44 44 42 41 39 37 36 37 38 38 37 37 38 38
54 52 52 53 52 52 53 53 52 51 50 51 53 54 48 39 43 42 45 44 43 49 49 49 46 45 42 38 37 39 41 42 45 43 40 37 36 37 37 38 37 37 37 37 37
55 53 52 53 52 53 54 52 53 52 51 50 51 51 46 39 41 42 43 44 43 42 39 42 46 44 43 39 39 41 38 37 38 43 43 42 36 36 38 38 37 37 37 37 34
56 54 53 53 54 53 53 52 52 53 52 51 50 49 42 43 45 43 42 41 40 39 38 38 38 39 42 43 41 39 40 36 37 40 42 40 36 37 37 37 37 37 37 34 35
56 55 54 53 54 54 52 52 51 52 53 52 48 46 38 41 42 43 42 40 39 39 38 37 36 37 40 39 37 39 34 37 37 40 41 40 38 37 38 37 36 36 34 32 36
55 56 55 54 54 53 52 50 52 52 53 50 47 41 41 36 40 42 42 40 39 37 37 38 36 34 40 37 29 30 34 35 37 37 39 40 39 37 36 36 36 35 34 31 36
55 55 55 54 54 53 51 48 44 43 47 41 41 37 35 39 38 38 40 39 38 37 34 36 35 31 33 37 35 33 33 34 36 38 37 37 38 38 37 36 35 35 31 32 37
53 55 56 54 54 53 50 44 44 44 39 44 43 41 39 39 37 37 39 37 36 34 35 33 31 33 33 34 37 35 34 34 36 38 38 37 38 37 36 35 36 35 34 35 39
53 54 55 53 53 52 48 45 46 43 39 39 43 42 42 40 38 38 37 36 34 34 33 31 30 32 32 32 33 33 33 33 32 36 38 37 36 37 36 35 35 35 35 36 38
52 53 54 53 49 48 47 49 47 47 35 34 37 40 41 41 38 39 40 36 34 33 33 32 32 30 33 32 31 29 31 30 31 34 32 36 33 35 34 33 32 32 32 36 38
52 53 54 49 44 44 47 49 48 46 20 34 36 40 41 39 38 39 41 40 37 35 33 32 31 30 29 30 33 30 31 32 32 33 36 35 34 34 31 32 32 32 33 37 38
52 53 54 47 49 50 49 48 44 30 20 33 36 35 37 38 37 37 38 39 39 37 37 34 35 34 30 30 30 33 32 32 33 33 30 34 36 31 31 31 31 32 34 36 38
53 54 53 49 43 49 47 42 30 23 30 32 33 35 32 33 35 35 35 34 32 28 27 32 33 35 36 33 33 32 31 23 24 25 25 32 34 35 30 27 30 30 35 36 39
54 55 53 48 50 48 44 36 24 25 29 36 35 33 33 33 34 33 34 31 34 32 30 26 23 32 34 31 29 31 30 23 18 18 22 35 32 30 35 29 30 34 35 38 41
54 53 51 50 49 47 39 28 25 27 34 34 35 32 32 32 31 31 31 30 30 32 27 27 27 34 33 32 30 29 29 29 30 31 29 31 29 26 28 30 33 35 36 39 41
51 50 48 50 49 45 36 29 30 35 38 37 30 33 29 30 30 29 28 30 30 32 32 31 26 29 32 37 34 32 32 27 30 23 26 26 22 23 26 28 33 34 35 39 41
50 45 50 51 49 41 31 32 31 35 38 36 33 33 33 32 29 30 30 30 31 32 33 35 31 30 34 34 32 34 33 32 32 27 28 24 24 26 27 28 33 35 36 39 40
47 39 50 50 38 38 33 35 36 37 39 38 38 36 35 33 32 28 29 31 33 35 33 36 33 27 30 38 38 37 34 34 26 31 31 23 22 27 28 28 32 35 36 39 40
43 43 50 47 34 34 37 35 36 36 37 36 36 37 36 32 31 28 26 31 35 35 35 36 30 28 31 35 39 36 36 35 36 36 29 22 22 31 29 29 31 35 36 38 39
43 37 43 44 42 37 35 35 35 38 37 38 37 38 37 34 34 32 26 30 35 34 37 38 34 31 30 34 36 33 37 40 37 32 30 25 27 28 29 29 31 35 37 38 39
44 39 40 35 37 38 37 37 34 33 38 39 35 38 35 33 32 30 29 30 35 34 38 40 32 36 37 36 36 36 37 37 36 36 28 26 26 29 30 30 32 36 37 38 39
40 40 40 38 38 38 38 37 36 37 37 36 35 37 37 34 32 22 29 33 34 35 33 37 33 37 36 36 36 34 35 36 37 36 35 34 32 29 32 32 32 36 37 38 38
45 44 41 40 37 37 36 37 36 38 38 39 38 38 37 36 36 35 35 35 34 35 31 33 35 36 30 35 34 32 34 35 36 36 35 32 30 30 31 32 32 35 37 38 38

GFSSW_sfc_30mbdewp_030.txt.gz
Dewpoint
51 51 51 51 51 51 51 52 52 53 54 56 58 60 60 58 59 56 52 51 52 55 54 47 46 46 44 46 51 50 43 38 37 36 35 35 34 32 31 33 35 35 34 35 43
51 51 51 51 51 51 51 51 52 52 53 54 56 57 59 58 54 52 54 55 55 55 50 47 45 47 42 44 48 49 45 42 41 39 36 36 34 34 35 36 36 36 37 42 47
52 52 52 52 51 51 51 51 51 52 53 53 54 55 56 56 49 47 52 55 56 56 53 52 50 47 41 42 46 48 45 44 42 41 40 39 38 36 34 34 36 36 37 38 42
53 52 52 52 51 50 52 52 50 50 52 53 53 55 55 52 27 47 52 53 55 56 53 51 48 44 40 42 45 41 46 46 46 45 44 42 39 37 35 34 37 38 38 38 38
54 53 51 52 52 51 51 52 52 50 50 52 53 54 50 46 43 47 50 49 50 53 52 51 47 45 41 39 40 41 43 44 45 46 45 44 42 39 38 37 38 38 38 37 37
55 54 53 52 53 52 52 53 52 52 51 50 53 54 48 37 44 43 45 45 46 49 50 50 48 47 44 41 39 39 38 40 43 43 44 43 42 40 39 38 38 38 37 37 37
56 56 54 53 53 53 53 53 53 52 52 51 51 51 47 39 41 42 43 43 43 47 44 49 49 45 44 41 42 41 38 38 38 38 38 43 42 42 40 38 37 37 37 37 38
55 55 55 54 53 53 53 52 52 53 52 52 50 49 40 45 46 44 43 41 41 40 38 39 38 38 39 42 41 39 38 35 36 37 39 41 39 41 40 37 37 37 37 37 38
56 55 56 54 54 54 54 52 51 52 52 52 49 45 34 42 43 42 43 40 40 39 38 38 36 36 39 38 37 37 33 34 36 36 39 40 38 41 41 38 37 37 37 37 36
54 54 55 55 54 54 53 50 51 52 52 52 47 42 41 37 40 42 42 41 39 39 37 37 36 34 38 36 27 30 31 34 33 38 37 37 38 40 40 38 37 37 37 36 34
54 54 54 55 54 54 51 48 43 43 48 42 40 39 36 40 39 40 42 40 39 37 34 37 35 31 32 36 35 33 32 31 34 36 37 37 37 36 39 40 38 37 36 35 34
52 53 54 54 53 53 49 43 43 42 37 44 44 42 40 41 38 37 40 37 37 34 35 34 31 33 33 33 35 36 34 32 32 33 34 37 37 38 38 37 39 38 36 35 36
52 52 53 54 53 52 47 44 45 44 38 39 42 42 42 42 39 38 38 37 35 34 33 32 29 32 33 32 32 32 33 32 31 33 32 29 31 35 37 39 38 37 37 36 37
52 51 53 54 49 48 44 47 46 46 33 34 37 41 42 42 39 40 39 36 35 33 33 33 33 31 31 31 32 29 33 33 31 29 27 34 27 33 35 36 37 37 36 36 38
52 51 53 50 45 45 44 49 48 46 17 32 37 41 42 39 38 39 40 38 37 34 34 31 33 32 29 29 32 30 30 29 30 27 28 28 28 31 36 35 36 37 35 35 38
53 52 54 50 48 48 49 49 45 29 17 33 36 35 37 38 38 38 39 40 41 37 36 35 36 35 31 30 31 34 32 31 31 30 26 26 27 26 33 34 34 35 34 35 39
53 54 53 48 46 50 48 42 29 22 30 31 33 35 34 34 34 36 36 35 32 28 27 33 33 36 36 32 32 29 30 23 22 22 19 23 26 25 33 35 34 33 33 36 39
52 53 52 46 50 48 43 36 23 23 29 34 32 32 31 31 32 34 34 32 34 33 29 24 21 33 35 32 29 30 29 24 16 18 15 29 28 29 34 32 33 33 34 38 41
51 52 50 50 49 46 38 28 24 26 32 32 32 31 31 32 32 33 32 30 33 34 27 24 24 33 32 33 31 29 28 27 26 25 26 26 31 31 33 32 33 33 37 39 42
48 48 48 49 49 44 35 29 28 36 36 35 27 32 29 30 31 32 29 30 30 33 31 29 24 31 32 34 33 28 29 25 27 18 19 27 26 17 26 30 34 35 37 40 43
47 44 48 49 47 40 30 33 31 38 37 34 32 33 33 32 31 29 28 28 30 31 33 30 31 28 33 30 29 30 28 28 24 25 23 25 27 28 26 30 33 35 38 41 43
45 35 48 49 38 37 33 35 35 35 38 37 37 36 35 35 33 29 28 28 31 31 32 35 32 26 27 33 33 31 29 28 23 19 24 28 24 29 27 33 34 35 39 41 42
43 41 48 46 32 33 37 34 36 36 36 37 36 37 37 34 31 31 29 31 33 33 35 36 30 25 29 31 36 30 31 29 27 28 22 24 24 30 29 33 35 36 39 40 42
42 36 42 43 40 36 34 34 35 38 36 38 37 38 36 34 34 33 31 29 32 34 38 38 32 29 27 32 35 32 32 32 28 27 23 30 32 29 28 31 35 36 39 40 41
43 38 39 34 36 37 36 36 34 34 37 38 35 36 35 33 33 33 33 33 35 36 39 37 31 32 32 33 35 34 35 35 31 30 26 25 31 30 29 30 35 37 39 39 41
41 39 40 37 39 37 37 36 35 36 36 34 33 36 37 35 33 27 30 30 32 36 38 39 31 32 32 38 36 36 36 36 35 35 33 36 29 30 32 32 35 37 38 39 40
45 44 39 38 37 36 37 35 37 38 38 38 37 37 36 37 38 37 37 36 36 36 35 36 34 32 31 35 36 33 34 38 36 39 38 34 31 31 31 31 35 37 38 38 40

GFSSW_sfc_30mbdewp_033.txt.gz
Dewpoint
51 51 51 51 51 52 51 51 52 53 53 55 57 60 61 60 59 57 52 52 53 54 54 48 47 47 44 45 51 47 43 38 36 36 34 35 34 34 34 31 34 35 37 36 44
53 52 51 51 51 52 51 51 52 52 54 53 55 57 59 58 55 53 55 56 56 56 52 47 44 46 41 43 47 49 44 40 40 38 36 36 35 36 35 35 35 36 38 45 50
54 53 52 52 52 51 51 52 51 52 53 53 54 55 56 55 49 47 53 55 56 56 52 51 49 46 41 42 45 48 44 43 44 42 41 39 38 39 37 36 36 36 37 39 47
55 53 52 52 52 51 51 52 51 50 52 53 53 54 55 51 28 46 52 52 54 56 53 51 48 43 40 41 45 40 43 46 46 46 45 44 41 39 37 35 36 38 38 38 38
55 54 53 52 52 52 51 52 52 51 50 53 53 54 50 45 43 45 52 47 53 56 53 51 47 44 40 39 40 40 42 43 44 46 46 46 45 44 42 41 40 39 38 38 38
56 55 54 53 52 53 52 53 53 52 51 50 52 54 47 33 41 44 43 44 45 53 52 51 48 47 44 42 40 39 39 39 39 40 42 42 42 43 42 41 40 39 38 38 38
54 56 55 54 52 53 53 53 53 52 52 51 51 51 46 37 41 42 42 42 42 48 47 51 50 46 45 42 42 41 39 39 38 38 37 40 38 40 43 43 41 39 38 38 38
55 55 56 55 53 53 53 54 53 53 52 52 50 49 38 45 46 44 44 40 41 41 42 43 42 41 38 39 40 39 38 34 35 36 38 38 32 39 42 43 41 40 38 38 38
54 54 55 55 54 54 54 53 51 51 52 52 49 43 35 41 42 42 43 39 40 39 38 38 37 35 36 38 35 36 31 34 34 36 37 38 35 37 40 41 40 39 38 38 38
54 54 53 54 54 54 53 51 50 51 52 52 46 40 41 37 40 42 43 41 39 39 37 37 36 34 34 34 25 27 30 32 32 35 36 35 35 39 39 41 40 40 39 38 38
55 53 52 54 55 54 52 48 43 42 48 42 40 40 37 40 40 41 42 40 38 37 34 36 34 30 30 34 35 34 32 31 33 34 33 34 35 37 39 38 38 39 40 39 37
53 55 52 54 54 53 48 42 41 41 37 44 45 42 41 42 38 38 41 36 36 34 36 34 31 33 33 33 34 35 33 31 33 33 32 31 31 33 31 32 38 38 39 39 38
51 53 54 52 53 52 47 44 46 44 36 37 42 42 42 42 39 38 39 37 35 34 34 31 29 31 32 32 31 31 31 29 30 32 32 31 26 23 27 33 37 39 39 38 38
50 51 55 51 51 50 46 46 45 45 32 33 37 41 43 43 38 41 39 37 35 32 34 33 33 32 31 30 32 28 32 31 31 31 26 30 20 25 26 30 35 37 39 38 37
49 50 55 52 48 46 44 47 47 42 19 32 37 43 42 39 38 39 41 37 35 34 33 31 33 33 31 30 32 29 31 31 32 31 29 26 24 23 26 26 32 37 38 38 37
48 49 54 51 48 47 48 48 45 28 20 32 36 36 38 39 38 38 39 39 41 37 35 32 36 35 32 32 31 33 32 32 34 29 23 24 26 19 19 27 32 36 37 38 37
48 48 52 49 44 49 48 44 30 23 30 30 31 33 32 32 34 36 35 36 33 29 28 32 33 36 36 32 32 29 31 23 22 23 19 22 23 22 22 29 34 35 35 36 37
48 49 51 50 50 49 44 34 23 23 29 33 32 33 30 32 32 34 34 32 35 34 28 24 21 31 35 33 30 29 29 23 16 17 19 22 20 21 26 26 24 26 34 35 38
48 47 49 50 50 48 39 28 23 24 32 31 31 29 28 31 31 33 33 30 30 33 27 24 23 32 34 33 32 31 28 28 24 27 24 23 23 20 24 27 31 34 32 34 39
45 46 45 51 49 44 35 27 27 32 34 31 27 30 26 29 30 32 31 30 30 33 32 27 23 29 32 34 32 29 30 25 27 16 16 19 23 17 18 18 15 26 33 37 41
41 39 48 51 48 39 31 33 30 38 36 33 31 30 31 30 31 30 29 29 31 33 33 29 29 28 33 31 29 30 29 28 23 23 17 17 17 30 25 19 18 30 36 40 42
41 34 49 49 34 36 33 33 34 37 38 36 35 33 33 33 32 30 28 28 31 32 31 31 31 26 25 33 33 31 29 29 21 19 20 26 21 29 30 29 32 36 39 42 43
37 40 48 43 30 31 36 34 35 36 36 34 34 35 36 35 32 32 30 31 31 31 31 35 30 24 26 31 34 31 32 32 28 23 19 16 14 30 25 33 35 39 42 43 43
37 32 41 40 39 34 34 34 33 37 36 37 36 37 36 34 35 33 33 32 31 31 36 37 32 28 24 27 32 29 31 32 29 22 22 21 20 19 23 32 36 40 42 43 42
38 34 37 31 34 34 33 33 32 34 37 37 36 36 34 32 33 32 33 33 34 34 38 36 29 32 32 33 33 32 31 30 28 25 22 23 26 27 26 31 36 40 41 42 42
37 39 40 35 38 37 35 34 33 34 36 35 35 35 36 33 32 30 33 32 29 38 37 38 30 32 30 33 33 31 33 30 30 26 27 32 29 30 32 35 36 39 40 41 41
45 43 40 38 37 36 36 36 35 37 38 37 37 36 36 36 37 37 37 37 36 35 36 35 32 31 29 33 34 29 34 31 32 31 28 31 32 32 32 33 36 38 39 40 41

GFSSW_sfc_30mbdewp_036.txt.gz
Dewpoint
53 52 51 51 51 52 52 52 51 52 53 54 56 59 60 60 59 57 52 53 53 54 54 49 46 47 44 44 51 46 42 38 37 35 34 35 34 35 35 32 34 35 37 37 45
55 53 52 51 51 52 52 52 51 52 53 53 54 57 59 58 56 54 55 57 57 56 53 48 44 46 41 43 47 48 43 40 40 38 36 36 36 36 36 36 36 36 37 45 50
56 55 53 52 51 52 52 51 52 51 52 53 53 55 56 55 46 47 53 57 58 58 52 50 48 45 41 42 45 47 43 43 43 44 44 41 40 40 38 38 37 36 37 42 50
56 56 54 53 52 53 52 51 52 50 52 54 53 54 54 51 33 45 52 52 54 57 53 51 48 41 40 39 43 39 43 45 46 46 46 45 44 43 41 39 37 38 39 38 38
55 55 55 54 52 52 52 51 52 52 50 53 53 54 49 43 41 45 50 47 55 55 52 49 47 43 39 39 39 40 42 42 42 41 43 45 44 45 45 44 44 44 42 40 38
55 54 55 55 53 52 53 51 53 52 51 50 52 53 46 29 40 43 43 42 49 55 53 51 48 46 43 42 40 40 40 40 40 39 39 39 40 42 43 44 43 42 40 41 40
55 54 53 54 54 53 53 52 53 53 52 51 51 50 45 35 42 44 43 42 42 50 51 52 49 45 45 42 42 41 39 39 39 38 38 38 37 38 40 42 43 43 43 41 40
53 55 54 53 54 53 53 52 54 54 52 52 50 49 37 43 46 44 44 40 41 42 43 47 49 47 40 39 38 38 38 35 35 37 37 37 32 35 37 38 41 42 42 42 41
50 54 54 53 53 54 54 53 53 51 52 52 49 42 37 41 39 42 42 37 40 39 39 41 38 36 36 35 31 33 30 33 33 36 36 37 34 38 39 38 39 41 42 41 40
46 51 54 53 53 54 54 52 50 50 51 51 47 41 40 37 39 42 43 40 39 38 37 37 36 34 34 32 24 27 30 31 31 34 34 34 35 36 37 37 37 39 40 40 40
45 50 52 55 52 53 52 47 42 41 45 41 42 39 38 41 41 41 42 39 38 37 34 36 33 31 31 31 31 33 33 31 32 34 33 33 32 33 34 36 38 39 39 40 40
45 47 52 52 53 54 49 42 39 38 37 42 44 43 42 43 38 39 41 36 36 34 35 34 31 32 32 32 33 33 31 29 29 32 32 31 30 31 32 32 35 35 37 39 40
45 46 50 52 55 53 46 43 45 42 34 36 41 42 42 42 39 38 39 37 35 34 34 31 29 32 33 32 31 31 30 29 27 29 30 30 24 19 22 26 30 30 32 37 39
43 44 47 51 51 50 46 46 45 42 28 30 38 40 43 42 36 40 40 37 35 31 33 33 34 32 31 30 31 28 30 31 30 29 24 29 18 20 22 22 23 26 33 37 39
44 44 46 50 49 47 47 46 47 35 14 33 37 43 43 36 38 39 40 37 34 33 33 30 32 32 31 30 31 28 31 30 31 30 29 27 24 20 22 21 24 31 33 36 39
43 44 46 48 51 49 47 47 43 25 18 32 36 37 38 38 38 39 39 39 40 35 35 32 35 33 32 32 32 33 31 31 32 31 23 24 24 19 18 17 20 26 31 36 39
45 45 46 48 46 48 48 44 29 22 29 30 31 34 33 34 35 36 36 36 33 29 29 31 34 35 36 32 32 31 30 22 21 21 17 22 23 21 20 21 24 26 30 36 38
46 45 48 48 50 49 44 35 23 24 28 33 31 31 28 30 31 34 34 32 35 34 29 25 20 32 35 32 27 30 28 20 14 15 17 22 21 19 24 24 24 24 27 32 36
46 45 45 50 50 48 39 28 22 24 31 31 31 27 29 31 31 32 33 30 29 35 29 26 24 29 33 34 31 30 27 28 24 22 21 22 24 24 23 21 23 29 29 26 33
44 42 43 50 51 45 35 28 26 30 32 31 26 29 27 30 30 32 30 30 30 32 33 27 22 26 32 34 33 31 31 26 26 17 15 18 20 17 21 21 20 18 20 31 37
42 36 45 49 49 39 30 31 29 36 33 31 28 29 28 28 30 29 29 30 31 32 33 30 27 27 33 31 27 31 29 30 27 25 16 13 12 23 26 31 32 32 20 29 37
40 33 47 49 35 33 32 33 36 36 37 35 33 32 30 31 29 30 29 28 31 33 31 31 30 25 25 28 32 29 30 29 24 20 22 19 15 27 30 30 34 35 34 39 42
37 38 48 45 29 31 36 34 35 36 36 33 32 34 34 33 30 33 31 32 32 33 31 32 29 23 22 30 31 30 32 32 30 29 21 17 14 18 19 22 34 39 42 42 41
37 32 39 39 39 35 34 32 34 36 36 36 34 35 35 34 36 33 33 34 32 32 34 34 32 27 22 23 30 28 30 32 30 25 22 21 18 17 19 27 31 39 43 43 41
37 33 36 31 32 36 34 32 32 33 36 36 36 34 32 32 32 33 35 33 33 34 34 34 30 32 32 32 32 32 31 31 29 28 24 21 21 22 26 28 31 38 43 43 40
37 36 39 33 37 36 34 33 31 34 34 34 34 32 33 33 34 31 32 32 31 36 36 37 31 33 30 33 34 31 32 32 32 31 29 25 23 25 31 34 34 37 42 42 40
43 43 37 35 36 34 34 34 33 34 37 35 35 35 35 36 39 39 37 36 36 35 36 36 32 30 27 33 32 30 32 33 33 31 29 26 26 26 30 33 36 37 41 42 41

GFSSW_sfc_30mbdewp_039.txt.gz
Dewpoint
57 55 54 52 51 51 52 52 52 52 52 53 54 57 59 59 59 57 52 53 54 56 54 50 46 46 45 44 50 46 42 37 35 34 33 36 34 35 35 34 36 35 36 39 49
55 56 55 53 52 51 52 52 52 51 52 53 53 55 57 58 56 55 56 56 58 57 53 48 44 45 41 43 48 47 43 39 41 38 36 37 37 36 36 37 37 37 37 45 51
55 55 56 54 53 52 52 52 51 51 52 53 53 54 55 54 47 47 53 56 57 58 52 49 47 44 40 42 44 47 41 42 43 44 46 44 43 41 38 38 38 37 38 39 48
54 56 55 56 54 52 52 52 52 52 50 53 53 54 54 50 36 46 53 51 54 58 52 50 46 41 39 38 42 40 43 45 45 45 44 44 45 45 42 41 40 38 40 41 41
52 55 56 55 55 53 52 52 51 52 51 52 53 54 49 41 45 45 49 45 55 55 52 50 46 41 38 39 39 41 41 42 43 40 40 44 43 44 44 46 45 45 45 44 43
48 52 54 56 54 54 53 53 51 52 52 51 52 52 44 28 38 43 43 42 52 54 52 49 46 45 42 41 39 39 40 40 40 40 39 39 40 42 41 44 45 45 45 44 42
46 47 52 54 55 54 53 53 52 53 52 51 51 50 44 35 42 45 43 41 43 53 51 51 49 45 44 42 43 41 39 39 39 39 38 38 36 37 39 40 41 43 43 44 44
45 45 49 52 55 54 54 53 52 53 53 52 51 48 37 43 46 44 43 40 41 46 48 52 51 47 43 40 36 36 35 33 35 37 38 36 28 34 35 37 38 39 40 41 41
43 44 46 51 52 54 54 54 53 52 52 52 48 41 38 42 39 42 42 38 40 41 40 48 41 37 37 35 32 32 26 32 33 36 36 37 34 36 40 38 38 39 40 42 42
44 45 45 50 51 55 53 53 51 50 51 51 48 41 41 37 39 42 43 40 39 38 37 37 37 34 34 32 24 26 29 31 32 31 34 32 33 34 35 35 35 36 38 39 40
43 45 46 48 52 55 53 48 42 41 46 39 40 38 39 41 42 41 41 39 38 37 36 36 33 31 32 32 31 32 32 30 30 32 31 30 31 32 33 33 34 34 34 36 39
43 46 45 46 52 52 50 43 40 37 35 41 43 42 42 43 38 40 41 36 36 34 35 34 31 32 32 32 32 31 30 28 29 30 31 30 29 29 30 30 29 29 31 34 35
42 45 45 45 49 49 47 43 43 40 29 36 40 42 42 42 39 38 39 37 35 34 34 30 29 32 32 31 30 31 30 28 27 29 30 28 24 19 20 24 26 29 30 31 33
42 44 45 44 45 45 46 46 44 42 25 28 37 39 42 41 37 41 40 36 35 32 34 33 34 32 32 31 32 28 30 30 30 29 23 27 18 19 19 19 19 21 25 29 31
42 43 43 43 44 44 47 47 46 37 13 31 38 43 43 37 35 39 40 37 33 33 33 29 32 33 31 30 32 28 30 29 30 29 28 26 25 21 22 21 21 22 24 26 29
42 42 43 44 45 46 50 49 41 26 14 32 37 38 38 36 38 39 38 39 40 34 35 32 34 32 31 32 32 32 31 30 32 31 22 23 25 18 18 18 19 20 21 29 33
44 43 44 45 41 47 50 44 28 21 28 30 31 36 35 34 36 36 37 35 32 29 28 33 34 36 35 32 33 31 31 21 18 20 16 20 24 20 20 21 21 21 23 26 31
44 45 45 45 46 50 47 34 23 24 27 31 31 33 30 32 32 34 33 32 36 34 29 25 21 31 35 32 26 30 28 20 12 14 16 22 20 19 23 24 24 25 25 24 29
46 45 45 46 47 49 38 28 24 24 31 30 30 28 28 29 30 30 33 31 32 35 28 26 24 29 34 34 31 29 27 28 22 21 20 17 19 20 20 20 24 24 25 28 28
44 41 41 45 48 46 34 30 25 31 33 31 27 28 26 27 30 30 30 30 30 35 33 29 24 25 31 34 33 31 30 25 26 16 15 17 18 16 18 17 21 31 33 33 27
42 36 41 46 47 37 30 31 31 34 32 29 29 29 28 30 30 30 28 30 31 31 34 31 26 25 31 29 26 30 28 30 29 27 18 14 13 17 16 20 32 33 35 37 29
40 32 44 48 33 32 32 33 37 36 36 34 33 31 29 31 29 28 28 29 31 33 31 32 30 24 23 28 30 28 27 28 24 22 25 22 18 19 27 33 32 33 38 41 40
35 35 47 41 29 31 35 35 37 35 34 32 32 34 34 31 29 30 31 32 33 32 31 31 29 22 20 28 31 30 30 28 31 29 24 20 16 19 21 24 30 33 41 41 40
37 30 36 38 37 31 33 33 34 37 35 34 34 34 33 33 34 31 32 33 33 33 34 32 31 25 21 19 24 29 31 32 30 25 22 24 21 21 20 21 28 31 42 41 39
37 32 36 30 33 33 35 33 33 33 36 35 34 32 32 31 31 32 32 33 33 33 33 34 29 30 29 30 31 32 31 32 29 28 25 22 24 25 24 28 28 32 41 41 39
36 34 38 34 36 35 35 32 31 34 34 34 32 34 34 32 31 32 33 33 31 35 33 37 30 33 30 32 32 32 34 33 33 31 30 29 27 30 26 33 34 35 40 41 39
40 42 38 36 35 34 34 33 32 34 35 34 34 33 33 34 35 36 37 37 36 36 35 35 33 30 27 31 32 30 34 33 33 33 31 28 29 30 29 30 33 37 39 42 39

GFSSW_sfc_30mbdewp_042.txt.gz
Dewpoint
56 56 56 55 53 52 51 52 53 53 52 53 53 55 59 59 60 58 53 51 53 55 54 50 45 44 44 42 49 47 32 26 27 27 27 34 31 32 34 32 35 34 35 40 46
54 55 56 56 54 53 52 52 53 52 52 52 53 54 56 56 57 55 55 56 57 56 51 47 44 42 39 41 44 40 34 29 31 33 32 33 34 33 35 34 33 35 37 42 47
51 54 55 56 56 54 52 52 52 52 51 52 53 53 55 54 48 48 56 58 58 58 54 49 45 42 39 40 42 40 36 34 39 38 42 40 40 39 35 33 35 34 36 40 43
47 50 53 54 56 55 53 53 52 52 51 52 54 53 54 50 32 50 53 52 55 57 52 50 46 41 38 37 39 38 39 39 40 43 43 42 41 41 38 34 37 40 40 41 41
44 47 50 51 54 55 54 53 52 52 52 51 53 53 48 40 41 45 48 45 53 55 52 49 45 42 39 38 39 37 36 38 38 41 39 38 38 39 39 40 42 43 43 43 42
44 44 47 49 52 55 55 53 52 52 52 51 51 53 42 29 39 43 42 43 53 51 51 50 46 44 41 39 38 37 38 38 38 38 37 37 36 36 35 36 36 37 39 40 41
41 44 45 46 49 53 55 54 53 52 53 52 51 48 42 35 39 43 42 42 47 51 48 49 46 44 43 40 42 40 37 35 35 35 36 37 33 33 34 34 34 35 35 36 37
41 43 45 45 48 51 54 54 53 52 53 52 52 46 38 43 44 42 41 41 48 50 51 50 48 44 40 40 36 34 34 29 32 35 34 35 25 27 32 34 34 34 34 34 36
40 43 45 46 47 49 52 55 54 53 53 53 48 44 39 42 40 40 40 37 42 43 46 50 46 39 38 33 30 30 24 28 29 34 34 34 30 31 38 35 34 33 35 36 37
40 43 44 46 47 49 51 56 54 52 50 50 47 41 41 38 38 41 41 39 38 41 41 40 36 33 32 31 22 23 26 26 26 29 31 30 29 31 33 33 32 33 35 36 37
40 43 43 45 46 47 50 53 44 42 43 36 36 37 38 40 42 40 40 39 38 37 33 36 33 30 29 31 30 29 28 28 27 29 28 25 24 25 26 26 27 28 29 30 32
41 43 42 45 45 46 50 45 41 40 37 39 42 39 42 41 37 39 40 36 36 33 35 34 31 31 31 31 31 30 28 26 26 27 27 25 24 24 25 25 26 25 24 23 24
42 43 43 44 44 44 45 44 44 40 32 37 39 40 41 41 37 38 37 36 33 34 33 30 29 31 32 31 30 29 27 26 25 26 27 26 23 21 20 21 22 23 24 24 24
41 43 42 43 41 43 41 48 49 40 34 32 35 36 41 40 36 39 37 35 34 31 33 31 31 31 30 29 29 26 28 29 28 26 23 27 19 19 20 20 21 21 21 23 25
40 43 43 43 41 39 46 50 49 41 23 32 37 41 39 34 36 39 39 36 32 31 32 30 32 32 30 29 30 27 29 28 28 27 26 25 25 16 17 18 18 20 20 21 23
43 44 43 43 42 41 46 50 44 29 21 32 38 37 37 34 35 39 38 38 35 33 33 30 33 32 30 31 31 31 30 29 28 29 22 19 23 13 8 9 14 18 19 20 21
42 44 44 43 39 42 45 43 28 26 29 30 31 37 33 32 36 35 36 35 32 29 29 31 31 33 33 30 32 31 30 21 20 21 16 17 18 18 14 19 20 19 18 21 23
44 46 46 43 44 44 43 32 24 26 27 31 32 34 32 31 34 34 34 32 32 31 28 25 24 31 34 31 28 31 26 19 13 12 7 19 16 13 17 22 22 21 19 25 27
45 43 42 44 45 45 39 27 28 25 29 28 31 29 30 32 32 31 32 30 32 33 28 26 25 29 33 33 30 27 27 27 23 21 18 13 13 15 15 16 17 19 26 29 29
44 42 41 45 46 43 34 28 30 31 30 29 26 27 25 29 28 28 29 29 29 32 31 29 26 26 30 34 33 29 28 24 26 16 13 14 14 14 15 16 18 20 27 28 32
42 37 40 45 45 35 29 31 32 32 31 29 28 28 27 27 28 28 28 30 30 32 33 30 27 26 30 29 26 29 29 28 26 25 17 16 15 17 15 15 16 28 28 31 36
40 31 41 44 34 33 32 34 34 33 36 33 31 29 28 29 28 28 27 28 31 33 31 30 29 24 25 27 27 25 26 26 24 23 25 23 20 21 20 21 29 28 26 31 39
36 33 45 43 30 31 35 36 36 34 33 32 32 32 32 29 28 28 29 31 32 31 30 31 29 24 23 29 28 28 28 27 31 29 24 22 20 21 23 27 27 25 26 30 39
36 30 37 39 38 34 33 34 34 37 35 35 34 33 31 30 32 31 31 32 33 31 33 32 31 26 21 19 24 28 31 32 31 25 23 25 24 23 20 23 23 23 27 35 40
35 32 37 31 34 33 33 33 32 32 36 35 33 31 31 30 30 31 32 32 34 33 33 32 29 29 29 28 28 29 30 32 30 30 26 24 24 24 25 25 25 26 30 38 41
33 32 37 34 34 33 34 32 30 34 33 33 30 32 31 29 29 30 31 31 32 33 34 35 29 31 29 29 30 31 33 35 35 35 32 32 30 30 30 29 28 32 35 39 41
40 41 37 35 34 33 33 32 32 32 34 34 33 33 32 32 33 32 36 36 36 35 33 33 31 30 26 28 30 31 34 35 36 35 33 30 30 30 30 33 31 34 36 37 40

GFSSW_sfc_30mbdewp_045.txt.gz
Dewpoint
51 54 55 55 56 55 53 52 52 53 53 52 53 53 55 58 59 57 53 52 51 56 55 47 45 43 42 41 40 44 34 27 26 21 21 26 28 30 30 29 29 29 31 40 45
48 50 52 54 55 56 54 53 52 53 53 52 52 53 54 56 55 54 54 55 56 56 51 46 42 41 39 40 41 40 31 27 23 22 24 28 30 29 31 30 28 31 33 39 44
44 46 48 52 53 55 56 54 53 53 52 51 53 53 53 54 49 50 57 57 57 57 51 47 44 41 37 37 39 39 33 29 29 36 35 33 31 34 32 32 29 29 32 38 42
42 44 46 48 51 53 56 55 53 53 52 51 53 53 53 51 36 49 54 58 58 57 54 48 44 40 38 36 36 35 35 33 34 37 40 39 37 34 33 34 32 33 38 39 39
39 41 43 46 48 50 53 56 54 53 53 51 53 53 48 44 41 50 50 47 51 53 53 48 44 41 38 36 36 36 36 34 35 37 38 39 37 36 36 37 37 36 38 40 41
40 39 42 44 45 46 50 54 55 53 53 52 51 53 44 33 37 43 44 45 47 49 50 49 46 44 40 38 36 35 36 35 35 35 36 36 35 34 33 34 34 35 36 37 40
39 40 41 44 46 45 49 52 56 54 53 52 50 48 42 36 36 38 42 43 49 46 49 50 47 44 41 39 40 38 36 34 33 34 34 35 33 32 33 33 32 32 32 32 34
38 37 41 43 45 46 48 49 53 55 53 52 51 44 39 42 40 40 40 42 50 49 46 47 47 43 39 39 35 34 33 28 29 31 31 32 27 26 30 30 31 31 31 31 32
40 38 41 42 45 46 48 48 51 56 53 52 48 44 38 43 39 38 37 38 45 47 49 48 46 41 38 33 28 29 25 26 25 30 31 32 29 28 32 33 30 30 30 30 31
41 39 40 43 44 46 47 48 50 55 52 51 46 41 39 37 39 38 39 37 40 40 42 41 38 34 33 30 23 23 25 24 23 27 29 28 27 28 30 30 31 32 32 32 31
41 40 42 43 44 45 45 46 47 45 48 40 40 35 38 38 39 39 38 36 38 37 33 35 31 29 28 28 27 28 26 25 25 26 26 25 24 24 24 24 25 26 27 27 29
40 40 42 43 44 45 45 40 42 45 39 39 38 39 39 38 37 37 38 35 34 33 33 34 32 30 30 29 29 29 27 25 25 25 26 24 23 24 24 24 24 24 24 25 25
40 41 42 44 44 42 41 40 46 46 38 38 39 36 40 40 35 36 37 34 32 31 31 31 30 31 30 30 29 28 26 25 24 25 25 25 23 21 22 24 25 25 25 25 25
40 40 42 44 40 40 38 44 47 49 32 34 37 37 40 38 36 38 37 34 33 30 32 31 30 29 29 29 28 25 26 26 26 26 23 26 21 21 19 19 20 21 21 22 23
39 41 44 44 40 37 38 47 46 44 23 34 35 37 39 34 35 37 36 35 30 29 31 30 31 30 28 27 28 27 28 27 27 26 26 25 23 19 15 12 14 17 19 19 20
39 40 42 43 42 39 41 45 43 27 23 32 37 34 35 32 35 37 35 36 33 29 31 29 31 31 30 30 29 31 29 28 27 27 24 22 21 16 8 8 11 11 16 19 19
41 44 43 43 39 40 42 42 26 22 31 31 32 35 33 31 33 35 34 34 30 29 28 29 29 31 30 29 30 31 28 23 23 22 17 14 14 16 13 14 15 15 17 16 18
42 46 46 44 45 43 41 32 22 30 28 29 33 33 31 31 33 31 31 31 31 28 27 25 26 29 33 30 29 29 28 21 16 13 12 15 14 12 13 18 19 19 20 19 19
45 45 43 43 43 44 35 25 28 30 29 31 32 31 30 30 33 32 30 30 29 30 28 25 26 29 32 32 30 29 28 27 23 21 18 13 10 12 14 15 16 17 19 21 23
43 41 40 43 44 42 32 26 32 31 29 31 27 28 28 29 29 27 31 30 29 29 30 28 27 27 30 32 31 28 27 24 26 17 13 11 13 14 16 17 18 18 19 22 26
43 36 42 44 44 36 28 31 34 30 30 28 27 25 26 27 27 27 28 29 30 30 31 29 27 27 29 29 27 28 27 26 23 23 16 15 15 17 18 18 17 19 19 25 27
40 31 44 42 32 33 31 35 36 32 35 31 28 27 26 27 27 27 26 28 30 30 29 30 29 26 26 27 27 26 26 26 24 20 24 23 21 22 22 21 21 21 24 26 25
37 34 43 42 30 31 35 36 37 32 32 31 31 29 28 27 26 27 28 30 30 30 29 30 28 24 27 27 26 25 26 25 28 29 25 23 21 21 21 23 23 24 25 24 25
36 32 37 38 38 34 34 34 35 36 34 33 32 30 29 29 30 28 29 32 32 30 32 30 29 27 23 24 26 29 29 29 31 26 24 25 24 24 25 26 27 23 24 26 26
35 33 36 31 34 36 34 36 32 31 34 33 31 30 29 28 29 29 29 33 34 33 32 31 29 28 29 27 27 28 29 30 32 31 27 26 28 30 32 32 30 29 27 26 34
34 33 36 33 33 35 32 35 33 33 32 30 29 30 29 28 26 28 30 30 31 33 32 34 28 29 28 29 28 28 29 30 33 36 35 35 33 35 33 30 32 30 28 35 36
40 40 38 35 31 30 29 28 29 32 33 32 31 31 30 31 31 32 32 33 36 33 33 34 32 30 24 27 26 30 33 34 37 38 36 31 31 31 31 35 38 38 39 38 40

GFSSW_sfc_30mbdewp_048.txt.gz
Dewpoint
45 47 49 51 53 54 56 55 54 53 53 53 52 53 53 55 57 57 51 53 54 54 54 52 46 44 43 41 40 39 35 32 31 28 26 24 25 29 29 29 28 29 30 41 50
41 43 45 48 50 53 53 56 55 53 53 53 52 52 53 54 53 52 52 54 55 56 49 46 43 42 41 41 39 40 38 37 33 28 28 30 27 28 29 28 28 30 31 42 44
41 40 41 44 47 51 52 53 56 54 53 53 51 53 53 53 49 47 54 54 57 56 53 48 44 40 39 39 39 39 38 34 30 29 36 36 34 31 31 30 32 29 30 37 42
41 41 40 41 44 47 49 51 53 56 54 53 51 53 53 49 36 51 55 55 58 57 53 50 45 40 38 36 36 36 37 36 36 35 37 38 37 37 33 33 34 34 34 38 39
41 40 40 40 41 43 46 48 51 55 54 53 51 53 48 44 43 54 53 52 57 56 53 51 43 41 38 37 35 34 34 35 35 35 35 38 38 38 38 37 36 36 36 38 39
42 41 40 39 42 44 46 46 49 52 56 53 52 53 45 34 38 47 46 44 48 52 53 51 46 44 43 39 37 35 35 36 36 34 35 34 35 36 35 35 35 36 36 37 38
43 42 41 40 41 42 45 46 49 50 54 54 52 49 42 38 36 37 42 41 46 46 50 51 48 45 43 39 39 38 36 37 36 35 35 35 33 34 35 35 34 33 33 34 35
42 42 42 40 41 41 44 46 47 49 50 55 52 45 40 42 42 39 38 40 45 46 48 50 49 45 44 39 37 37 36 33 31 33 33 33 30 31 33 33 33 33 32 32 33
41 42 42 41 41 42 44 45 46 48 50 55 50 45 38 44 40 39 37 38 44 45 48 49 47 42 39 36 33 32 27 29 29 31 30 30 29 31 31 31 32 31 31 31 31
41 43 42 41 42 44 44 45 46 46 50 54 48 43 40 38 39 39 37 38 42 47 47 46 43 38 36 34 26 25 27 26 24 29 30 29 29 29 29 28 30 33 32 31 31
42 42 42 42 43 43 44 43 40 44 47 42 43 37 38 39 39 38 37 36 39 42 37 41 36 33 32 33 30 28 27 26 25 26 25 25 25 25 26 26 25 27 28 29 31
42 42 42 42 43 43 44 39 38 43 36 45 44 38 38 39 37 38 38 36 36 34 34 33 31 31 29 29 29 27 27 27 26 25 25 24 24 25 25 24 24 24 24 25 27
41 41 41 43 44 42 40 38 45 42 33 39 44 38 37 37 35 37 37 35 34 33 33 31 30 31 31 29 29 28 27 26 25 26 26 25 23 23 24 25 26 26 25 25 25
41 41 41 44 41 39 37 44 47 44 29 34 39 38 39 38 34 38 38 35 32 31 29 30 31 28 29 29 29 26 27 26 26 25 23 26 22 22 20 20 22 23 25 26 26
40 41 41 43 41 38 38 45 45 40 18 37 39 40 39 34 36 36 38 34 31 30 31 30 30 30 28 28 29 26 29 27 27 26 25 25 23 23 20 17 15 18 21 22 23
39 40 42 42 42 41 43 43 41 26 18 32 37 36 36 35 34 36 36 36 34 29 30 30 31 31 30 29 28 30 28 28 28 27 23 24 22 20 16 14 13 13 17 19 20
40 42 44 45 38 41 41 39 25 21 33 31 33 35 32 33 34 34 34 33 30 28 29 29 30 30 31 29 30 30 26 24 24 22 17 18 22 20 17 16 17 16 16 18 17
43 44 44 44 46 42 41 32 20 28 31 34 33 34 29 32 33 33 33 31 31 28 28 25 25 30 30 29 29 29 28 23 18 18 19 21 15 14 16 16 18 19 19 20 20
44 43 43 43 46 43 35 24 22 31 33 34 33 32 29 31 32 32 32 28 29 30 26 26 27 30 31 31 30 29 27 28 24 21 18 16 12 12 12 12 14 17 19 20 21
43 42 41 44 45 41 32 24 29 34 34 33 29 30 28 29 30 29 30 30 28 31 30 28 26 28 31 31 30 28 28 24 25 16 15 15 13 13 16 18 19 18 18 20 22
43 36 43 45 43 36 26 30 32 37 34 30 27 27 26 29 28 27 28 29 28 29 30 28 27 26 30 29 28 29 28 26 25 23 18 16 16 19 20 22 22 22 22 22 26
38 31 44 44 32 33 31 32 37 37 34 29 27 27 27 27 27 25 27 28 30 30 28 29 29 27 26 28 30 29 27 27 22 19 23 25 21 23 23 23 24 25 25 25 27
36 35 42 42 28 28 34 36 36 37 33 31 28 27 27 27 26 27 28 29 30 30 30 30 28 23 24 27 26 25 26 27 27 27 23 22 20 21 23 26 28 28 28 26 26
37 31 37 38 38 32 32 33 34 37 34 32 29 28 27 28 28 28 29 30 31 31 31 30 29 27 26 26 29 26 27 26 27 26 23 24 24 26 27 31 34 34 34 31 30
37 33 36 32 34 33 36 35 33 31 34 32 31 28 27 26 27 27 31 32 32 34 30 31 28 29 29 29 27 27 28 30 29 29 26 25 27 31 36 35 35 36 38 37 32
35 32 35 36 37 34 35 35 33 32 33 29 30 29 28 28 28 27 29 30 31 33 32 32 28 30 27 28 28 28 29 29 30 31 34 35 35 38 36 32 34 36 38 39 38
39 40 37 35 35 34 34 34 33 33 33 31 30 30 30 32 32 32 33 31 33 32 31 34 31 30 24 27 27 26 29 30 35 37 37 33 35 36 36 35 38 39 40 40 39

GFSSW_sfc_30mbdewp_051.txt.gz
Dewpoint
42 43 42 43 44 49 52 53 54 56 54 53 54 53 53 53 55 55 52 52 55 57 54 52 50 47 45 42 42 40 36 35 35 34 31 30 30 29 29 28 29 30 39 51 55
42 42 42 42 41 43 47 52 52 55 55 54 54 53 52 53 52 51 53 54 56 56 54 47 48 45 43 41 41 38 36 36 36 34 32 32 35 33 29 28 28 29 42 47 54
43 42 42 41 41 41 43 45 50 51 55 54 54 52 53 53 49 47 52 54 55 57 50 48 47 43 41 41 40 38 36 39 38 37 35 37 35 37 32 30 29 28 32 42 50
44 43 43 43 41 41 41 45 45 49 52 56 54 52 53 50 34 52 57 54 56 57 54 51 49 45 39 38 39 38 38 37 37 38 37 37 39 38 38 34 37 35 35 38 42
44 45 44 43 42 41 42 42 45 47 50 53 54 52 52 45 45 54 57 56 55 55 53 51 49 44 38 39 38 35 36 37 37 36 35 36 37 38 38 39 39 38 37 36 39
46 46 44 43 43 42 41 42 43 46 49 52 55 53 48 38 41 53 52 54 55 54 52 52 47 44 42 41 39 38 36 36 37 37 36 35 34 35 36 37 36 35 35 36 37
45 45 44 43 44 42 42 41 43 45 47 51 54 51 45 38 37 48 46 44 48 52 52 52 51 45 43 40 39 39 36 37 37 37 36 35 33 34 36 37 36 36 35 34 34
44 43 43 44 43 42 42 43 43 44 46 50 51 48 40 43 42 39 38 41 45 47 49 53 52 46 44 39 37 36 37 34 35 34 36 35 30 33 35 35 35 35 35 35 34
43 43 43 43 43 42 42 43 44 45 46 47 50 46 37 44 42 40 38 39 44 46 49 50 49 44 42 37 35 33 29 31 33 32 33 34 31 33 33 32 32 33 34 34 34
42 42 43 43 43 43 43 43 44 44 45 46 50 41 43 40 41 39 37 39 44 46 46 46 44 39 37 36 30 28 30 28 27 30 30 30 30 31 32 30 29 30 33 33 33
42 42 42 43 43 43 44 42 35 38 42 40 42 40 39 41 40 39 37 37 45 45 41 43 39 35 35 35 33 31 28 27 28 28 25 26 28 27 27 27 26 27 27 29 31
42 42 42 42 42 43 44 38 36 40 34 39 44 41 40 39 37 38 37 37 41 40 37 38 35 36 35 35 34 32 28 27 28 27 26 25 25 26 26 26 26 26 26 27 28
41 42 42 42 43 43 40 40 43 41 34 36 37 42 39 39 37 37 36 37 36 36 34 33 30 32 32 31 29 29 28 28 26 27 26 25 21 23 25 26 26 26 26 25 25
42 41 41 43 41 41 38 45 44 43 29 33 36 41 40 38 37 38 37 36 35 33 33 31 32 30 31 30 29 27 28 28 27 26 22 26 19 23 20 18 21 24 26 26 26
40 39 41 43 41 39 40 45 44 40 16 35 37 46 38 37 37 37 38 35 32 33 32 30 30 28 28 30 30 28 29 28 27 26 25 24 20 19 24 19 18 16 18 25 26
40 41 42 43 43 41 43 45 41 21 13 33 39 38 36 35 36 37 36 35 34 31 30 31 32 31 30 29 30 30 28 28 28 26 21 22 21 16 18 17 15 17 17 21 23
41 42 44 44 39 42 43 39 24 17 31 30 32 35 35 34 34 35 34 32 29 29 30 30 30 30 31 29 30 29 26 22 21 21 15 23 23 20 22 20 19 18 17 19 18
44 45 44 44 45 42 40 31 18 24 26 37 37 34 34 32 33 34 32 30 32 29 28 25 22 30 30 30 28 29 26 21 15 20 20 22 20 18 18 20 18 19 18 19 20
45 43 43 44 46 42 35 23 20 28 33 33 34 32 32 33 33 33 31 30 30 30 26 25 25 31 30 30 30 29 26 28 23 22 19 18 16 14 16 18 17 18 19 20 21
44 41 41 46 45 39 29 26 29 33 33 36 30 31 29 31 30 30 30 30 28 30 31 29 26 30 31 31 31 28 29 24 23 10 10 16 15 13 18 21 22 22 24 24 25
41 36 43 44 41 35 26 29 32 33 38 35 31 29 28 30 29 29 28 30 29 29 31 28 27 30 31 29 28 29 28 26 24 22 17 16 15 19 20 22 23 25 27 27 26
38 31 41 44 29 32 30 33 34 35 39 36 31 28 27 30 28 27 27 29 30 30 28 29 29 25 27 29 30 30 28 26 20 16 23 23 21 23 22 24 27 27 33 33 34
36 36 41 40 28 27 34 33 34 37 36 31 28 28 29 28 26 27 28 30 30 29 29 30 27 22 25 27 30 28 29 28 26 26 21 20 19 22 23 25 27 34 36 36 36
36 30 35 37 37 34 33 32 33 38 37 32 28 28 28 28 31 30 29 31 31 32 33 30 28 24 21 25 28 25 26 27 27 25 22 22 22 24 25 27 33 37 36 36 37
37 33 35 31 33 36 36 35 34 33 34 32 28 29 30 28 30 30 31 32 33 32 32 30 27 28 28 29 29 28 27 27 25 26 25 23 24 26 30 35 38 39 37 37 39
35 33 36 34 37 35 35 34 35 33 33 30 28 30 30 30 29 29 31 31 31 32 30 32 26 29 26 27 29 28 28 28 29 28 27 27 29 35 37 38 37 40 40 40 41
40 40 37 35 36 34 34 35 35 34 32 31 31 33 33 33 33 33 32 32 33 31 30 31 28 28 23 26 27 26 28 29 29 31 31 32 35 39 39 39 39 40 40 39 39

GFSSW_sfc_30mbdewp_054.txt.gz
Dewpoint
44 43 43 42 42 42 42 43 48 52 53 56 54 54 54 53 54 53 50 52 53 57 54 52 50 47 47 44 42 40 36 34 32 31 30 31 32 31 30 28 28 31 42 49 55
44 43 43 43 43 42 42 41 42 45 49 52 57 54 53 53 52 49 52 54 54 54 57 49 50 47 44 42 41 39 36 36 37 36 34 33 35 34 31 28 28 38 48 55 56
45 45 45 45 43 43 43 40 42 45 46 49 53 55 53 53 47 45 49 53 55 55 55 53 48 45 42 42 40 39 37 37 38 39 38 37 37 38 34 29 30 34 49 51 55
44 46 46 46 45 43 43 42 40 40 46 47 51 56 52 51 28 49 57 52 55 58 54 50 48 46 40 40 40 38 38 37 37 38 38 36 38 38 38 35 38 39 37 37 48
47 47 46 46 45 44 43 43 42 41 40 46 50 54 52 44 42 46 56 55 55 56 53 50 47 46 40 39 39 37 37 37 38 38 37 36 37 38 38 39 39 38 37 37 37
45 45 45 45 45 44 44 42 42 41 41 44 48 53 48 37 42 43 54 55 54 55 53 52 49 48 41 39 38 38 36 36 37 37 37 36 35 35 36 38 37 37 36 36 36
43 44 44 44 44 44 43 43 41 42 42 44 47 51 46 39 40 51 52 53 55 54 51 53 50 45 43 40 40 39 37 37 37 37 36 36 34 34 36 36 36 35 36 36 35
44 44 43 43 43 43 43 43 42 43 43 45 46 48 42 44 43 41 42 43 47 52 53 53 53 47 43 40 37 37 36 33 35 35 35 35 31 34 35 35 35 35 35 35 35
44 44 43 43 43 43 43 43 43 43 43 44 44 45 40 42 43 41 39 40 43 46 51 54 51 47 45 37 35 33 30 31 32 34 34 34 32 32 34 34 32 33 33 33 34
42 42 43 43 43 42 43 44 44 43 43 44 43 41 44 40 41 42 40 39 43 46 47 49 48 41 42 36 31 31 30 30 29 28 32 31 33 33 32 32 32 32 31 31 33
42 42 42 42 42 43 43 43 33 36 38 35 36 39 40 42 41 40 38 37 45 45 42 45 39 36 37 37 32 31 30 28 28 29 26 25 25 27 29 29 28 28 28 28 29
42 42 42 42 43 43 44 38 36 37 32 36 38 41 44 41 38 39 37 36 43 39 42 40 36 37 37 36 35 34 32 30 29 28 26 26 25 26 26 26 26 26 26 27 27
42 42 40 41 43 43 38 39 44 43 33 32 36 39 42 39 38 38 36 39 41 38 38 36 36 36 33 32 33 32 29 28 27 27 27 25 20 20 23 25 26 26 27 27 27
41 41 40 41 40 41 36 43 45 44 27 29 34 36 45 39 36 38 36 38 37 36 36 33 32 32 32 31 30 27 28 28 27 26 21 26 15 21 21 22 22 23 25 26 27
41 41 41 42 41 37 40 44 44 40 13 32 34 41 44 36 37 36 38 35 34 34 33 32 31 30 30 30 30 28 28 27 27 26 24 24 22 17 22 18 19 17 17 19 26
40 41 43 43 43 42 43 43 42 22 13 31 36 36 37 37 35 36 36 36 35 32 32 30 32 30 29 30 30 30 28 28 28 25 18 21 22 14 17 17 15 17 19 19 22
41 44 45 45 40 43 43 39 23 16 29 29 31 37 35 34 34 36 35 31 31 30 30 30 30 30 31 29 30 28 24 20 18 19 11 23 23 19 21 21 22 21 20 19 21
45 46 44 43 45 43 40 30 17 26 26 31 36 36 34 33 34 35 32 30 31 30 29 27 25 29 30 29 28 27 24 18 9 16 20 22 19 16 21 20 18 19 22 24 25
46 43 42 46 45 41 35 21 22 27 31 32 36 32 32 33 34 33 31 29 30 30 25 25 24 31 30 31 29 29 25 27 23 20 19 19 18 15 21 21 22 25 26 27 28
43 40 41 45 42 38 28 25 30 34 32 36 30 32 28 32 32 30 28 30 29 31 31 27 25 30 31 30 31 27 29 24 22 9 6 14 16 11 18 21 22 26 27 30 34
39 36 41 44 41 34 26 29 31 34 34 35 32 29 30 29 30 29 28 30 29 29 31 29 26 32 31 28 27 29 27 26 23 20 14 13 10 19 19 23 25 27 29 34 36
38 31 40 44 28 31 29 32 34 33 39 38 30 31 30 29 28 27 27 29 30 30 28 30 28 26 29 30 31 30 28 25 20 16 22 22 16 24 24 24 26 27 32 36 37
35 36 40 39 28 29 32 33 33 35 37 34 28 28 30 28 26 28 28 30 30 29 29 29 25 22 24 26 30 28 29 28 24 25 21 18 16 23 24 25 27 30 36 38 37
34 29 33 36 37 33 31 32 34 37 37 32 29 29 28 29 30 29 29 33 31 30 32 30 27 22 19 22 27 26 28 29 27 24 22 21 20 22 24 26 30 35 38 39 38
36 33 35 30 32 35 35 36 33 32 31 31 29 29 30 31 29 30 31 31 32 34 32 29 26 28 28 28 29 27 26 27 27 26 23 22 23 24 25 27 34 40 40 41 41
35 34 36 35 37 35 36 35 34 32 33 32 34 32 32 31 30 30 31 31 30 31 31 31 25 28 26 27 28 28 29 28 27 27 26 26 26 27 29 39 40 40 39 39 37
40 39 37 33 34 35 34 35 35 35 35 35 34 34 33 34 33 33 32 32 32 30 31 30 28 27 22 26 26 25 27 28 28 29 28 26 28 32 38 39 39 34 34 34 31

GFSSW_sfc_30mbdewp_057.txt.gz
Dewpoint
45 44 42 45 44 43 44 42 41 41 44 46 49 53 55 54 54 53 48 48 52 54 58 55 55 52 47 44 42 40 36 34 32 33 32 32 32 33 32 29 29 30 41 48 56
45 45 46 45 46 46 44 41 42 40 43 45 48 50 56 55 52 49 50 49 53 53 54 50 48 47 45 43 41 38 35 35 36 34 33 33 35 36 34 32 28 37 49 55 58
47 47 48 48 46 46 45 44 43 40 40 40 45 49 52 54 46 40 44 50 51 55 55 53 50 46 43 42 41 39 35 36 38 38 38 37 37 38 36 32 31 35 40 49 56
44 47 47 47 46 46 46 45 44 43 41 41 41 47 51 51 33 43 54 54 50 55 52 53 49 45 42 41 41 37 38 38 38 38 38 37 37 37 37 36 37 39 38 37 47
44 45 44 45 45 45 46 45 44 43 42 42 42 44 50 45 39 41 46 57 50 54 53 52 48 45 40 41 39 38 38 38 38 38 38 37 36 37 38 38 40 39 38 37 37
46 46 45 45 45 44 45 45 43 43 42 42 42 43 47 39 41 40 38 54 51 54 53 50 48 47 44 39 40 38 37 37 36 36 37 36 36 36 36 38 38 38 37 37 36
45 44 44 45 44 44 43 44 43 43 42 42 42 44 44 42 40 43 45 54 53 54 52 52 50 46 45 40 41 39 37 37 37 37 36 36 34 35 36 36 35 35 36 36 36
41 43 43 43 43 44 43 43 43 43 43 43 43 44 40 46 46 43 44 48 55 55 53 53 52 46 43 40 38 38 37 35 36 37 36 35 29 33 35 35 35 35 35 35 36
42 42 42 43 42 42 43 43 43 43 43 44 42 41 38 45 43 44 41 41 43 51 53 52 50 47 43 36 34 34 32 33 34 35 34 35 32 33 34 34 34 34 34 33 33
42 43 42 42 42 43 43 44 44 44 43 43 41 37 39 40 41 41 41 39 42 46 49 50 47 44 42 36 31 31 31 30 30 28 31 32 33 34 35 33 33 34 34 33 33
42 42 42 43 42 43 43 42 32 32 39 33 33 32 41 42 42 41 40 38 41 46 42 46 40 37 40 38 33 32 31 29 29 29 27 26 26 27 28 28 28 30 32 32 31
42 43 43 42 40 43 43 36 36 39 31 35 36 36 37 44 40 39 39 36 40 40 43 40 36 40 40 40 37 33 31 30 30 29 27 26 26 26 27 27 27 27 27 28 28
41 41 42 42 43 43 39 37 41 44 32 30 35 33 38 45 38 39 37 37 40 40 39 36 36 37 37 36 35 33 32 30 28 27 27 25 22 22 23 24 25 26 27 27 27
39 41 41 42 40 41 37 42 44 43 26 25 33 36 41 44 38 39 37 41 40 38 36 34 34 34 33 32 33 30 28 28 27 26 23 26 18 20 19 20 22 23 23 25 26
40 40 41 42 43 39 39 44 43 40 12 29 31 42 42 40 38 38 38 38 36 35 35 34 31 34 32 31 30 28 28 27 27 25 24 24 21 15 19 18 18 19 19 20 22
41 43 46 46 45 43 44 42 41 21 13 29 33 31 34 37 35 37 37 37 38 33 33 32 33 30 29 31 30 30 27 27 28 24 17 21 20 10 15 17 16 21 19 22 23
45 46 44 45 40 44 42 40 19 15 27 28 29 31 35 33 34 36 36 33 35 30 30 30 30 31 31 29 29 27 25 18 14 17 10 23 22 17 21 23 23 21 24 27 29
46 44 44 44 45 42 39 26 17 25 27 31 33 33 33 34 35 37 33 30 31 31 30 27 26 29 30 29 28 27 24 15 5 12 18 22 19 17 21 20 20 26 28 31 33
45 42 43 46 44 40 31 21 21 28 30 29 33 32 32 34 35 35 32 30 30 30 26 25 25 30 30 31 29 28 25 25 22 19 19 19 18 14 21 22 26 27 28 31 34
40 39 41 44 42 38 28 25 29 33 32 32 30 32 29 33 33 32 30 31 29 30 30 26 25 30 30 31 31 27 28 22 22 13 4 10 14 9 19 22 25 25 28 31 35
37 34 38 43 43 32 26 28 31 33 34 35 30 29 30 30 30 28 27 30 29 30 31 28 27 31 31 28 28 28 27 25 23 19 11 8 5 19 18 23 24 26 28 32 36
37 27 39 43 28 30 29 31 34 34 38 37 30 30 29 29 27 27 26 28 30 30 28 30 28 27 28 30 30 29 27 25 18 17 21 20 12 23 24 24 25 27 31 35 37
34 34 39 38 28 30 33 33 35 36 36 34 29 30 29 27 26 27 28 30 30 29 29 28 24 23 25 26 30 28 29 25 24 22 21 16 12 23 24 24 26 28 33 39 39
33 29 32 35 36 33 31 33 34 37 35 32 29 29 29 30 30 28 29 33 31 29 32 29 25 21 17 21 27 25 28 28 26 23 21 21 19 20 22 24 26 29 40 40 41
36 32 36 31 32 35 36 34 32 31 33 33 29 30 31 29 29 30 31 31 32 35 32 29 25 26 26 27 28 27 26 28 27 26 22 22 23 23 25 26 27 38 39 38 38
35 34 36 34 36 33 34 34 33 34 34 33 32 33 32 30 30 29 30 30 30 31 31 30 26 28 25 27 28 27 28 27 28 28 28 27 26 28 28 29 38 39 35 35 33
39 40 37 31 33 33 34 34 34 35 35 36 35 34 32 34 33 32 32 32 31 30 31 29 27 26 21 25 26 23 27 28 28 28 27 26 26 28 32 38 40 36 33 30 30

GFSSW_sfc_30mbdewp_060.txt.gz
Dewpoint
46 49 47 48 48 46 47 46 44 44 42 42 44 48 51 54 56 54 48 48 48 52 57 54 54 55 48 44 42 40 36 33 32 33 31 32 30 33 33 30 30 30 37 49 60
44 44 46 48 48 49 48 47 46 45 42 41 41 43 47 51 53 50 50 50 50 52 50 53 52 51 47 44 42 38 35 35 35 34 32 34 34 36 34 33 31 31 45 57 64
45 45 45 47 46 46 46 45 46 45 45 43 43 42 44 50 47 45 48 51 51 50 53 52 51 48 45 43 41 39 35 35 37 36 38 37 37 37 36 33 31 33 38 52 62
47 46 47 46 45 45 45 45 45 46 44 44 43 42 43 47 36 39 52 50 51 50 53 52 48 45 43 41 41 38 39 37 35 38 38 37 37 37 37 35 36 39 39 38 56
47 46 46 46 45 45 45 45 44 45 44 44 43 42 42 44 43 42 44 41 52 50 52 51 47 45 40 42 40 39 38 38 38 38 38 38 36 36 37 38 39 39 39 38 37
45 44 43 43 44 44 45 45 44 43 44 44 43 41 39 37 44 43 41 43 50 49 53 52 49 46 42 40 39 39 39 38 38 37 36 36 35 36 36 37 37 38 38 38 38
43 42 43 43 42 43 43 43 43 43 43 43 43 40 38 39 44 43 44 46 50 49 52 53 50 46 44 40 41 39 37 37 36 36 36 37 34 35 36 36 36 36 36 36 36
42 42 43 43 43 42 42 42 42 43 43 43 43 42 36 42 44 46 45 48 52 52 53 52 51 47 43 40 39 38 37 35 37 36 36 35 28 32 36 36 35 35 36 36 36
42 43 43 42 42 42 43 43 43 43 44 44 42 39 32 44 42 43 44 41 51 53 53 51 50 46 44 36 35 36 32 34 34 36 35 35 32 33 34 34 34 34 34 35 36
42 42 43 44 43 44 43 44 43 43 43 43 40 34 35 37 42 43 43 40 43 49 47 48 47 42 41 36 29 31 30 33 32 30 33 33 33 33 33 34 34 33 34 34 34
42 43 42 43 43 41 43 40 32 31 39 31 31 32 30 38 43 42 41 38 45 46 41 45 39 37 38 38 34 33 32 30 30 30 28 28 27 27 28 28 28 29 30 32 33
41 39 40 42 43 43 43 35 35 38 32 33 35 35 35 38 41 42 41 36 39 39 42 38 33 40 41 38 33 32 31 30 30 29 27 27 26 27 27 27 28 27 27 28 28
40 41 40 40 42 42 40 36 43 42 31 31 35 33 32 37 39 41 39 37 38 38 39 35 36 43 41 39 36 34 31 30 29 27 26 25 22 22 22 24 25 26 27 27 25
40 40 42 43 40 41 39 43 44 44 25 25 31 35 36 37 39 42 38 39 39 37 38 35 39 40 38 37 36 32 32 30 27 26 25 26 20 21 21 18 21 23 21 21 23
45 46 47 46 42 37 40 43 42 38 11 26 32 41 39 36 41 38 39 39 38 38 37 34 35 34 35 34 33 29 29 27 26 25 24 23 20 15 18 17 17 22 25 27 29
47 45 44 44 43 43 44 43 40 20 12 26 32 32 33 36 39 38 37 38 39 36 34 33 33 32 31 31 30 29 27 27 25 23 17 20 20 9 16 18 22 22 28 31 32
46 44 45 45 39 44 42 38 18 15 27 25 28 32 31 35 36 36 36 36 34 31 31 33 32 31 31 29 29 27 25 17 12 16 12 23 21 16 21 23 23 26 29 32 35
46 44 44 46 45 42 38 25 17 24 27 32 32 32 31 36 35 37 35 33 35 32 30 27 27 30 30 29 28 27 25 17 4 10 15 22 18 17 21 20 25 27 29 32 35
44 40 42 44 43 40 33 22 22 27 30 30 31 30 32 35 35 34 32 30 32 30 27 25 27 30 31 31 29 27 25 24 20 18 18 19 19 16 22 24 26 26 30 31 34
39 37 37 43 44 39 30 25 28 32 32 31 29 33 29 32 32 32 31 31 30 30 30 27 26 31 30 30 30 27 27 22 21 11 6 8 11 8 20 22 24 26 28 31 35
36 33 37 42 42 32 26 28 31 35 33 34 30 30 32 30 30 28 28 30 30 30 29 28 27 30 30 28 27 27 26 23 22 18 9 5 4 17 20 24 24 26 28 32 37
35 24 37 41 29 31 30 32 35 35 37 32 30 30 29 29 27 27 26 28 30 30 28 29 30 27 28 30 30 29 27 23 17 18 20 20 10 21 22 25 25 26 28 37 40
33 33 37 38 30 31 34 35 36 35 35 29 28 29 29 27 25 27 27 30 30 29 28 28 24 23 25 27 29 28 28 24 22 22 20 13 8 21 25 24 25 26 31 40 40
33 29 33 35 36 34 32 33 32 37 33 30 30 30 29 29 30 27 29 32 31 29 32 28 24 21 19 20 26 26 28 25 24 22 20 19 17 20 21 22 25 27 36 39 38
34 32 35 32 34 35 35 34 32 32 33 33 32 31 30 28 29 29 31 30 32 35 31 28 25 25 25 27 28 26 27 27 25 25 22 21 21 22 24 26 27 29 38 36 34
34 33 34 33 33 35 34 34 34 34 33 33 32 33 31 29 29 29 30 30 29 31 30 29 26 27 25 27 28 27 27 27 28 27 26 26 26 28 28 29 30 39 35 33 31
39 40 37 31 32 32 33 34 34 35 36 37 35 33 32 33 33 32 32 32 31 30 30 28 27 25 21 26 27 23 26 27 28 28 28 26 27 27 29 32 39 37 33 30 27

GFSSW_sfc_30mbdewp_063.txt.gz
Dewpoint
49 46 46 45 47 48 49 49 49 47 47 45 42 42 43 46 51 50 51 49 50 51 56 54 53 56 49 46 41 40 37 31 31 32 30 32 29 32 32 29 31 30 35 47 59
49 49 48 47 48 47 46 46 46 46 46 46 46 42 42 45 46 47 52 52 52 50 48 50 51 53 50 45 42 38 33 34 35 35 31 32 32 34 34 33 32 32 43 60 63
47 47 47 47 46 46 46 45 45 45 46 47 46 46 42 44 44 44 50 55 53 52 51 49 53 50 47 44 41 39 34 35 37 35 36 36 36 37 35 32 33 32 40 57 62
46 47 46 46 45 45 45 45 45 46 45 45 45 45 43 42 34 42 50 53 54 53 49 51 51 47 44 42 42 38 39 36 35 39 39 38 37 36 37 35 36 39 39 43 59
46 45 44 44 43 43 43 43 44 45 45 45 45 45 43 37 40 44 49 44 46 52 48 50 47 46 41 42 41 39 38 39 38 38 38 38 37 36 36 38 39 39 39 39 41
45 45 44 43 43 43 42 42 43 43 43 44 44 45 40 33 41 43 43 43 48 51 48 51 47 46 43 42 40 39 39 38 38 37 37 36 36 36 36 37 37 38 37 38 38
43 43 43 43 43 43 42 41 42 42 42 43 44 43 39 34 38 42 40 43 47 50 48 51 50 44 43 39 42 38 37 38 36 37 36 37 34 35 36 36 35 36 36 37 37
43 43 43 44 43 43 43 43 43 43 43 43 44 42 34 38 39 38 36 44 48 50 49 52 52 46 42 41 40 38 37 34 36 36 36 34 26 32 35 36 35 36 36 36 36
43 43 44 43 44 43 44 44 43 44 43 43 42 38 33 37 39 37 44 43 47 49 51 51 51 45 42 37 35 38 32 34 33 37 35 33 30 32 35 35 34 34 34 35 35
41 43 43 41 42 43 43 43 43 43 43 43 40 34 35 30 41 39 44 44 46 49 48 46 44 40 40 36 27 32 31 34 31 32 36 34 33 35 34 32 32 33 33 34 34
39 41 41 42 41 43 44 40 32 30 37 30 31 31 32 37 39 41 43 42 44 46 40 43 39 36 37 37 32 33 31 31 33 31 28 30 30 29 29 28 28 29 29 30 32
41 41 41 40 40 41 43 37 33 35 30 34 34 34 34 36 36 42 44 38 41 39 41 39 36 38 39 39 34 32 30 30 30 29 29 27 26 27 28 28 28 28 28 29 29
43 45 46 46 45 43 41 37 43 40 31 30 34 33 32 34 35 42 41 38 37 39 39 35 35 41 41 38 35 32 31 30 28 27 26 26 24 23 22 23 23 24 24 25 25
45 45 45 45 40 41 38 44 44 43 24 22 30 34 35 36 34 44 42 38 37 37 38 36 40 38 37 36 36 33 33 31 28 28 26 26 20 23 20 20 25 27 29 30 30
46 45 45 42 39 37 38 43 43 39 10 30 32 39 37 33 38 41 41 39 37 38 38 34 38 37 33 33 37 34 36 28 26 26 25 24 22 19 18 18 24 27 30 33 33
46 45 46 44 42 44 42 43 40 20 11 27 32 32 32 33 36 41 38 41 40 36 35 35 37 38 35 38 37 31 27 26 24 22 18 20 20 12 16 19 22 27 31 33 36
46 45 45 45 40 43 43 38 21 15 28 24 27 31 31 33 36 36 35 36 34 30 30 33 34 34 34 30 29 27 25 18 16 18 13 23 21 16 20 23 23 28 30 33 36
46 43 44 43 44 42 39 26 17 25 27 33 31 31 28 34 36 35 35 33 34 33 30 28 26 32 32 31 29 26 27 19 6 10 13 22 18 16 21 21 25 27 29 32 37
44 39 40 43 43 41 34 22 22 27 31 30 30 27 31 34 35 34 32 33 34 30 28 26 27 31 31 30 29 26 26 22 19 18 17 18 19 18 24 25 26 27 29 32 37
39 36 35 42 44 41 29 27 29 33 32 32 28 32 29 31 32 31 31 33 32 31 29 27 27 31 30 31 29 27 26 22 20 7 3 9 11 13 21 23 25 27 28 31 38
35 30 35 42 41 33 27 29 32 37 35 33 31 31 30 31 30 28 29 31 30 29 29 28 27 30 30 29 26 26 25 23 21 17 6 3 4 16 22 24 24 26 28 35 40
34 24 35 40 34 33 32 34 37 36 37 34 30 30 29 28 26 26 27 29 30 29 27 29 29 26 29 29 30 28 26 22 16 17 19 19 9 19 21 25 25 25 28 39 40
33 31 36 38 31 32 34 35 36 34 33 29 29 29 29 27 25 27 28 31 30 29 27 27 25 23 25 27 29 28 27 24 22 22 19 11 9 20 24 24 24 26 29 39 38
33 29 34 35 36 35 34 33 32 35 33 31 30 30 29 28 29 27 30 31 31 33 31 27 24 21 17 20 27 27 28 24 23 20 19 18 16 20 21 22 26 27 35 37 34
34 32 35 31 32 34 34 34 33 31 33 34 30 31 28 27 28 29 30 31 33 34 30 27 24 25 24 27 27 26 27 25 23 23 21 21 21 21 23 25 28 29 37 36 32
34 33 35 32 32 32 34 33 33 35 34 33 32 33 31 29 29 28 29 29 28 31 29 29 27 27 25 27 28 27 27 28 26 26 24 24 25 27 28 29 30 37 36 34 31
38 39 37 30 31 32 33 34 34 35 36 37 34 33 31 32 33 32 32 31 31 30 29 27 26 24 21 25 27 24 27 27 28 28 28 26 27 28 27 29 38 37 34 31 27

GFSSW_sfc_30mbdewp_066.txt.gz
Dewpoint
46 50 49 49 48 48 48 48 47 47 47 47 47 46 45 43 44 45 46 51 51 49 55 50 50 53 52 44 42 40 30 25 28 30 28 31 30 31 30 27 28 29 32 45 55
47 48 47 48 48 47 47 48 48 47 46 46 47 47 47 44 40 40 45 52 54 52 48 48 46 52 48 45 41 34 28 24 25 29 29 31 29 29 29 27 28 30 39 54 57
47 47 46 46 46 46 44 43 45 46 46 46 47 47 46 45 38 31 42 50 54 54 48 47 45 50 46 45 40 35 30 29 35 34 33 33 31 34 30 31 28 29 36 54 59
47 47 46 46 45 43 42 43 44 44 45 46 46 46 47 43 26 48 48 48 54 54 50 46 46 47 44 43 41 36 35 33 34 38 37 36 34 33 33 29 33 38 39 44 57
45 44 44 45 44 43 44 44 42 42 43 44 45 45 43 38 37 38 45 45 46 52 49 44 43 44 41 42 42 39 36 36 34 38 38 38 36 32 34 35 38 38 39 39 45
44 44 44 44 44 43 43 42 42 42 43 42 44 45 40 34 38 36 44 44 43 45 51 44 43 44 40 40 41 39 39 37 35 35 37 36 35 36 34 35 36 37 37 38 38
44 44 44 45 44 44 43 43 42 43 43 43 42 43 39 32 35 34 42 41 41 43 49 43 47 42 40 39 41 39 37 37 36 36 35 35 32 33 33 34 32 33 33 35 37
44 44 44 44 45 44 44 43 44 44 44 44 44 42 34 35 36 34 34 34 38 43 49 43 50 44 39 40 40 38 36 34 34 34 36 32 20 28 32 31 29 29 29 30 33
44 41 41 42 42 41 42 44 44 43 43 44 43 38 31 36 35 34 34 36 42 46 48 45 49 45 42 35 35 35 27 28 31 35 32 33 24 26 30 32 31 31 32 32 32
41 42 43 43 43 43 42 44 44 43 42 42 39 35 33 28 31 36 35 38 41 45 46 44 45 42 40 34 26 28 28 28 27 34 33 30 28 33 34 34 33 31 31 32 33
42 45 46 46 46 43 42 40 34 33 38 29 30 28 31 32 34 36 37 40 43 45 39 40 38 36 38 35 28 25 29 27 29 30 34 32 31 31 31 32 30 29 28 29 30
45 45 46 45 45 46 42 38 33 36 28 31 32 32 33 34 32 38 41 41 40 39 35 37 35 36 39 37 32 30 29 27 31 32 29 29 29 30 30 30 29 29 29 28 29
45 46 46 44 45 44 41 40 42 39 31 30 32 31 31 32 31 38 37 41 37 38 35 33 36 39 38 38 34 31 26 26 27 28 28 27 26 27 24 23 24 24 26 27 28
45 46 46 43 39 41 39 43 42 41 26 23 30 33 34 35 32 39 40 40 37 37 36 35 39 38 36 38 36 33 32 31 28 28 25 26 17 23 20 24 26 29 31 31 32
45 45 46 43 40 38 39 43 43 40 13 31 32 38 35 32 35 40 45 40 35 39 38 32 35 35 33 37 38 36 31 30 29 28 26 25 22 19 20 23 27 30 33 35 35
44 45 44 44 42 43 42 43 40 24 14 26 31 33 33 34 34 41 41 41 39 38 37 36 41 38 36 38 37 36 29 27 27 26 24 23 22 15 16 20 26 30 33 36 37
44 46 43 44 38 42 42 39 25 18 28 25 27 31 31 31 34 36 37 35 33 31 30 33 34 38 38 33 36 34 33 26 24 23 19 22 22 17 21 22 27 31 34 37 39
45 44 44 42 45 42 40 29 17 24 27 32 31 31 28 34 35 37 35 33 34 32 31 29 26 34 36 32 30 31 28 22 14 16 14 23 17 16 21 22 27 30 31 36 39
44 40 41 43 43 43 36 24 25 28 31 30 30 28 31 35 35 34 33 33 34 33 30 29 28 35 37 33 30 28 29 23 21 20 17 15 20 20 23 24 26 28 31 37 40
41 38 37 43 44 40 33 28 30 32 32 31 29 30 29 29 31 30 31 35 31 31 30 29 28 32 30 32 29 29 26 23 25 15 11 11 13 16 23 25 27 29 30 34 40
38 33 37 42 43 37 30 31 33 37 35 34 31 29 29 28 28 28 30 32 31 29 29 29 28 30 31 30 27 26 26 24 22 19 11 4 4 17 23 26 25 27 29 35 39
37 32 39 42 36 36 33 35 37 35 37 35 31 30 28 27 26 26 28 29 31 30 27 30 29 27 29 30 30 28 26 23 22 20 21 20 10 19 25 24 25 25 29 36 40
35 34 39 42 32 32 34 34 35 33 32 30 29 29 29 27 25 27 28 31 30 30 27 28 27 24 25 27 29 28 27 24 24 25 22 16 11 21 22 23 25 26 29 37 37
36 32 37 39 37 34 34 34 32 35 33 32 30 30 28 27 28 28 29 31 33 32 31 28 26 24 19 21 28 28 28 26 26 23 21 20 17 20 22 23 26 30 33 37 35
37 33 35 32 33 33 35 34 32 32 34 34 31 31 28 26 27 29 30 30 32 32 30 28 25 26 26 27 27 28 28 27 25 25 21 20 20 20 22 25 30 32 37 37 34
34 35 35 34 32 34 34 34 33 35 34 32 31 32 31 28 28 27 29 29 28 30 29 30 28 28 26 27 28 28 28 28 27 26 24 24 24 25 27 28 29 37 37 35 32
39 40 37 32 33 33 34 34 35 36 37 37 34 32 31 32 33 32 31 31 31 29 29 28 28 26 24 26 27 25 27 27 28 28 26 25 26 27 27 28 32 38 36 33 30

GFSSW_sfc_30mbdewp_069.txt.gz
Dewpoint
47 49 48 48 48 48 49 49 48 48 49 48 47 48 49 48 46 42 38 47 51 52 51 46 47 52 52 48 42 36 31 29 29 28 27 28 30 32 31 28 27 27 25 46 58
48 48 48 47 47 46 47 46 44 45 47 47 47 47 47 48 43 39 37 43 51 54 48 47 41 49 49 44 42 37 30 26 29 29 28 30 30 31 28 27 25 25 30 47 54
48 48 46 46 46 46 45 43 43 43 44 45 46 47 47 47 39 35 39 40 51 54 50 43 40 45 47 45 40 37 29 29 24 31 31 31 29 28 27 24 23 24 26 43 48
47 45 45 45 44 44 44 44 44 44 44 44 45 47 47 42 29 46 47 39 47 53 49 42 38 42 43 43 42 35 34 31 30 35 34 31 29 25 28 25 27 28 35 42 51
46 45 45 44 45 45 44 44 43 43 42 44 44 46 44 36 36 38 38 39 44 49 49 46 36 38 38 38 41 37 33 33 34 37 35 33 31 27 29 32 34 37 38 37 44
45 46 45 45 45 45 45 44 44 43 42 43 43 45 39 32 32 33 36 40 42 45 47 47 36 36 37 38 39 40 37 35 34 34 36 36 32 32 31 32 34 35 35 37 37
45 45 44 42 43 45 45 45 45 44 44 45 45 42 37 32 32 32 42 43 42 42 40 48 41 35 38 37 40 39 38 37 35 33 33 35 33 33 33 33 32 33 31 32 34
43 43 43 44 44 43 44 43 44 45 45 45 45 42 35 33 34 33 32 35 36 36 40 46 46 41 36 39 36 38 36 32 36 34 34 33 25 27 32 32 30 29 28 29 30
44 43 44 46 46 46 44 43 43 45 44 43 43 39 30 35 32 32 31 30 36 36 42 46 49 44 37 38 35 35 32 29 28 32 33 33 24 23 29 29 28 27 26 26 26
44 45 46 46 46 46 47 44 42 43 41 39 40 35 31 26 30 31 32 32 39 40 43 46 44 42 38 37 32 29 29 25 25 31 31 31 29 27 29 29 28 27 27 27 28
44 46 46 46 45 46 44 41 36 34 36 29 30 27 28 30 31 31 33 33 39 42 40 43 36 33 36 34 32 24 25 23 24 31 30 28 26 28 28 31 30 28 27 26 27
45 46 46 46 45 45 42 36 35 37 27 29 30 28 29 30 28 27 35 33 33 33 39 36 32 37 39 34 33 27 22 22 25 28 30 27 26 27 29 29 30 28 26 24 25
46 46 45 46 43 39 38 41 42 38 32 28 30 30 29 30 26 29 37 34 35 37 33 30 33 35 39 37 34 35 25 23 24 29 30 26 25 26 28 29 28 28 28 28 28
46 46 45 45 40 39 37 42 42 40 26 23 28 32 31 30 27 35 40 38 37 36 32 29 38 33 36 37 38 30 27 24 25 27 20 26 12 20 24 24 23 25 27 29 30
45 46 45 45 40 38 40 41 41 39 11 30 32 38 34 32 34 35 40 40 36 37 37 34 36 37 35 36 38 35 33 28 28 26 26 26 22 21 21 23 24 28 31 32 33
45 45 46 44 40 41 42 42 39 25 13 27 32 32 32 33 35 37 39 41 40 37 37 37 39 37 37 38 39 32 31 30 30 29 27 23 21 18 20 22 26 29 31 34 35
45 45 44 42 37 42 42 39 26 19 27 26 28 33 31 32 32 33 34 36 33 30 30 33 34 37 37 33 37 35 33 27 26 26 20 23 22 17 19 23 26 29 32 36 37
46 44 43 40 44 42 41 32 19 25 28 31 31 33 30 33 32 35 32 32 35 34 33 29 26 32 37 35 32 35 34 30 20 19 18 21 20 19 21 23 29 32 34 37 38
45 40 41 41 43 42 37 27 26 27 31 30 31 28 31 34 34 32 32 32 33 32 29 30 28 36 37 36 36 33 31 26 21 19 16 15 17 21 22 23 28 29 32 37 39
40 39 38 41 43 41 35 27 30 32 33 32 29 27 28 27 27 27 28 33 30 30 30 29 27 34 36 36 32 33 30 25 28 15 12 12 13 15 19 23 26 29 31 35 39
40 36 39 42 44 39 31 32 34 36 36 34 28 26 26 25 25 26 28 31 30 28 29 30 28 31 32 34 31 28 27 25 24 21 14 6 6 19 21 24 27 29 30 34 38
40 38 41 43 36 37 33 34 36 34 36 35 31 27 26 25 25 26 27 29 30 29 26 30 29 27 29 30 30 28 26 24 24 23 22 22 13 21 24 26 25 28 30 35 39
36 37 41 43 33 33 34 33 34 32 31 30 28 28 27 26 25 27 29 30 30 29 27 28 28 25 25 27 29 28 27 25 24 28 24 16 14 22 25 24 24 25 30 35 39
37 35 37 38 36 33 33 34 31 34 31 31 28 28 26 25 26 27 28 31 33 31 30 27 26 27 21 24 28 28 27 26 28 24 21 20 15 20 23 23 24 29 32 36 38
37 35 35 34 35 34 33 32 29 31 32 31 28 28 26 23 25 28 29 30 31 30 29 27 26 27 25 26 27 28 28 27 26 25 22 19 18 19 22 23 26 32 36 38 37
36 35 35 35 34 33 34 33 32 33 34 30 29 29 27 25 28 26 27 27 26 29 28 29 28 28 26 26 27 27 27 28 27 25 24 23 22 23 23 28 30 33 38 38 36
37 39 37 34 33 32 34 34 34 35 35 35 34 30 30 32 32 30 30 29 29 28 27 27 27 27 24 26 26 25 26 27 27 27 25 24 24 27 27 28 30 35 38 37 33

GFSSW_sfc_30mbdewp_072.txt.gz
Dewpoint
49 49 49 48 47 47 47 47 47 46 46 47 48 49 49 49 49 46 41 39 48 51 52 48 43 51 53 51 49 42 36 35 35 33 31 29 30 32 32 31 28 27 33 57 62
48 48 47 46 46 45 45 46 46 45 45 44 46 48 48 48 45 41 42 42 42 50 51 47 40 47 48 48 48 40 34 33 34 33 32 30 30 31 31 31 29 27 45 55 62
48 46 46 46 45 45 44 45 45 44 44 44 44 45 47 48 40 37 41 42 43 48 51 48 42 43 44 45 45 41 37 34 32 32 34 31 30 31 31 29 28 26 33 46 59
45 46 47 47 46 46 45 45 45 44 45 44 44 45 46 44 30 43 42 46 43 44 50 49 40 39 42 42 44 37 38 37 31 34 34 31 31 29 29 28 29 28 31 47 48
46 46 45 45 45 45 45 45 45 44 44 43 44 45 43 40 38 39 39 39 41 45 49 47 41 37 37 41 42 41 37 35 35 35 35 32 30 28 27 29 34 38 38 38 47
47 45 44 44 44 44 44 45 45 45 45 45 44 44 40 33 35 33 35 38 38 43 44 47 44 35 37 37 37 41 40 36 33 34 36 35 33 31 28 30 34 37 36 36 36
46 45 44 44 45 46 46 44 45 45 45 45 45 44 37 34 33 35 38 39 40 38 41 45 47 36 34 37 37 39 39 39 34 34 35 36 34 32 32 34 33 34 34 34 36
45 44 45 46 47 47 47 47 45 43 45 45 45 43 35 35 36 34 33 37 37 36 35 40 43 46 34 37 36 38 38 36 36 35 34 34 30 34 34 34 33 32 32 32 32
44 44 45 46 46 46 46 47 46 44 44 45 42 41 31 35 33 32 32 29 37 37 36 37 46 45 39 34 35 37 34 34 33 36 33 33 30 29 31 33 32 31 30 29 29
44 45 46 46 46 45 46 46 45 42 42 39 39 36 34 27 29 30 31 33 38 38 38 42 45 41 39 34 30 30 32 31 29 34 33 33 32 28 28 29 30 29 29 28 26
44 46 46 46 45 45 44 40 38 36 36 30 30 29 28 29 30 29 31 38 37 36 35 42 38 35 36 34 35 35 31 27 28 28 33 32 33 32 29 30 30 30 28 27 28
43 45 46 45 45 43 40 37 38 37 32 33 30 29 30 28 27 26 28 32 33 30 34 36 34 37 34 35 35 34 29 28 27 30 31 30 30 30 30 29 31 31 29 28 27
44 45 46 45 45 42 39 40 42 40 29 28 29 28 28 28 26 26 34 31 30 30 31 33 34 36 37 34 33 32 31 31 25 30 30 27 25 28 28 28 29 30 30 29 28
44 45 46 45 42 38 38 42 43 40 27 28 33 32 32 29 26 30 38 34 34 29 30 36 35 36 36 35 34 31 33 33 27 27 25 28 20 24 27 28 30 28 26 26 29
44 45 45 46 43 37 39 41 41 39 14 29 31 37 35 30 35 34 39 38 31 33 37 34 35 36 36 36 38 35 39 32 32 27 25 26 22 22 26 25 26 24 27 31 32
44 45 45 42 43 41 43 42 40 26 15 28 35 32 32 33 35 38 36 40 39 38 37 37 39 37 37 38 38 39 36 36 33 28 26 25 23 20 22 23 23 27 32 33 33
46 45 44 41 38 41 42 39 26 20 29 27 30 33 32 33 34 34 33 33 33 30 30 33 34 38 38 36 38 35 32 27 26 25 23 25 24 22 22 24 26 30 33 36 37
46 46 44 40 43 42 41 32 21 27 28 33 33 34 31 33 32 34 34 33 37 35 31 27 25 33 37 35 33 33 34 29 21 21 20 22 22 19 23 26 29 31 36 37 39
46 42 41 43 43 42 38 24 25 28 33 30 31 31 32 33 33 32 33 34 35 37 30 29 27 35 37 38 37 33 32 34 24 19 19 20 20 21 21 29 31 32 35 38 40
42 40 40 42 43 41 35 29 31 33 33 32 29 30 28 28 31 30 30 32 30 30 31 30 27 35 36 38 37 36 34 28 28 18 15 15 17 17 20 26 29 30 33 38 40
42 37 41 43 44 40 30 32 35 36 36 34 30 26 24 24 26 26 29 29 28 28 31 30 30 32 36 34 32 33 32 27 26 22 18 11 13 20 21 24 27 29 32 36 39
42 37 43 45 36 37 32 34 36 34 37 35 33 27 25 25 26 26 29 29 30 29 28 31 30 29 30 30 30 29 30 27 24 23 22 22 15 21 22 26 29 30 31 37 39
37 38 44 44 32 32 34 35 34 33 31 30 28 28 26 25 25 28 29 30 31 31 29 29 28 25 25 28 29 28 28 26 26 27 24 21 16 24 26 25 26 28 31 37 39
37 33 37 37 37 34 33 32 30 34 32 30 28 28 25 25 27 27 29 32 32 29 30 29 27 28 22 26 29 27 28 27 26 21 24 20 18 24 24 25 24 27 31 37 38
37 34 35 33 34 34 34 32 29 31 33 30 28 28 26 23 24 28 29 31 31 29 28 30 25 26 25 26 27 30 29 28 25 25 21 22 19 21 24 25 24 32 34 37 37
36 34 35 35 34 32 32 31 32 32 33 30 29 28 29 28 29 26 27 27 27 29 27 29 27 28 24 26 26 26 27 28 28 27 25 23 22 21 23 24 30 32 37 39 37
36 38 37 33 32 31 32 31 34 34 35 35 35 32 30 31 31 30 29 30 29 28 27 27 27 27 25 26 26 24 26 27 28 28 26 23 25 27 27 28 30 34 38 38 36

GFSSW_sfc_30mbdewp_075.txt.gz
Dewpoint
48 48 48 46 47 46 45 44 45 47 47 47 46 46 48 49 49 47 44 45 41 46 52 52 45 49 52 52 51 48 40 38 40 38 38 40 39 37 31 28 29 35 54 60 63
48 46 46 47 48 47 46 46 45 45 45 44 44 45 46 48 46 42 43 45 45 44 50 49 46 47 49 49 48 44 39 37 38 39 37 37 39 41 41 31 30 54 61 62 62
46 47 46 46 46 46 46 46 46 45 45 45 46 45 46 47 41 36 41 44 45 45 44 50 49 46 47 46 46 43 37 38 36 36 34 36 41 37 38 31 29 49 60 61 61
46 48 46 45 45 45 45 46 45 45 45 45 44 44 45 44 29 41 46 42 46 45 43 49 47 43 44 43 45 40 40 38 36 35 35 32 33 35 38 29 35 33 52 60 61
47 47 46 45 45 45 45 45 45 45 45 45 45 45 43 38 36 39 44 38 42 44 42 46 46 42 40 40 42 42 40 39 38 38 37 36 31 30 29 29 38 38 44 52 58
45 46 45 45 46 47 47 47 47 44 45 45 45 45 38 34 39 39 39 38 43 42 42 46 46 44 39 39 39 41 41 41 38 39 37 35 32 32 29 30 35 36 36 37 44
44 44 45 45 46 46 46 46 47 46 45 45 45 44 40 34 36 37 39 39 40 40 39 43 48 45 36 36 40 41 40 41 40 35 35 36 33 32 33 33 33 34 35 35 36
44 44 46 47 46 46 45 45 46 47 45 44 45 44 35 36 37 36 36 38 38 40 36 36 43 45 44 38 36 37 38 36 38 35 35 35 31 34 35 33 32 34 33 33 33
43 44 47 46 46 44 45 46 46 47 44 44 43 41 33 36 36 35 34 34 36 37 37 37 44 45 41 35 34 36 34 34 35 37 34 33 31 32 34 33 32 33 33 31 31
43 44 45 46 46 44 42 44 45 42 41 42 40 35 33 29 31 31 32 38 38 38 38 40 42 41 38 34 28 29 32 34 34 35 35 33 32 31 29 31 32 32 32 31 30
43 45 45 47 46 44 41 42 37 36 39 32 32 32 29 32 30 30 36 37 36 36 33 40 36 35 35 33 32 33 33 32 33 33 34 33 33 33 31 29 30 31 31 29 29
43 45 46 46 46 44 40 38 39 39 32 32 34 33 32 31 27 28 36 32 32 29 32 33 33 37 37 33 34 34 31 30 29 32 34 33 32 33 32 31 30 30 30 30 28
44 46 46 46 46 42 39 39 43 42 31 29 30 28 30 29 27 27 32 34 30 31 31 30 35 40 36 34 33 35 33 31 29 30 31 30 30 31 32 32 31 30 31 30 29
45 45 45 46 42 38 38 42 43 40 25 29 32 33 33 29 29 34 34 33 33 29 31 31 33 36 35 34 34 33 34 33 33 30 30 28 23 25 28 30 29 30 30 29 28
44 45 45 46 42 37 40 42 40 39 14 31 33 36 35 30 33 34 39 36 30 32 31 29 34 36 36 34 35 33 38 36 35 34 27 27 23 21 24 27 28 29 28 27 30
45 46 46 43 44 42 42 42 40 24 16 29 34 32 32 33 35 36 36 38 36 33 34 36 38 37 37 38 37 37 36 36 35 34 27 26 24 17 23 26 27 26 27 32 34
45 47 45 42 38 42 42 38 24 20 28 28 31 34 32 31 33 33 32 31 30 27 29 35 34 38 39 36 37 36 33 27 26 26 23 26 24 18 23 25 25 27 32 33 34
46 47 44 42 43 42 41 30 19 25 27 32 32 33 31 33 32 33 31 29 32 33 31 28 26 35 38 35 33 34 33 28 20 21 21 24 23 23 22 24 29 32 35 36 37
46 43 42 43 43 42 36 25 26 28 31 31 30 31 32 33 31 32 32 33 35 36 28 27 27 36 38 38 36 34 31 35 27 23 19 22 21 20 26 30 32 35 36 38 40
43 40 40 44 43 41 32 29 31 33 34 34 29 30 30 32 32 32 33 33 30 32 32 31 27 35 36 38 37 36 35 29 29 21 19 19 19 19 23 30 33 35 36 39 40
42 38 41 44 43 36 30 31 34 36 36 34 32 29 26 29 30 29 29 29 29 29 31 32 30 32 35 33 31 33 32 32 30 29 19 14 15 20 21 30 31 32 37 39 40
39 34 43 45 33 37 32 35 35 34 37 36 35 30 26 26 27 29 28 29 31 30 29 31 31 29 31 36 35 35 34 30 25 26 21 22 17 21 22 29 29 31 35 39 39
37 37 42 40 30 30 32 33 35 32 33 30 29 28 27 26 26 29 29 32 32 30 28 30 27 25 27 29 30 28 32 32 27 28 22 18 17 24 26 28 29 31 37 39 38
37 30 34 38 36 33 32 31 32 35 33 31 29 29 27 26 28 28 29 32 31 28 32 30 28 24 19 24 27 26 28 27 24 18 24 20 21 25 26 26 27 30 34 39 38
36 34 35 31 33 34 33 32 32 30 33 33 29 30 28 24 27 28 30 31 30 28 28 29 24 26 26 27 29 28 28 27 24 24 20 22 21 24 25 24 24 27 32 38 37
34 33 35 34 35 31 31 30 30 32 33 33 33 34 31 30 30 27 27 28 27 28 28 29 27 26 24 26 26 26 28 29 26 25 25 25 23 22 25 25 25 29 34 37 37
36 37 37 33 32 30 30 32 32 35 34 35 35 34 31 31 34 33 29 30 29 28 28 28 26 25 24 26 26 23 26 28 29 28 26 22 23 26 24 25 30 34 37 38 37

GFSSW_sfc_30mbdewp_078.txt.gz
Dewpoint
43 48 47 47 47 48 48 47 46 46 46 47 46 46 46 48 50 48 44 45 44 43 44 48 49 47 51 51 51 48 42 37 38 36 36 38 36 38 43 40 33 44 56 59 62
46 47 48 47 46 46 46 46 46 46 46 46 45 45 45 46 47 45 45 46 47 47 44 44 47 46 47 47 48 46 40 39 41 40 38 42 43 46 42 40 39 58 61 63 63
47 48 48 47 46 46 46 46 46 46 45 46 45 46 46 46 41 38 42 46 47 47 46 45 49 46 45 47 46 45 39 39 38 40 37 44 44 44 41 40 39 52 59 62 62
45 47 46 46 46 46 47 48 47 46 45 46 45 45 45 44 27 40 48 45 48 47 45 43 46 44 42 43 45 42 42 39 39 38 42 42 41 44 43 42 39 39 60 61 61
44 45 46 45 45 46 47 47 47 47 46 46 46 45 43 38 37 40 42 41 43 46 44 43 44 43 40 41 43 43 42 41 40 39 38 40 39 37 41 41 39 38 60 59 60
45 45 45 47 47 47 47 46 45 47 48 45 45 45 38 32 37 39 39 42 42 43 44 43 45 44 40 39 40 41 42 42 40 39 37 35 35 33 39 43 35 38 53 58 58
44 44 46 46 46 47 45 45 45 46 48 46 44 43 39 33 36 40 39 41 42 42 41 41 44 44 41 39 39 40 38 40 41 39 36 36 34 34 32 34 33 34 37 41 53
45 44 44 46 46 46 45 45 46 47 48 46 45 43 34 38 37 36 36 39 44 44 41 38 46 46 44 40 39 36 38 34 36 38 36 35 30 34 35 33 31 33 33 34 38
44 44 46 45 47 45 45 44 46 46 46 45 43 40 31 38 37 36 36 36 39 43 41 38 46 43 43 36 33 36 32 34 35 37 34 34 32 33 35 34 31 31 33 33 32
44 44 46 46 47 46 43 44 42 42 42 43 41 35 32 30 32 37 37 38 38 38 38 39 42 40 39 35 27 31 31 34 34 36 35 33 32 32 31 33 32 32 32 33 32
44 45 46 46 46 45 41 41 34 33 38 35 34 32 31 32 31 34 38 36 35 35 32 38 35 33 36 35 32 33 33 32 34 34 35 34 32 33 33 31 29 30 31 32 32
45 46 46 45 47 42 40 37 38 37 29 32 34 35 34 31 28 30 36 30 31 29 32 33 31 37 37 35 34 32 32 32 32 34 35 34 33 33 33 32 30 30 31 31 30
45 46 46 45 46 40 39 38 42 42 28 29 32 31 32 30 27 26 33 32 31 29 29 29 29 36 39 34 33 34 31 31 29 30 33 33 32 33 34 34 33 31 31 31 30
45 46 45 46 41 40 37 41 43 39 23 30 31 33 33 29 28 36 35 33 31 29 31 30 31 35 35 34 33 33 36 33 33 30 28 30 26 29 32 33 33 32 31 31 29
44 45 47 47 41 36 39 42 41 37 14 32 33 38 36 30 32 35 40 34 29 30 30 24 30 34 33 34 34 33 36 34 35 34 28 28 26 26 24 30 31 33 31 31 28
45 47 46 44 43 41 42 42 39 19 18 29 34 32 31 33 33 36 36 38 36 32 31 31 38 38 36 39 36 38 36 36 36 35 27 28 28 24 22 23 27 31 31 29 30
46 47 46 43 38 43 42 37 21 20 28 28 30 31 30 30 30 33 31 29 28 24 26 31 35 39 40 36 37 36 34 26 25 26 23 27 26 25 22 24 25 28 29 32 35
47 47 45 42 42 43 41 27 19 24 26 30 32 32 31 33 32 32 30 29 33 31 31 28 26 35 38 36 35 34 30 23 18 21 22 26 24 24 23 24 25 28 31 34 36
46 42 42 43 43 42 35 25 26 29 30 32 32 31 30 33 32 31 30 30 33 33 29 27 27 36 38 38 35 34 31 34 26 23 20 23 24 22 28 28 30 32 34 35 37
41 40 40 44 43 40 30 29 30 32 34 34 29 32 30 32 32 30 32 34 34 35 36 29 27 35 37 37 37 35 35 29 30 22 18 19 20 21 26 29 32 34 36 39 40
41 38 41 44 43 34 29 30 33 35 36 33 31 30 26 29 32 30 29 31 31 29 32 31 28 31 34 33 33 33 32 33 30 28 20 16 17 20 24 30 33 36 38 40 40
38 32 42 44 31 33 30 33 36 34 37 35 35 34 27 26 28 28 30 30 32 31 30 32 30 27 29 34 34 34 32 31 25 26 25 20 17 21 22 30 34 36 39 40 40
36 37 40 40 29 29 31 32 35 34 32 31 30 29 29 27 26 29 29 31 30 30 29 30 29 26 27 32 35 33 35 33 29 26 24 21 19 25 26 30 32 34 39 39 39
35 28 33 36 36 33 32 29 30 34 33 34 31 30 28 27 29 29 29 31 32 28 33 31 28 23 20 23 28 28 31 34 28 22 21 21 18 23 27 29 30 33 38 39 39
34 32 34 26 31 33 33 32 29 30 32 35 31 33 31 25 27 28 30 30 30 29 28 26 24 25 26 29 28 27 28 29 28 24 21 21 20 23 26 28 30 33 38 38 38
31 30 33 33 34 33 31 30 29 32 33 33 33 33 32 29 29 27 28 28 27 28 28 30 26 25 24 26 26 25 28 28 26 24 25 25 23 25 27 26 27 29 33 37 38
35 36 35 28 32 31 30 30 32 33 35 36 35 34 32 31 33 34 34 30 29 28 28 28 27 22 20 26 26 21 25 28 28 28 26 22 23 25 26 25 25 26 30 35 38

GFSSW_sfc_30mbdewp_081.txt.gz
Dewpoint
45 48 49 49 48 47 46 47 47 47 46 46 46 47 46 46 47 49 46 46 47 47 45 44 47 46 51 50 51 47 42 37 37 35 35 37 36 37 44 41 41 40 54 59 64
42 48 48 48 48 47 46 47 47 47 47 46 46 46 46 47 46 45 47 46 49 50 47 44 43 46 46 47 48 45 40 39 39 38 37 41 39 38 40 41 40 40 60 64 66
45 43 45 46 46 46 47 48 48 48 47 47 46 46 47 46 39 36 42 46 47 50 46 46 44 46 45 46 46 45 38 39 40 41 42 41 43 45 42 41 41 40 44 62 65
45 46 46 46 47 46 47 47 47 47 47 47 47 47 45 43 24 41 46 46 47 49 48 45 43 44 42 40 44 41 43 40 38 43 43 41 41 44 45 44 44 43 42 46 62
46 45 45 45 46 47 47 46 45 46 46 47 47 46 43 38 36 39 43 41 41 45 45 44 42 43 39 40 42 41 42 42 41 42 42 41 39 39 42 45 45 45 39 49 60
45 45 44 45 45 47 45 44 44 45 46 46 46 45 39 31 36 39 40 43 40 42 45 45 42 42 41 39 40 41 41 41 41 39 39 37 38 39 39 48 46 47 37 54 59
43 45 44 46 46 47 45 44 45 46 47 46 46 43 38 32 36 37 41 42 42 42 42 45 44 43 42 38 40 41 39 42 41 39 37 36 34 36 39 48 45 46 38 47 58
44 44 45 47 47 46 45 44 46 47 47 46 44 42 32 38 38 36 41 43 43 42 43 43 45 43 43 40 38 35 38 36 38 40 38 35 31 35 44 46 47 46 42 35 41
43 45 46 47 47 47 44 45 46 46 45 45 43 39 28 38 36 37 39 40 43 42 42 41 44 42 42 37 35 34 31 34 34 39 36 34 32 34 38 43 41 39 39 33 33
44 45 47 46 46 46 43 44 42 43 43 42 41 33 32 31 33 37 37 40 39 38 37 40 40 39 39 35 26 27 31 34 32 37 35 34 32 33 36 36 36 34 33 32 33
44 46 47 46 46 45 41 37 33 32 36 34 35 32 32 32 33 36 38 35 36 35 30 38 34 32 35 36 31 33 31 32 34 35 35 34 33 33 32 33 34 34 37 33 32
44 46 47 46 47 42 40 35 37 36 28 32 34 35 35 32 28 33 38 30 31 29 32 33 30 35 37 36 33 33 31 31 33 35 34 34 34 34 34 33 32 30 33 32 32
45 46 46 46 46 40 38 37 42 41 27 30 32 32 33 32 27 27 34 32 31 30 29 27 29 36 38 35 33 33 30 31 29 32 34 33 32 34 34 34 34 32 31 31 31
45 46 46 47 40 39 37 41 42 39 22 29 32 32 33 30 29 38 37 33 31 29 29 27 31 35 34 34 35 31 33 32 32 29 27 32 26 28 32 33 34 34 34 32 31
45 46 47 46 40 36 39 42 41 33 15 32 33 38 36 28 32 33 39 33 27 29 29 25 28 33 32 35 35 34 36 34 34 30 29 28 27 27 25 29 31 33 34 33 32
46 47 46 44 43 41 41 42 37 18 17 29 34 32 30 32 31 36 34 36 36 32 30 31 35 35 36 38 36 38 36 36 35 33 26 28 28 27 25 25 28 31 33 33 31
47 48 46 42 38 43 41 34 20 20 29 29 30 31 30 29 29 32 29 28 26 23 25 30 33 38 39 33 38 36 32 26 24 25 23 27 27 27 27 24 24 25 28 32 31
48 47 46 42 43 43 40 25 19 24 27 34 33 32 29 31 31 31 28 25 29 30 28 26 25 34 37 35 35 33 30 23 17 20 24 26 25 26 27 27 27 25 27 31 34
46 42 41 43 43 42 34 25 27 29 31 31 33 29 30 32 31 30 28 29 30 31 28 28 27 36 38 38 36 34 29 31 25 22 20 23 25 24 25 25 27 27 32 34 36
40 40 40 44 43 40 30 28 29 31 33 33 28 31 27 31 29 29 30 33 33 33 35 30 27 35 36 37 37 34 35 28 30 20 17 19 20 21 22 24 30 31 32 35 38
41 37 41 44 42 33 27 29 31 34 35 33 31 31 28 28 33 31 31 34 36 36 34 31 29 31 35 34 32 33 32 32 29 28 20 18 16 21 21 25 28 33 36 38 40
37 30 42 43 31 31 29 31 35 34 37 35 35 33 29 27 28 30 31 33 34 35 33 32 31 28 31 35 35 34 32 32 25 25 25 18 19 23 22 24 33 36 38 40 40
35 35 39 38 26 28 30 31 34 34 32 33 32 33 30 27 26 29 31 34 31 30 30 32 28 26 27 31 34 33 32 31 28 26 25 21 19 24 26 28 35 37 39 40 40
33 25 30 34 35 34 31 29 29 35 34 34 33 32 30 26 29 29 29 34 32 28 32 31 28 23 20 22 31 30 33 32 30 25 24 22 24 22 25 29 34 37 39 39 40
32 30 33 19 29 33 33 32 30 29 32 34 32 33 31 27 27 27 29 30 30 29 30 27 26 25 26 29 29 29 29 33 31 29 24 24 22 21 24 29 32 36 39 39 39
27 25 31 29 32 32 32 30 30 31 33 31 33 34 34 29 29 27 28 28 27 28 28 29 25 25 24 27 27 26 28 31 32 31 28 25 24 25 26 29 30 33 38 38 39
34 34 32 26 27 26 29 26 28 28 35 35 36 34 33 32 32 32 34 33 30 28 27 27 27 22 16 25 25 20 24 28 29 29 28 26 26 25 26 27 29 31 36 38 38

GFSSW_sfc_30mbdewp_084.txt.gz
Dewpoint
44 43 46 46 47 47 47 47 47 49 48 47 47 46 47 47 47 47 45 46 46 47 48 47 45 46 50 46 50 48 41 37 37 36 37 36 35 39 43 40 41 41 47 55 61
44 44 46 47 46 46 47 47 48 48 48 48 48 47 47 47 45 42 45 47 49 49 48 47 42 46 45 45 45 44 40 38 39 38 36 37 37 37 38 39 40 40 42 58 66
46 46 46 46 47 47 48 48 47 47 47 48 48 48 47 46 37 34 47 45 47 48 49 47 47 45 43 46 44 44 39 40 40 39 41 40 41 43 39 38 41 39 43 44 53
45 46 45 45 44 46 47 46 44 44 45 47 48 47 46 42 23 37 47 45 45 48 47 44 44 43 41 39 44 41 42 40 39 43 43 40 43 42 42 37 44 44 45 43 43
44 46 45 45 45 45 46 45 44 44 46 48 47 45 42 37 34 38 41 42 40 45 46 43 41 43 38 38 41 41 42 42 41 43 42 41 40 40 41 44 46 46 46 44 43
43 46 45 45 47 47 46 44 44 44 47 46 45 47 39 30 35 39 42 40 40 40 45 45 42 43 42 39 38 40 41 41 42 40 41 39 39 39 39 44 44 46 45 45 43
44 45 45 46 48 47 45 44 46 46 47 44 46 43 37 31 36 42 42 42 42 40 40 45 44 41 43 38 41 41 37 39 41 40 38 36 36 38 40 46 43 45 45 46 44
45 44 46 46 47 47 44 46 47 47 46 46 46 40 32 37 38 40 43 42 42 43 43 44 43 42 43 40 38 38 38 32 39 40 38 36 33 36 44 43 43 42 44 45 45
45 45 46 47 47 47 43 45 45 45 45 45 41 38 28 37 36 37 42 39 42 41 43 43 41 41 41 37 32 34 32 33 35 40 37 35 33 34 45 43 42 42 44 46 40
46 46 47 47 46 46 43 44 42 43 42 41 41 31 32 31 35 38 39 41 38 37 37 40 40 36 37 36 24 29 31 32 32 38 37 35 33 33 44 43 44 45 45 45 37
46 47 47 47 46 43 41 36 33 30 34 34 34 31 32 33 35 37 38 35 37 34 29 33 32 29 33 37 30 30 32 31 32 35 36 34 34 33 39 43 43 45 46 45 37
47 47 47 46 47 42 39 34 36 35 26 31 34 34 35 34 27 31 38 31 30 29 31 30 28 31 35 37 35 28 31 32 34 35 35 34 34 34 33 36 37 42 42 41 37
46 47 47 47 46 39 37 37 42 41 26 29 33 33 34 33 27 28 35 32 30 29 29 26 29 35 36 35 35 29 29 30 30 34 34 33 33 34 35 34 34 34 37 38 37
46 47 46 46 40 39 36 41 42 37 22 29 32 32 34 31 28 38 38 33 30 29 29 30 35 34 33 32 35 30 30 30 30 30 29 32 25 29 34 34 34 34 32 33 36
46 47 47 46 39 35 38 42 40 31 14 31 34 38 36 28 30 32 38 33 27 29 29 28 30 32 31 32 36 33 33 32 31 29 28 28 27 27 27 31 33 34 34 34 33
46 47 47 44 41 41 42 42 35 18 17 28 34 32 30 32 31 35 34 34 36 32 30 31 35 32 34 35 38 38 35 35 34 30 24 27 27 25 26 26 27 30 32 34 34
47 48 47 42 37 42 40 34 21 20 29 29 30 31 29 27 28 31 28 26 24 21 24 30 32 36 37 32 38 38 32 27 25 24 20 26 27 27 28 25 25 26 28 33 34
48 47 47 42 43 43 37 26 17 23 24 33 33 32 27 30 30 29 25 23 27 27 24 25 24 33 37 34 34 35 29 21 17 19 22 27 25 25 28 29 30 28 26 27 32
44 42 41 43 43 42 33 23 23 27 30 30 32 28 29 31 31 30 28 26 25 29 27 26 27 36 36 37 37 33 30 27 23 20 21 23 24 25 26 26 26 27 28 28 31
40 39 40 44 43 39 29 27 28 31 33 33 27 29 28 29 28 29 28 29 30 30 33 31 27 34 35 38 37 35 34 27 27 18 15 18 19 19 21 22 25 28 29 33 36
40 37 41 43 42 33 27 27 30 33 34 33 30 30 30 30 30 28 30 34 33 34 33 34 30 31 33 32 32 32 31 31 28 26 19 17 16 21 22 21 21 28 32 35 38
36 27 42 42 32 29 29 30 33 34 36 34 35 33 31 27 31 31 31 35 38 36 32 34 32 27 31 36 36 34 31 30 23 24 23 18 20 22 23 23 25 31 35 38 39
32 33 39 38 27 27 30 31 33 33 33 35 34 34 31 27 26 29 33 34 35 37 33 32 29 26 27 30 34 33 32 31 26 27 25 22 20 23 26 25 30 34 37 39 40
29 13 27 33 34 33 32 30 30 32 34 34 35 34 31 26 29 29 33 35 35 33 35 32 28 24 21 22 29 29 31 31 28 25 23 23 24 25 25 25 30 36 38 39 40
28 28 31 14 22 30 32 32 30 29 33 33 34 36 33 28 27 27 30 34 33 30 31 29 27 26 26 27 31 30 29 31 29 27 23 24 24 25 25 23 28 36 39 39 39
23 22 29 27 27 29 30 29 24 27 30 32 32 36 34 32 29 27 28 28 28 29 28 29 25 25 24 28 28 27 29 31 30 29 29 27 25 26 26 28 30 35 39 39 39
32 33 30 23 20 21 24 20 22 25 25 33 30 31 32 34 32 32 33 34 31 28 27 27 26 23 18 25 24 18 23 29 31 32 31 28 28 29 27 26 29 33 38 39 39

GFSSW_sfc_30mbdewp_087.txt.gz
Dewpoint
44 46 46 49 47 47 49 49 49 49 49 48 49 48 47 47 48 46 42 45 47 48 49 47 45 47 49 45 51 47 41 37 37 37 37 37 37 39 42 40 41 45 52 55 63
43 48 46 47 47 46 45 48 48 47 47 47 48 49 48 47 43 41 44 44 48 50 48 46 44 46 45 43 45 45 39 38 39 38 37 37 36 40 39 39 40 41 45 48 60
44 45 47 46 46 46 46 48 46 44 44 45 47 48 47 45 36 32 47 48 46 48 48 47 47 45 43 45 42 43 38 39 39 39 38 38 40 42 38 38 38 38 43 45 47
46 45 46 45 47 47 47 46 44 43 46 47 47 47 47 41 21 35 46 44 45 46 47 45 45 41 39 39 43 40 42 40 40 42 41 39 42 40 40 38 41 43 44 44 44
46 45 45 45 48 48 47 45 44 45 44 47 47 46 41 35 32 37 42 44 39 41 45 43 40 41 37 40 42 41 41 41 40 43 42 42 40 40 41 44 46 46 46 44 44
46 46 46 46 48 48 46 45 46 46 47 46 46 44 37 26 35 42 42 40 39 39 39 45 40 40 40 38 38 40 40 41 41 40 42 39 39 40 39 42 45 45 44 46 45
46 46 46 47 47 47 45 46 47 47 46 45 46 42 35 29 38 43 42 41 42 40 36 44 44 43 42 39 38 41 36 40 41 41 39 38 38 38 39 45 43 44 45 44 45
47 47 47 47 47 47 44 46 47 46 45 46 46 39 29 36 39 42 42 39 42 43 43 44 44 42 42 43 37 37 36 35 37 40 39 37 35 36 39 42 40 44 44 43 44
46 47 47 47 48 47 43 44 45 45 45 45 41 37 28 39 36 39 41 37 40 41 43 43 42 40 40 37 33 35 31 32 34 40 37 36 34 35 39 43 38 42 42 41 43
47 47 48 47 47 47 42 45 43 43 41 41 40 30 31 30 35 37 40 41 38 37 39 39 39 35 36 32 25 27 30 32 31 38 37 35 33 33 39 42 39 42 44 41 41
46 47 47 48 47 43 40 36 33 29 34 31 33 31 32 34 37 37 39 36 37 33 27 33 30 30 33 34 33 30 32 31 33 37 36 33 34 34 39 43 41 42 45 44 43
46 47 47 48 46 42 38 33 35 35 26 31 33 33 34 35 28 33 37 32 31 29 31 29 27 33 34 35 36 30 30 31 33 35 37 34 33 35 35 42 42 42 44 43 42
47 47 47 47 46 39 37 37 42 40 26 29 32 32 33 34 26 28 35 31 30 29 29 26 30 31 35 33 32 31 31 31 30 34 33 34 33 34 35 35 40 41 44 42 40
47 47 46 46 39 38 35 41 41 34 21 26 32 31 34 32 27 38 38 32 30 28 30 30 35 31 34 33 33 28 32 31 33 32 28 32 25 30 34 34 34 37 37 41 40
46 46 48 46 39 35 39 41 39 29 14 30 32 38 35 28 30 32 38 34 27 29 29 28 33 33 30 32 33 34 30 30 31 30 28 30 28 27 29 33 34 35 34 34 37
47 46 48 43 40 41 42 40 34 19 16 28 34 31 30 31 30 33 33 33 35 31 30 29 34 33 33 35 34 35 33 32 32 28 25 27 28 25 26 27 32 34 35 35 34
46 48 46 41 37 42 39 33 21 18 26 29 30 31 29 26 27 30 28 26 23 20 22 30 30 36 35 30 33 32 30 25 22 22 20 25 28 26 28 28 27 28 32 34 35
48 48 46 42 43 42 35 25 16 21 24 31 34 32 27 29 28 27 23 22 25 26 23 24 21 30 36 32 31 33 28 20 16 18 21 27 25 23 28 29 28 28 27 28 34
46 42 43 43 43 43 32 22 20 25 29 31 33 28 29 31 31 28 25 24 23 26 25 27 26 33 35 35 34 33 28 25 22 20 21 23 24 24 26 27 27 27 27 28 28
39 39 40 43 44 38 29 25 27 30 33 33 27 30 28 30 28 28 27 28 29 27 31 31 26 33 35 36 37 35 34 26 24 18 15 19 20 17 21 22 23 24 28 29 33
40 37 41 44 42 33 27 27 29 32 33 33 31 30 31 30 30 28 29 31 30 31 30 34 31 30 34 31 31 33 31 28 27 24 17 15 15 21 21 20 21 22 27 31 36
36 18 42 42 32 28 27 29 32 33 36 34 35 33 32 31 30 30 29 32 35 33 30 32 32 27 29 35 37 35 31 28 22 23 20 20 17 21 22 24 25 26 33 36 38
27 32 39 39 27 29 30 30 32 31 33 34 34 35 34 30 29 31 33 36 37 33 32 33 29 25 27 30 35 32 33 29 27 27 23 20 19 23 25 26 29 32 36 38 40
24 8 25 32 32 27 27 28 30 32 32 34 34 36 33 29 29 31 32 37 38 37 38 35 29 24 19 20 28 29 31 29 27 25 24 24 22 23 25 25 25 31 37 39 40
25 25 29 11 17 26 29 29 21 22 26 29 32 30 28 30 27 29 33 33 37 36 35 32 29 26 27 27 30 29 30 30 28 27 23 23 24 24 25 26 25 30 38 38 39
20 21 28 25 26 23 24 22 20 21 24 23 28 27 30 28 31 31 31 32 32 34 33 29 26 25 25 28 29 28 29 30 30 29 28 27 26 27 27 27 28 32 38 38 39
31 33 27 22 20 19 20 20 21 23 24 25 25 27 29 32 35 36 34 33 32 32 32 27 27 24 21 25 24 17 22 28 30 31 29 27 27 28 27 27 27 30 37 39 39

GFSSW_sfc_30mbdewp_090.txt.gz
Dewpoint
44 45 48 48 48 46 46 47 48 48 47 47 47 48 49 48 48 43 38 39 44 48 49 48 46 47 48 46 49 48 41 36 31 31 31 36 36 39 39 38 40 49 48 58 61
47 46 48 48 46 47 47 47 47 47 43 44 46 48 48 47 40 36 38 46 45 47 45 45 45 46 43 42 46 41 38 34 34 34 34 35 37 37 37 37 39 43 47 60 63
46 46 46 47 45 49 47 48 46 44 45 44 47 48 46 45 35 30 47 46 48 46 47 46 48 46 40 41 40 40 32 35 36 39 38 36 37 37 36 35 36 37 45 54 53
46 46 46 46 46 49 48 47 44 45 45 46 47 48 47 40 24 35 45 45 44 45 48 43 42 42 39 36 38 36 36 35 38 41 40 37 36 37 36 34 38 37 44 48 50
47 46 47 47 47 48 48 45 46 46 46 47 47 47 40 33 29 36 42 43 38 43 45 43 40 40 37 36 37 36 34 38 38 40 41 39 38 36 37 39 41 42 44 44 45
47 47 47 47 47 47 47 46 46 47 47 46 45 43 35 25 34 41 40 38 37 37 39 46 40 40 38 36 36 33 34 37 38 39 42 38 37 39 38 42 42 43 44 44 43
47 47 47 47 47 47 46 47 47 46 46 46 45 40 33 29 36 41 41 39 39 38 35 42 44 42 39 38 38 34 32 38 39 35 37 41 37 38 37 42 41 41 41 44 44
46 47 47 48 47 47 46 46 46 45 45 47 45 39 30 35 38 40 40 37 38 39 39 43 45 42 41 40 37 33 32 30 35 37 36 37 31 36 38 39 40 40 40 41 42
46 47 47 48 48 47 45 45 46 45 46 45 40 37 29 41 36 37 40 36 37 39 41 42 43 40 39 34 34 32 25 25 31 38 37 36 29 34 38 39 38 37 39 41 41
46 47 48 48 48 47 43 45 43 42 40 40 39 33 31 29 34 37 39 39 37 37 38 39 40 36 36 32 27 26 24 24 27 36 37 35 31 34 36 38 37 35 36 39 40
46 47 47 48 47 43 40 37 33 31 34 29 30 30 30 33 36 36 38 37 36 33 29 34 32 30 32 34 34 23 23 23 26 35 35 31 31 32 34 37 35 34 37 39 39
46 46 47 47 47 42 39 33 34 37 27 32 33 33 33 35 28 33 37 32 29 27 31 30 28 31 30 33 35 32 22 26 25 36 34 31 31 33 34 34 34 34 33 36 41
46 47 47 47 46 39 37 37 42 41 28 28 31 30 31 34 27 28 35 31 27 26 29 28 28 30 32 34 32 31 23 24 28 34 35 32 31 30 32 35 35 37 37 36 41
46 47 46 46 40 39 36 41 42 37 26 27 31 32 33 33 26 36 37 31 28 27 31 29 35 31 33 31 33 29 25 29 28 28 25 33 19 26 30 32 34 35 37 39 41
46 47 47 46 40 37 39 41 40 33 18 32 32 37 34 29 29 32 38 33 25 23 32 29 33 32 32 31 34 33 32 28 29 27 28 30 27 22 29 30 32 33 35 36 39
47 46 47 43 41 41 43 42 37 26 19 29 34 32 29 30 29 32 32 33 34 30 30 30 36 35 32 36 36 36 32 31 30 29 25 22 25 17 23 26 29 32 33 35 36
46 47 48 42 38 42 41 36 28 22 27 29 31 31 30 28 27 28 26 27 23 23 25 28 31 35 34 32 34 32 30 25 23 23 17 22 26 20 24 28 27 28 30 34 35
48 49 45 42 43 41 37 30 20 23 27 29 33 33 27 30 28 26 24 22 25 25 25 22 21 31 34 31 30 31 31 19 12 13 13 27 22 19 25 26 28 29 28 30 35
46 44 44 44 43 43 35 28 25 28 30 32 33 29 30 30 31 28 25 22 19 24 25 26 26 33 33 34 33 33 29 27 23 23 17 19 23 24 25 27 28 29 28 29 30
41 41 42 44 44 38 32 28 29 30 32 34 29 30 28 30 27 28 27 26 25 21 30 32 26 30 35 35 35 32 36 26 28 19 13 19 18 8 21 23 23 23 26 29 30
41 37 43 44 43 35 30 30 29 30 33 33 31 30 31 31 30 28 30 30 27 23 27 32 31 29 34 31 30 31 31 29 27 26 15 15 15 21 21 23 23 23 25 28 31
39 23 43 43 34 30 25 25 32 31 34 34 35 33 32 33 31 30 29 33 29 28 27 29 32 26 30 34 33 35 31 28 25 24 22 22 16 21 23 26 27 28 32 34 35
30 35 39 41 26 22 24 26 31 24 29 28 33 36 34 32 29 32 31 37 32 31 31 33 31 26 27 32 35 32 33 29 28 29 24 18 16 23 24 26 27 29 33 37 38
25 16 26 32 29 25 25 24 20 21 28 22 32 29 28 32 31 31 32 37 36 34 37 37 30 26 21 22 29 30 32 30 29 26 24 23 21 23 23 26 26 27 34 37 39
27 25 28 18 21 24 27 24 19 20 22 25 24 23 28 27 30 31 32 35 36 37 37 34 30 27 28 28 29 30 30 30 28 28 25 23 24 23 23 25 26 29 35 37 39
25 26 28 24 25 21 21 19 20 21 22 22 22 25 31 28 29 27 30 32 31 36 35 35 29 27 25 28 29 28 30 31 30 29 27 26 25 26 26 27 27 28 34 36 38
33 34 28 22 21 20 21 21 21 23 22 24 24 27 29 31 30 31 34 36 35 35 32 30 29 27 24 25 24 20 22 29 30 31 29 27 27 28 27 27 28 29 33 37 37

GFSSW_sfc_30mbdewp_093.txt.gz
Dewpoint
45 46 46 49 48 46 49 47 48 49 46 44 45 46 48 49 48 43 37 38 43 46 48 43 44 43 45 44 44 47 43 37 31 27 26 32 30 32 34 36 37 46 48 55 58
46 46 46 47 47 47 49 48 48 45 44 45 45 47 48 48 42 37 41 45 47 46 45 42 38 42 43 41 43 42 40 37 33 29 27 31 33 35 35 35 39 42 55 57 60
46 47 47 46 47 47 50 48 47 45 46 46 47 48 47 45 36 32 46 47 45 49 43 44 44 44 41 38 39 39 36 37 33 32 40 36 35 37 35 33 35 38 51 59 63
47 47 47 47 47 47 49 48 46 46 47 47 47 48 46 40 27 33 43 44 44 45 44 42 41 40 39 38 34 35 34 32 34 44 40 38 39 34 36 35 36 37 45 54 58
48 48 47 47 48 47 48 46 46 47 47 47 46 47 44 34 30 35 41 41 38 40 43 42 39 38 37 37 34 32 32 31 34 41 43 41 38 36 35 37 37 37 43 47 52
48 47 48 47 47 47 48 46 47 47 46 46 46 46 37 28 33 38 38 36 34 36 40 44 40 39 38 38 36 30 32 32 32 41 41 39 36 34 36 36 38 39 42 42 46
47 47 48 48 48 48 47 46 47 46 46 46 45 39 33 28 33 37 38 37 35 36 36 40 44 42 38 37 37 35 31 32 34 32 38 37 33 33 35 38 39 38 39 42 43
47 48 48 48 48 48 47 45 46 45 45 47 45 37 30 35 36 36 37 35 36 36 35 40 45 44 39 39 35 33 33 26 30 32 32 36 29 30 34 35 38 36 37 41 42
46 47 47 47 48 48 47 43 45 46 46 45 40 36 27 41 34 34 36 33 35 36 39 38 42 38 39 37 34 34 32 24 24 34 30 35 29 26 32 35 36 36 36 37 40
46 47 47 48 48 46 43 44 44 43 41 37 37 33 30 28 32 33 36 36 33 33 36 37 37 35 35 33 27 30 29 23 21 32 32 31 29 27 33 34 33 34 34 36 37
45 47 47 48 48 44 40 38 34 33 33 28 28 26 28 30 34 33 35 35 33 31 29 35 31 29 32 35 30 33 26 20 19 28 29 31 28 28 33 34 33 32 32 33 36
46 47 47 48 47 43 38 32 34 38 26 30 31 32 31 33 26 29 35 30 27 24 31 30 27 29 32 33 35 33 30 22 18 30 30 30 29 28 31 33 33 32 30 32 34
46 47 47 47 46 41 36 35 40 39 28 28 30 29 29 32 26 26 32 28 24 21 26 26 28 28 30 34 32 32 29 25 19 30 32 30 27 28 29 31 32 32 31 31 31
46 47 47 47 43 40 37 39 41 39 28 28 30 32 32 31 25 29 32 29 24 23 30 29 30 30 32 33 32 30 28 28 23 28 22 29 22 23 26 28 29 32 31 32 32
46 47 47 47 41 39 40 40 40 36 20 31 32 35 34 29 28 30 35 30 23 24 27 30 30 28 29 31 33 33 35 26 28 26 24 26 22 18 23 26 28 30 30 31 34
46 47 47 43 42 41 41 41 38 27 22 30 33 33 33 33 27 29 30 32 30 25 30 32 37 34 33 32 33 36 34 34 29 27 25 23 20 13 23 24 26 28 29 30 33
46 46 47 41 40 42 41 37 28 23 28 30 30 33 31 30 29 25 24 25 24 24 26 31 33 37 37 32 34 33 32 26 23 24 16 18 22 18 21 24 24 27 29 30 33
48 48 45 42 42 42 39 33 25 22 28 28 30 33 29 31 30 25 23 22 24 22 24 22 23 33 36 33 31 31 32 25 17 18 16 22 17 18 21 23 26 27 28 29 32
49 46 43 44 43 43 35 27 25 25 24 31 30 30 31 31 31 28 26 23 18 22 26 23 26 35 33 34 33 31 28 30 24 17 16 18 17 22 24 25 27 27 28 29 31
41 41 42 44 44 40 33 25 20 27 30 31 28 28 26 29 28 28 27 25 18 18 28 32 25 29 34 33 34 32 34 26 27 17 13 15 10 14 21 23 25 26 27 29 29
41 36 43 44 44 35 27 23 24 30 31 28 25 27 31 30 30 29 29 28 22 18 25 32 31 29 32 29 29 30 30 33 28 27 14 15 12 21 21 23 23 24 25 26 29
37 32 43 43 34 32 22 22 28 22 27 30 34 34 30 32 31 30 30 31 25 22 25 33 32 27 30 34 31 33 31 28 24 23 24 24 17 23 25 26 26 27 31 32 33
24 35 41 41 23 23 20 23 20 20 25 21 29 30 27 31 30 34 31 36 32 26 33 35 31 26 27 32 35 32 33 34 28 30 25 21 17 22 26 26 26 27 31 34 36
24 31 26 26 24 22 22 22 18 21 22 25 24 27 26 27 33 32 31 36 33 32 38 38 34 29 24 26 29 30 32 29 31 25 21 22 20 21 22 25 25 27 30 34 37
28 30 25 18 20 21 22 22 19 20 21 22 23 23 29 26 25 28 32 34 37 37 37 37 32 28 27 28 28 31 31 29 28 27 24 23 23 21 22 25 25 27 31 34 37
23 27 24 20 22 20 19 18 20 22 22 20 22 25 29 28 29 28 30 32 32 36 35 35 30 27 27 28 28 28 29 30 29 28 27 26 26 27 27 27 26 26 30 33 36
33 32 27 21 20 19 19 20 21 23 22 23 25 26 28 29 27 29 31 33 35 35 34 30 28 27 25 25 25 24 27 29 29 30 29 27 28 28 27 27 28 28 30 32 35

GFSSW_sfc_30mbdewp_096.txt.gz
Dewpoint
45 47 47 46 48 48 48 51 49 49 46 45 45 46 48 48 49 45 41 41 44 48 52 45 42 41 43 44 46 47 43 39 38 33 30 30 30 32 33 35 40 49 54 63 65
45 47 47 48 47 48 48 50 49 47 46 46 47 46 47 48 44 40 43 45 45 46 44 41 42 38 40 42 43 43 40 39 40 36 31 34 30 32 34 36 42 53 55 63 64
46 49 48 48 47 47 48 49 48 46 47 47 47 47 47 46 40 37 45 46 47 44 45 40 45 42 38 42 41 41 38 40 40 37 43 41 36 32 34 35 40 50 55 60 63
47 48 48 48 47 49 47 48 46 46 47 47 47 48 47 44 29 35 39 41 43 41 43 39 43 40 40 38 40 38 37 37 39 44 46 42 44 42 36 34 39 49 56 61 63
47 49 49 48 48 47 48 47 45 48 47 47 47 48 45 38 32 36 40 38 38 36 42 41 40 38 36 35 38 36 34 34 36 41 44 44 41 41 42 39 37 48 54 57 62
47 48 48 48 48 48 48 46 46 47 46 46 45 47 42 31 32 36 37 35 35 34 37 42 41 43 33 36 37 38 35 33 34 39 43 42 42 42 42 40 38 42 46 51 54
47 47 48 48 48 49 48 46 47 45 45 46 46 43 36 31 31 36 36 35 34 34 37 39 42 42 41 35 39 39 35 33 36 40 43 43 39 42 44 39 37 38 41 43 49
46 47 48 48 48 48 48 47 46 46 45 47 46 41 34 34 36 34 35 33 35 35 35 39 44 40 40 40 36 37 34 33 35 37 40 41 36 39 41 40 38 38 38 41 44
45 47 47 48 48 48 47 45 44 46 46 46 41 38 32 39 33 33 34 32 33 34 38 36 40 37 38 37 33 35 30 31 29 33 32 38 34 34 35 34 38 38 37 40 42
47 46 47 48 49 48 45 42 44 44 43 38 36 33 34 29 31 32 34 34 32 32 34 35 36 34 32 32 25 27 29 28 26 27 33 29 29 29 29 32 33 36 35 36 41
46 47 47 48 48 46 41 41 38 36 35 30 29 28 27 30 32 32 32 32 32 30 28 35 30 28 31 32 35 32 28 26 25 27 28 31 31 30 29 31 32 34 35 35 35
45 46 47 47 48 47 41 35 37 38 28 30 29 30 30 31 26 28 33 29 28 26 32 30 25 26 32 33 35 33 33 26 27 28 29 31 31 30 29 33 33 33 33 32 33
44 46 47 47 47 45 38 37 40 39 31 28 29 29 31 31 27 25 31 28 25 22 23 26 26 29 30 32 32 32 31 30 31 28 32 29 30 30 28 31 33 34 33 32 32
45 46 47 47 45 40 38 39 40 39 27 28 30 32 34 31 27 28 30 29 25 23 26 28 27 31 29 33 34 28 32 31 29 28 30 34 26 33 33 30 32 32 32 32 31
46 46 47 46 42 39 40 40 39 37 21 31 32 34 36 33 29 30 32 31 26 25 27 28 30 28 32 33 34 31 36 34 35 29 27 29 26 29 31 26 28 30 32 32 32
46 46 46 45 42 40 41 41 39 28 19 29 32 32 34 34 32 30 30 31 29 26 28 31 36 36 32 35 34 36 35 34 35 32 26 29 23 17 21 25 27 29 30 32 32
46 46 46 42 40 42 41 39 28 22 29 26 26 34 32 30 31 26 24 24 24 23 26 32 34 37 36 33 35 33 32 26 24 24 23 27 23 18 19 24 26 27 30 31 31
48 46 45 42 42 42 41 34 22 22 23 25 27 33 30 31 30 27 22 23 25 23 26 23 24 33 36 34 31 31 31 26 17 19 18 23 26 21 22 24 26 27 29 30 31
49 46 44 44 44 43 37 28 20 24 27 29 30 29 31 31 31 30 25 25 20 21 27 24 26 34 36 36 34 31 28 34 29 21 20 18 16 18 24 25 26 27 28 29 32
46 43 43 45 45 42 32 23 21 29 26 27 25 24 28 30 28 29 28 26 16 19 30 31 25 30 33 32 34 32 33 28 30 22 20 17 14 16 22 23 26 27 28 29 30
44 39 43 44 44 37 25 21 24 25 26 32 28 29 29 30 31 28 30 27 20 17 25 31 30 30 31 28 28 29 29 32 31 26 20 15 16 22 23 24 24 24 26 29 30
40 35 43 44 36 34 23 22 24 20 25 27 33 32 27 30 31 30 29 30 24 20 24 34 32 25 28 31 31 31 28 31 27 23 28 26 19 26 26 26 27 30 30 31 32
32 37 42 41 22 23 21 22 19 20 24 23 27 26 27 31 30 31 32 35 34 24 35 35 31 26 27 32 34 32 31 33 32 30 25 26 19 26 26 26 26 28 33 34 35
29 29 31 35 24 22 24 22 19 22 21 22 22 26 29 27 31 31 31 35 36 36 39 38 33 29 26 27 30 29 29 31 31 25 24 29 20 22 24 25 27 28 32 36 37
30 33 29 25 22 20 20 21 19 20 21 21 23 26 28 26 28 29 32 35 35 37 37 36 31 32 27 28 30 30 31 31 29 28 24 25 23 24 25 25 25 28 31 36 38
27 23 24 20 21 20 19 20 20 22 21 20 22 26 29 27 28 28 29 32 32 35 35 36 31 28 26 28 28 29 31 30 30 29 27 27 27 27 27 27 28 28 31 33 37
33 32 28 21 20 19 20 20 21 22 22 22 25 25 27 28 27 28 30 31 33 34 35 32 33 28 27 26 25 25 28 30 30 30 29 27 29 30 29 29 28 30 30 32 35

GFSSW_sfc_30mbdewp_099.txt.gz
Dewpoint
48 47 48 48 48 47 48 49 51 49 48 47 46 48 46 48 48 47 44 43 45 46 48 47 45 43 42 43 44 46 41 39 38 36 36 35 31 32 35 39 51 55 59 61 64
48 47 50 49 48 48 48 48 50 48 46 47 48 47 48 47 46 44 44 45 45 46 43 43 41 44 39 42 42 43 40 38 41 40 38 41 34 33 40 46 53 58 63 64 64
47 48 49 49 48 47 49 48 49 46 45 48 47 48 47 47 42 40 45 45 45 44 42 44 41 42 39 39 40 40 39 40 42 41 45 42 38 42 39 43 52 56 61 63 64
46 48 49 49 48 48 48 48 47 46 48 48 47 47 48 45 31 37 40 40 42 42 41 43 41 40 37 36 40 39 39 40 39 47 46 42 44 42 43 41 53 57 62 63 64
47 47 48 48 49 48 49 49 47 46 47 47 47 48 46 41 36 38 38 36 37 37 39 41 40 37 36 37 38 38 39 38 38 46 46 46 44 44 45 45 48 58 61 62 62
46 47 47 48 48 48 49 49 46 46 47 47 46 47 43 35 32 36 36 35 34 35 38 41 40 42 39 34 34 40 38 37 36 44 45 45 45 46 44 45 47 56 59 61 62
46 47 47 48 48 48 49 48 46 46 46 46 46 43 40 36 32 37 36 34 34 34 34 40 42 40 40 33 36 39 36 35 40 43 43 44 43 43 47 48 47 49 54 58 61
45 46 47 47 48 48 48 47 47 46 47 46 46 43 35 35 37 35 35 33 35 36 38 44 42 40 38 39 38 37 36 32 36 40 42 41 36 43 47 49 46 45 46 53 57
45 46 47 48 47 49 48 46 44 45 47 46 43 40 32 38 34 33 34 33 33 37 38 41 39 38 38 32 33 34 30 32 32 37 44 39 37 42 45 48 46 45 39 48 50
46 47 46 47 48 49 47 45 43 45 43 42 40 33 35 30 32 32 34 34 33 32 35 36 36 33 33 31 25 28 29 31 31 33 40 38 35 36 46 46 45 42 40 42 43
46 46 47 47 48 48 46 39 37 37 36 32 31 30 28 32 32 32 33 33 33 31 28 33 28 25 31 32 32 31 31 31 28 29 37 35 35 35 39 43 43 42 41 37 42
46 44 46 47 47 47 44 37 38 37 26 31 33 29 30 32 29 29 32 30 28 27 31 28 24 26 33 32 32 32 31 28 28 27 28 31 32 33 30 31 36 38 37 35 37
45 45 46 47 47 45 39 38 40 39 33 29 30 29 33 34 29 28 32 30 28 26 25 24 24 26 30 32 30 31 31 28 27 29 30 29 29 32 32 30 34 34 34 34 33
45 46 47 47 46 42 39 40 40 39 26 28 30 32 36 36 29 31 32 29 28 25 27 26 31 27 29 31 32 29 36 32 31 29 26 34 24 30 32 30 32 33 33 33 32
46 46 46 46 43 38 40 41 40 37 13 28 32 34 37 34 34 30 34 31 27 26 28 25 30 29 31 33 33 32 36 34 33 32 29 33 30 29 32 30 31 31 33 33 32
46 46 47 45 44 41 41 41 39 24 11 28 32 32 34 34 33 32 32 32 31 26 29 30 34 36 33 35 37 36 36 36 35 34 25 30 30 19 29 31 31 31 32 32 32
46 46 46 44 41 41 42 39 24 16 23 23 27 33 32 30 31 29 25 26 23 23 25 30 32 37 36 33 35 34 32 26 24 25 22 30 28 22 26 28 30 29 30 32 32
46 46 45 43 42 43 41 31 16 20 21 28 29 32 30 31 30 30 24 22 25 27 25 22 23 33 36 33 30 31 30 25 19 20 20 28 24 23 23 25 28 28 30 31 32
48 47 44 44 44 43 35 19 18 27 26 27 28 27 30 31 31 29 25 24 24 26 27 25 26 36 35 35 34 31 28 33 28 25 20 25 22 20 25 25 26 28 29 30 31
47 43 42 45 45 42 27 20 23 26 23 29 25 25 26 30 28 27 27 27 22 20 31 30 25 30 34 33 34 32 33 27 28 20 17 17 16 15 22 23 26 27 28 29 31
45 40 43 44 44 34 19 20 24 23 26 29 29 29 27 29 31 27 28 27 20 19 24 31 27 29 31 29 27 28 28 32 32 27 20 16 16 24 24 24 25 26 27 29 30
42 33 43 44 27 32 19 22 23 21 24 28 30 30 27 28 31 28 28 31 34 20 30 34 30 23 26 36 31 30 27 32 26 25 28 23 19 26 26 27 29 30 30 32 32
37 35 43 41 15 22 21 22 20 22 22 23 24 27 27 30 29 29 31 34 35 34 33 34 30 23 26 30 32 31 31 33 33 30 28 26 20 26 26 26 28 31 33 34 35
31 24 33 37 24 23 24 22 21 22 22 22 25 28 28 30 32 30 29 34 37 36 38 38 32 29 21 23 29 28 30 31 31 24 29 29 23 24 25 26 28 30 34 36 37
32 29 29 24 21 22 23 21 21 20 21 22 24 28 27 26 28 29 31 34 34 36 35 36 30 32 30 30 30 29 29 31 30 27 25 28 24 26 25 25 26 29 35 37 37
25 17 25 20 20 21 21 20 21 22 22 21 23 26 28 27 28 28 29 32 32 33 33 35 29 30 27 28 30 30 31 31 31 30 29 28 27 29 27 28 28 29 32 36 38
33 32 22 22 20 20 20 20 21 23 22 23 25 24 27 28 28 28 30 30 31 33 33 32 32 29 26 26 25 24 28 31 30 30 29 27 29 30 29 29 30 30 30 33 37

GFSSW_sfc_30mbdewp_102.txt.gz
Dewpoint
47 48 48 50 49 47 48 49 49 50 49 46 48 49 48 48 48 47 44 44 45 46 46 44 42 42 44 41 44 44 39 34 38 39 38 37 35 33 36 39 50 56 58 61 64
47 48 48 49 50 48 48 50 48 49 46 45 48 48 48 48 46 44 46 47 47 46 43 42 37 39 41 40 41 40 36 35 39 41 39 43 37 34 44 50 55 59 62 64 64
46 48 48 49 49 48 48 48 48 46 48 48 47 48 48 48 42 40 45 45 45 45 43 41 40 39 39 39 38 39 35 37 42 42 44 44 43 44 45 47 54 56 61 63 64
46 46 48 49 49 49 48 49 48 44 46 47 47 48 48 46 29 37 40 40 40 42 41 39 40 39 36 35 37 35 39 38 43 46 47 45 47 45 42 44 51 60 61 63 63
47 45 47 48 48 48 49 49 48 46 47 47 47 47 46 41 39 40 38 38 36 37 37 40 39 38 35 37 36 38 37 38 41 46 46 47 45 45 42 47 48 58 60 61 62
46 47 47 48 48 48 49 49 47 46 46 47 47 47 42 35 34 36 36 34 34 34 35 41 40 39 37 37 36 38 39 38 38 44 46 45 46 47 46 49 49 54 56 60 60
46 47 47 48 47 48 48 48 47 46 47 46 47 44 40 35 34 37 36 34 35 35 34 39 42 40 38 36 38 36 36 36 36 42 43 45 44 43 48 49 46 46 52 58 60
47 46 48 47 48 48 49 48 47 46 47 47 46 43 36 36 36 36 35 34 35 37 38 43 41 40 38 39 38 36 36 31 38 42 44 43 36 44 49 48 46 47 47 52 59
45 47 47 46 47 48 48 47 46 43 46 47 43 40 34 38 34 34 34 33 34 37 38 41 39 38 37 32 32 34 30 32 34 41 42 39 38 43 48 48 45 47 46 45 55
47 46 47 47 47 48 48 46 45 45 43 43 41 35 32 31 32 32 34 34 33 33 35 34 35 32 33 30 24 27 30 32 32 37 41 37 36 42 47 47 46 47 46 46 47
46 47 46 47 47 48 46 39 35 36 37 32 32 30 31 33 33 31 33 34 34 31 27 32 25 21 30 32 32 30 32 30 31 36 39 37 34 41 46 45 45 46 46 45 43
45 47 46 47 47 48 44 37 37 36 24 31 31 33 30 32 30 30 33 28 29 27 31 26 24 28 27 33 31 31 30 30 32 32 36 36 35 39 45 44 45 44 45 45 42
46 46 47 47 47 45 39 38 40 39 30 30 31 30 34 35 32 30 31 30 27 26 26 24 24 27 28 32 30 30 30 30 31 33 35 34 34 36 39 42 44 46 46 43 37
45 47 46 47 45 43 38 40 40 38 25 28 30 33 36 35 31 33 33 29 28 25 26 25 30 30 27 31 32 27 34 32 31 32 29 35 26 33 37 35 35 40 44 41 37
45 47 45 47 43 38 40 41 40 35 -0 22 32 37 37 34 34 31 34 30 26 24 27 22 28 30 30 29 33 31 37 33 31 30 30 32 24 28 32 32 31 31 35 35 33
45 46 47 45 44 40 41 41 37 17 4 26 33 33 34 33 31 34 31 32 31 27 28 30 34 33 34 35 35 37 36 35 34 31 24 30 26 23 29 29 30 31 32 33 33
45 46 47 46 40 42 42 37 18 8 20 20 27 33 32 30 30 30 25 25 23 22 23 29 31 37 36 32 34 34 32 25 24 24 22 32 30 27 27 30 30 30 31 33 33
46 46 46 43 42 43 39 22 7 20 22 26 29 32 30 30 29 30 25 22 29 27 24 24 23 33 35 32 29 31 30 25 19 19 23 30 25 23 25 26 32 32 31 32 33
47 46 44 44 44 42 32 13 18 25 25 23 26 24 28 30 28 26 25 23 26 28 26 24 26 35 35 35 34 30 28 33 26 23 23 27 25 23 25 26 26 30 30 31 32
46 44 42 45 44 40 23 17 26 24 25 30 25 28 25 28 27 25 27 26 22 27 35 30 24 31 34 34 32 32 34 27 27 19 17 22 16 16 22 25 27 27 28 29 31
44 40 42 44 42 26 16 20 24 21 26 28 28 29 26 28 29 26 27 28 30 19 30 33 25 28 30 28 27 30 29 31 30 26 18 16 16 24 24 24 26 27 28 29 31
42 34 43 43 28 27 19 22 23 21 24 31 29 28 27 29 30 27 28 30 35 30 31 33 27 23 25 33 32 28 27 32 23 25 26 19 20 25 26 28 29 30 31 33 31
38 34 42 38 19 20 21 21 21 23 22 24 23 27 27 30 28 26 29 32 37 34 32 33 28 22 23 29 31 30 31 32 31 28 27 21 21 26 26 27 30 32 33 34 35
32 19 33 34 24 22 22 20 20 22 22 22 26 28 28 30 31 29 27 32 37 38 38 38 32 26 19 21 28 28 30 32 28 24 28 27 26 24 24 26 27 32 35 36 36
34 24 27 21 21 22 24 21 21 19 21 23 27 28 27 26 28 28 30 31 32 35 34 35 29 31 30 30 30 28 28 30 29 31 29 29 28 26 25 25 26 29 35 36 37
30 22 23 22 22 21 22 20 21 22 21 21 24 26 28 27 28 27 29 29 30 32 32 34 29 29 27 27 30 30 30 30 32 30 31 32 29 30 29 29 29 30 34 36 37
34 31 20 22 20 20 19 21 21 23 22 24 25 24 27 28 29 28 29 31 31 32 32 32 30 28 23 25 25 24 29 30 31 30 29 28 28 30 29 29 30 30 30 33 37

GFSSW_sfc_30mbdewp_105.txt.gz
Dewpoint
46 48 49 49 50 50 48 49 50 49 50 47 46 47 47 48 48 46 44 43 47 49 47 44 41 40 42 42 42 42 36 32 32 35 40 41 38 37 36 38 45 53 57 61 66
46 47 48 48 50 50 49 48 49 49 46 47 46 48 47 48 46 44 45 47 48 48 43 40 39 38 37 40 40 37 35 33 35 35 40 45 43 37 37 41 49 57 62 64 65
46 48 48 49 50 49 49 49 49 49 45 47 47 47 48 48 42 40 46 46 44 43 44 41 41 37 36 39 38 36 33 38 36 39 44 45 46 45 42 38 50 54 60 63 64
46 47 47 48 48 49 49 49 49 48 45 47 47 48 48 45 27 38 41 40 40 40 42 39 41 37 35 35 38 35 36 37 38 41 42 44 48 46 44 44 47 50 61 62 63
46 46 48 48 48 49 49 49 50 47 47 48 47 46 45 41 39 39 38 37 35 37 37 38 39 38 34 34 35 36 33 35 38 39 45 45 46 47 43 47 51 54 60 62 62
47 47 48 48 48 48 49 48 49 47 46 47 47 46 42 34 36 37 36 34 34 34 34 39 39 39 36 36 34 38 36 33 36 40 41 42 44 48 47 48 50 55 57 59 61
47 47 47 48 47 48 48 49 48 47 46 47 47 45 40 33 35 36 36 35 35 35 34 38 42 39 39 35 38 38 36 36 35 38 41 42 38 45 49 47 47 48 50 55 59
48 46 47 48 47 47 48 49 47 46 45 47 46 42 33 39 36 34 35 34 35 37 38 42 40 39 38 38 35 34 35 29 33 36 42 39 33 43 49 46 46 47 47 48 53
48 46 47 48 47 47 49 48 47 45 44 47 43 40 33 37 34 34 34 33 34 36 39 40 39 37 37 31 28 33 27 31 31 39 42 38 34 41 50 48 45 46 46 46 47
48 47 47 46 47 48 48 46 45 45 43 44 42 36 32 31 32 32 33 34 32 33 34 32 33 31 32 29 20 27 28 31 30 38 39 37 36 40 44 48 46 46 45 45 45
47 46 46 46 47 48 46 38 36 35 37 32 32 31 31 33 34 31 32 33 33 32 27 31 25 22 23 32 31 30 30 30 32 38 38 37 35 37 41 41 46 45 44 44 45
48 46 47 46 48 48 43 36 36 35 26 31 33 33 33 34 30 31 33 29 29 27 30 25 22 27 28 33 32 30 29 30 32 34 36 37 35 38 40 40 46 45 44 44 45
47 46 46 47 47 45 39 38 40 39 29 29 31 30 34 36 33 31 32 30 28 26 26 24 22 27 26 31 30 30 29 31 31 37 37 36 35 38 42 43 44 46 45 45 46
46 46 46 47 44 43 38 39 40 36 22 26 30 33 36 35 30 34 33 30 27 25 27 25 28 30 27 30 31 27 32 32 32 32 29 36 27 35 38 40 42 43 44 44 45
47 46 46 47 43 40 40 40 39 31 3 17 32 37 37 33 33 31 34 30 26 25 26 19 28 30 29 30 33 31 35 31 33 32 32 32 26 29 37 37 38 39 43 44 45
47 46 46 46 44 41 42 40 35 14 -3 25 33 33 34 32 30 33 31 32 30 27 28 29 33 33 34 34 36 35 35 32 34 32 24 29 27 25 32 32 34 36 41 44 45
47 45 47 46 40 42 41 36 15 4 18 20 28 33 32 30 28 31 26 24 24 21 23 29 30 34 36 32 34 32 29 24 22 22 20 31 26 22 30 30 30 32 33 41 41
46 47 47 43 42 42 36 19 7 17 21 26 30 32 29 30 29 28 25 22 28 28 24 24 24 33 35 32 29 31 30 21 17 17 23 32 24 23 27 27 30 31 31 32 33
47 45 43 43 43 41 29 7 8 21 25 23 25 23 25 31 27 26 26 24 24 29 26 24 25 34 34 35 34 30 28 33 23 24 23 26 27 23 24 26 27 31 31 31 32
44 43 42 44 43 36 23 16 25 28 25 28 23 28 25 29 25 25 25 26 25 27 33 29 22 30 33 33 32 33 34 27 25 16 19 23 18 17 23 24 27 28 31 31 31
43 37 43 44 40 29 13 19 24 23 29 28 27 28 26 27 28 24 26 28 34 26 31 32 24 24 28 28 27 29 28 31 29 24 17 18 17 23 25 25 26 28 29 29 30
42 33 43 42 30 25 20 22 24 22 27 30 29 27 26 29 27 24 27 30 34 34 29 33 25 21 25 30 34 29 27 31 22 24 23 18 22 25 27 29 29 31 32 33 32
35 37 42 38 21 19 21 22 21 24 22 25 23 27 28 29 25 24 28 31 36 34 32 33 27 20 21 28 30 29 30 31 29 26 25 18 22 25 27 28 32 32 33 35 35
31 26 35 35 24 21 22 19 20 22 22 24 27 28 29 29 31 28 27 31 36 36 38 37 32 25 19 21 26 26 30 32 26 23 26 25 24 24 24 26 28 33 35 36 36
33 22 29 21 22 22 22 21 20 18 21 24 27 27 27 26 28 27 29 28 32 34 34 35 29 32 30 29 29 28 28 30 28 30 24 28 27 26 26 26 27 29 35 36 37
29 25 23 22 23 23 22 20 20 21 21 21 25 27 27 26 27 27 27 28 28 31 32 34 28 30 26 27 30 29 29 30 31 31 32 30 28 30 30 30 30 31 33 35 37
33 28 21 22 21 20 20 21 21 22 23 24 26 27 27 27 28 28 29 30 30 31 31 31 28 26 21 23 26 23 25 30 30 30 32 27 29 30 29 30 31 32 31 31 33

GFSSW_sfc_30mbdewp_108.txt.gz
Dewpoint
49 47 48 49 49 50 51 50 48 49 50 46 47 47 49 49 48 46 42 43 47 49 49 44 41 40 42 40 43 41 34 30 32 33 32 39 42 43 41 38 41 56 57 60 67
49 47 48 48 49 51 50 50 50 50 48 47 47 46 47 48 46 44 45 46 48 49 45 40 37 38 35 40 40 36 32 30 33 34 33 35 41 46 45 40 40 55 61 66 66
48 47 47 47 48 48 49 50 49 51 47 45 47 48 48 48 41 39 47 44 45 43 44 41 41 37 35 38 38 37 31 31 33 37 38 37 41 45 46 43 42 51 60 64 65
49 47 47 47 49 48 50 49 50 50 47 47 48 47 48 45 24 38 42 40 40 40 42 40 40 36 33 32 37 34 35 34 34 38 38 39 42 43 46 46 47 47 61 63 62
50 47 47 48 47 48 48 50 49 49 47 47 48 47 45 41 38 40 40 38 35 37 37 37 38 38 33 34 35 35 34 36 36 35 36 41 42 44 43 46 48 49 57 60 61
49 48 47 47 47 47 48 49 50 48 47 47 47 46 42 34 37 37 36 35 34 34 33 38 37 38 36 35 35 36 36 37 37 36 36 38 40 43 43 47 48 53 55 58 61
49 49 48 48 48 47 48 48 50 48 47 47 47 44 40 35 36 35 37 35 35 35 35 37 41 38 37 33 38 37 33 35 36 33 35 41 38 37 42 47 48 50 54 57 60
50 49 47 47 48 47 47 49 48 47 45 46 47 42 31 38 38 36 35 34 35 36 38 41 40 39 36 38 35 32 33 28 35 32 34 38 31 37 44 45 47 48 51 53 56
51 49 47 48 47 47 48 49 48 46 44 47 42 39 31 37 34 34 34 33 34 35 38 40 38 36 37 31 27 31 26 28 30 31 30 37 32 36 42 43 46 46 47 49 52
51 49 47 48 46 48 49 45 45 44 43 44 42 35 32 31 33 32 34 34 32 33 32 32 31 30 30 29 16 23 26 29 28 30 30 35 35 40 41 40 42 47 46 47 49
52 48 47 46 46 48 45 39 36 35 37 32 32 31 31 32 34 32 32 33 33 31 26 30 26 21 24 26 30 30 27 27 30 34 33 35 34 35 40 39 40 45 45 46 47
52 48 47 46 47 48 42 36 34 33 26 32 34 33 34 36 31 31 33 30 28 26 30 26 23 23 28 28 31 30 27 29 32 35 34 36 35 39 38 39 41 44 45 45 46
53 48 46 46 48 45 38 38 40 38 28 29 31 31 33 36 33 31 32 30 28 26 26 25 22 26 28 27 28 29 28 30 30 36 38 36 35 37 40 42 43 43 45 45 45
52 48 46 48 44 42 37 40 40 32 21 25 30 33 35 35 30 34 33 30 27 25 27 26 26 29 29 28 31 26 33 34 33 31 29 35 26 36 39 39 41 43 44 44 45
51 47 46 47 43 40 40 40 38 29 12 17 32 38 37 32 33 32 34 29 26 25 26 19 27 28 29 31 33 30 35 33 34 31 32 31 25 32 38 37 38 40 42 44 45
51 47 47 46 42 41 41 38 32 14 -1 27 32 34 32 31 30 32 31 32 30 28 28 26 32 31 32 35 34 34 34 32 33 30 24 30 24 27 34 35 36 38 43 44 44
49 46 47 45 39 42 40 33 16 8 18 21 27 32 30 27 27 29 29 24 26 22 23 29 30 33 35 32 33 31 28 22 20 20 22 30 24 23 34 35 36 34 40 43 43
49 47 47 43 42 40 32 21 12 12 18 24 30 31 28 30 28 27 26 22 29 29 24 23 22 32 35 32 30 31 28 20 15 18 23 30 23 24 26 32 35 36 37 43 43
48 46 43 42 42 37 25 17 3 19 24 24 24 23 24 30 26 25 24 24 24 30 26 24 25 35 33 34 34 30 27 32 23 23 21 26 24 22 25 25 27 30 34 36 37
45 43 42 44 41 35 25 14 24 26 25 27 22 27 23 27 23 23 23 28 30 26 31 30 21 28 32 33 34 33 35 26 24 16 18 23 18 21 24 25 27 29 31 32 32
42 36 43 44 37 31 18 17 24 24 30 28 27 26 25 25 25 22 25 28 34 31 30 31 23 22 27 29 28 29 29 30 27 24 19 17 20 23 26 26 28 30 30 30 30
40 31 43 41 32 25 19 23 24 23 31 29 29 27 24 27 26 24 25 29 33 35 30 32 25 23 25 29 34 29 27 30 22 23 20 20 22 25 27 31 31 32 34 33 33
37 36 42 40 24 20 22 22 21 23 23 26 24 26 28 26 23 24 27 30 36 35 33 35 26 18 18 23 28 29 31 32 27 26 24 19 22 26 27 29 33 33 34 35 36
34 30 36 37 27 21 21 20 20 22 22 26 27 28 28 27 30 27 26 31 35 35 38 36 31 25 22 25 27 25 29 31 26 23 25 23 23 25 25 26 27 33 36 36 36
30 28 33 29 27 23 21 21 20 19 22 26 27 27 27 27 27 26 28 27 31 32 33 34 28 30 30 29 30 29 28 30 29 28 24 26 25 26 28 28 29 32 35 36 37
28 27 24 22 24 22 22 20 19 20 22 22 25 27 27 26 25 25 26 27 28 31 32 34 27 29 25 26 30 28 29 31 30 31 30 29 28 30 30 30 30 31 31 32 36
31 26 22 23 22 20 19 21 20 22 23 23 27 27 27 27 28 28 29 30 30 30 30 31 27 25 20 22 27 22 23 29 30 30 30 26 29 30 30 31 32 33 33 31 34

GFSSW_sfc_30mbdewp_111.txt.gz
Dewpoint
51 49 48 48 49 50 52 51 50 50 51 47 48 47 47 49 49 46 40 40 47 50 46 45 41 39 42 39 43 42 32 28 29 33 33 33 31 39 42 41 40 42 52 57 64
51 50 49 47 49 49 49 49 51 49 51 45 47 47 46 49 45 43 44 47 48 48 46 42 38 38 34 39 40 37 31 27 28 30 32 34 34 37 38 41 44 45 51 60 65
51 50 49 47 48 49 49 50 49 51 50 48 47 47 49 47 38 35 47 43 45 45 44 41 40 37 35 37 38 36 30 28 30 31 36 37 37 36 42 40 45 44 47 55 64
52 50 49 48 48 48 48 48 49 50 48 47 49 47 48 44 19 37 42 39 41 44 42 41 39 36 30 31 36 33 35 34 30 32 34 35 39 39 39 41 41 45 47 47 61
52 50 49 49 48 48 48 48 50 49 47 47 47 47 45 39 36 41 41 37 35 37 37 36 37 37 33 31 33 33 33 34 35 36 35 36 36 37 40 45 41 42 46 47 48
53 51 50 48 48 48 47 49 49 50 47 47 47 46 41 29 37 37 36 36 34 34 33 39 37 38 35 34 33 34 35 34 35 35 36 33 33 38 42 44 45 44 44 48 50
54 52 50 49 48 48 47 48 50 49 47 46 47 43 39 33 38 36 36 35 35 35 34 36 40 38 36 31 36 36 32 34 33 35 34 35 32 32 40 43 44 44 43 45 50
56 53 52 49 47 47 46 48 49 48 46 46 47 41 29 36 39 39 35 34 35 35 37 39 41 39 37 36 33 31 31 26 28 33 34 34 26 34 40 42 43 42 41 46 51
56 54 52 48 48 47 47 49 48 47 45 47 41 39 29 36 34 34 34 32 34 34 38 39 38 35 36 28 24 28 21 22 24 34 32 33 28 37 41 44 42 39 39 47 51
56 54 52 48 47 47 49 45 45 44 44 43 41 34 31 31 33 32 34 34 32 33 32 32 30 29 29 26 16 20 23 26 24 31 31 32 29 39 42 43 40 39 39 45 49
56 53 52 49 46 47 44 42 37 35 38 30 31 30 31 33 34 32 32 33 33 31 27 30 27 22 21 25 27 27 26 25 26 28 31 32 28 34 41 40 38 38 40 42 47
55 53 50 48 46 49 42 36 33 31 26 34 35 34 34 36 32 31 33 30 28 26 29 25 23 24 25 27 27 27 27 26 28 30 31 30 29 35 39 37 38 40 41 41 45
54 51 50 46 48 47 40 37 40 36 28 30 30 31 33 35 33 31 32 30 28 27 26 24 22 26 27 28 27 27 27 27 28 33 34 33 32 37 38 39 41 42 44 44 46
53 51 49 48 45 42 37 40 40 32 20 25 30 33 35 36 29 34 33 31 28 25 26 25 26 27 29 28 29 25 33 32 31 31 28 35 26 35 37 37 40 41 42 45 46
51 50 47 46 43 40 40 41 37 29 3 19 32 38 37 31 32 32 34 29 26 24 26 20 22 27 25 31 33 29 32 33 34 32 31 31 27 32 37 35 38 41 43 45 45
51 49 48 46 43 41 41 36 30 17 5 26 32 33 30 31 30 32 31 31 30 29 29 27 28 30 30 33 33 34 34 33 33 30 24 30 25 28 34 35 37 39 43 46 44
52 49 47 45 40 42 39 31 20 13 19 22 29 30 29 27 26 28 28 24 26 22 22 28 30 33 34 31 33 32 26 19 19 20 21 31 26 25 32 36 37 39 43 43 44
51 48 47 44 43 40 31 24 13 10 17 25 31 29 27 29 26 26 25 23 28 28 23 23 20 32 35 33 29 30 26 22 14 19 23 28 24 23 25 27 35 38 41 43 44
50 46 43 43 42 34 28 21 5 17 23 26 25 23 26 28 25 23 23 25 25 28 26 24 22 32 34 34 32 30 26 32 23 22 21 24 21 23 25 26 28 31 41 42 42
44 43 41 43 41 33 28 19 22 24 25 26 23 26 22 25 22 21 23 29 31 27 30 29 20 24 30 34 34 31 34 26 24 17 18 19 21 23 25 27 29 30 35 42 41
42 38 42 44 38 32 25 17 25 26 31 28 26 25 24 25 22 22 25 27 33 33 29 31 22 21 27 29 29 29 29 29 26 22 19 17 23 24 27 29 31 32 31 40 41
38 32 43 41 33 27 21 21 24 24 31 28 28 26 24 27 24 23 24 29 32 35 31 32 24 23 25 29 35 29 29 30 22 21 20 22 24 26 28 32 33 34 34 35 40
37 36 43 39 26 22 22 22 21 23 25 25 26 27 27 25 22 24 26 30 35 36 32 34 26 18 16 21 27 27 29 31 26 26 23 20 23 26 27 28 33 35 36 36 38
35 31 36 38 29 21 21 20 21 23 23 26 27 28 28 27 29 25 25 30 35 33 36 35 31 25 23 26 29 27 28 30 24 22 23 23 23 26 28 28 31 34 36 37 37
32 33 34 28 29 24 21 20 20 20 22 28 27 27 27 26 27 26 27 27 29 32 34 32 26 30 29 30 30 29 30 30 28 28 22 25 25 28 29 30 30 31 32 34 37
30 29 26 25 28 24 22 20 20 20 22 23 25 27 27 26 24 24 25 27 27 31 32 32 26 27 24 29 27 26 29 30 30 29 29 28 27 30 30 32 32 33 31 33 36
32 27 23 24 22 20 20 20 20 22 23 24 27 27 27 27 28 29 29 30 30 29 29 30 26 23 20 23 26 20 24 29 29 31 29 27 29 30 31 32 33 33 34 34 35

GFSSW_sfc_30mbdewp_114.txt.gz
Dewpoint
52 52 50 49 49 50 50 51 50 51 51 49 47 48 47 48 48 43 38 36 43 49 45 45 41 39 39 36 38 36 30 25 23 21 22 27 26 29 30 35 39 40 43 42 45
53 52 51 50 48 48 50 49 50 50 51 49 45 48 49 49 43 39 39 46 47 48 46 44 39 37 34 34 35 32 27 23 23 22 22 24 32 32 32 28 33 41 41 45 51
55 54 52 50 49 48 50 49 50 50 50 48 47 48 49 47 38 36 47 45 47 47 44 42 39 36 32 33 33 31 28 24 23 24 26 26 29 32 33 33 33 35 40 46 48
56 55 52 50 48 49 48 49 48 50 48 47 48 48 47 43 18 37 43 40 43 41 40 38 36 32 29 28 29 28 27 27 27 27 27 27 29 29 32 33 35 36 40 45 45
57 55 54 52 49 49 48 48 49 50 48 47 47 48 44 37 30 39 42 38 34 37 34 35 33 31 27 26 27 27 26 25 27 30 31 30 28 29 31 34 38 38 40 43 44
57 56 54 53 51 48 48 47 49 51 48 47 46 46 39 28 36 38 36 35 33 33 33 35 31 32 30 28 28 26 28 29 30 30 32 31 30 28 31 35 40 42 42 42 42
56 56 53 53 50 48 48 47 49 49 48 47 47 43 38 30 36 36 36 35 35 34 32 34 35 33 29 25 27 29 27 28 27 29 31 32 30 29 26 31 38 42 42 40 41
52 57 53 53 52 48 47 46 49 48 47 46 48 41 29 34 39 38 36 32 35 35 35 37 39 34 32 30 28 25 25 22 17 24 29 31 25 26 27 27 32 39 41 39 39
52 53 54 53 51 48 47 48 49 48 46 47 42 37 27 36 33 34 34 31 32 34 37 37 37 31 31 27 24 24 20 15 15 20 25 30 26 27 32 30 30 37 39 41 39
52 53 54 52 50 47 48 46 46 45 45 43 40 35 31 31 33 33 34 34 31 32 32 32 31 28 28 26 14 14 19 19 18 22 30 27 27 30 37 39 40 40 41 40 40
52 54 53 51 49 47 46 44 37 36 39 29 29 30 31 33 34 32 32 32 32 31 26 30 26 21 19 21 25 24 23 22 20 22 24 31 28 28 38 40 39 41 40 41 40
52 54 52 51 47 49 42 37 35 33 29 36 35 34 34 35 31 32 33 28 28 24 29 27 22 19 23 23 22 24 22 22 22 24 25 28 29 27 33 37 39 40 39 40 40
55 53 52 49 49 46 42 38 41 37 29 30 31 30 33 35 32 31 31 30 26 24 24 23 19 22 23 24 24 24 25 23 25 30 28 29 27 28 37 38 38 39 39 42 41
53 52 50 48 44 43 40 40 40 34 27 27 30 33 35 36 29 33 33 30 27 24 23 23 24 24 23 25 28 25 31 31 30 28 25 28 22 31 34 37 38 39 41 43 42
49 51 49 48 43 40 40 41 37 32 12 25 32 38 36 30 31 30 35 30 25 23 25 22 21 23 24 25 31 29 33 31 32 30 30 29 28 31 37 36 37 38 41 41 44
50 51 48 45 43 42 41 35 31 24 12 27 33 32 31 30 30 31 31 31 30 28 28 27 28 28 28 30 33 34 32 32 32 30 25 29 27 29 34 34 36 37 40 42 46
48 50 47 45 41 41 37 32 22 18 19 26 29 30 30 28 26 28 27 26 27 24 25 27 30 33 34 30 33 32 30 22 22 23 23 32 23 26 28 35 37 38 40 45 46
51 50 46 44 42 38 33 28 9 14 19 28 30 28 29 29 27 25 26 25 28 28 26 23 21 30 35 32 29 30 30 24 18 20 24 29 24 27 27 28 30 40 42 45 46
50 46 43 43 40 36 31 20 16 17 23 28 28 26 27 28 26 25 26 26 26 27 25 24 24 32 34 33 33 30 28 33 26 23 22 27 26 27 28 30 30 40 41 44 46
45 43 42 43 40 36 30 23 19 23 27 26 25 25 23 26 25 25 25 28 31 31 28 29 23 24 30 35 33 33 34 28 27 19 19 23 26 26 28 30 31 39 40 44 45
43 38 42 44 40 33 28 25 25 28 30 27 25 26 23 25 23 25 26 27 33 33 31 30 24 25 28 30 29 30 29 29 26 23 20 20 25 28 30 32 32 37 42 44 44
40 32 43 43 33 30 28 20 25 25 31 29 29 26 24 26 23 26 26 27 33 35 29 32 26 25 27 29 34 30 30 30 25 22 23 23 25 26 30 34 34 35 41 44 44
36 36 43 41 26 28 23 24 23 24 27 26 27 27 27 26 22 24 28 30 33 35 32 33 27 22 21 26 29 27 29 30 27 28 24 22 25 28 30 32 35 35 38 41 42
37 30 35 38 30 23 22 22 22 24 24 26 27 28 28 25 28 24 27 29 34 32 36 34 29 27 22 26 29 28 29 29 27 24 23 24 25 28 29 30 31 34 37 37 40
36 33 34 28 30 25 23 21 21 21 24 28 27 28 28 25 26 25 28 27 29 32 34 32 28 28 29 29 29 30 29 28 28 26 25 25 26 28 30 31 31 32 34 37 38
31 32 31 28 31 29 23 20 20 21 23 24 25 28 29 27 25 25 26 28 29 30 31 31 28 28 26 25 26 26 28 28 28 27 27 27 28 30 32 32 32 33 33 34 35
33 30 26 28 29 27 21 20 19 23 24 25 27 28 27 27 29 29 30 30 30 30 29 30 27 25 23 24 25 23 27 29 29 29 29 27 29 31 31 32 33 34 34 34 35

GFSSW_sfc_30mbdewp_117.txt.gz
Dewpoint
55 54 52 51 50 49 50 50 51 50 51 51 47 47 48 48 49 44 39 38 39 45 47 40 38 37 36 34 33 33 29 26 24 21 20 20 20 22 23 24 24 27 31 36 43
57 55 54 52 51 49 49 51 50 51 51 50 46 47 48 49 41 37 39 41 45 49 43 39 38 37 35 34 33 31 26 22 22 22 20 19 19 19 22 24 23 25 32 40 43
57 57 56 55 51 50 49 49 49 51 51 49 47 49 48 48 36 32 48 50 49 49 44 42 39 36 33 33 33 31 29 26 24 23 23 22 22 23 24 25 30 25 25 37 42
55 57 57 55 52 49 49 49 49 50 49 48 47 48 47 42 24 38 44 42 46 42 40 36 34 32 28 27 28 27 27 25 24 25 25 25 25 23 23 25 27 31 32 30 38
52 54 58 54 52 52 50 48 48 49 49 47 47 48 44 37 30 40 41 38 34 35 33 33 31 29 26 24 23 22 23 24 23 22 23 24 25 25 24 25 26 29 35 37 38
50 53 57 54 53 52 50 48 47 50 49 47 46 47 39 30 35 37 36 33 31 31 31 31 29 28 27 25 24 23 23 22 22 24 25 25 25 25 26 26 25 28 31 34 39
49 52 57 53 52 52 49 48 47 50 49 47 47 42 37 31 34 35 36 34 32 31 29 31 31 29 25 23 22 22 21 21 21 20 21 24 24 24 26 25 24 27 30 34 39
49 51 53 53 53 51 49 47 49 49 47 46 47 42 32 33 33 36 35 32 33 33 32 32 33 32 29 29 26 23 23 20 18 15 15 20 24 25 26 27 25 25 31 34 37
48 50 52 54 52 51 47 48 49 49 47 47 43 39 27 37 34 34 34 30 31 31 32 32 34 29 26 26 24 19 18 14 12 10 12 17 27 26 26 26 25 25 24 31 36
48 50 52 53 52 49 48 47 47 45 43 43 38 35 31 29 32 32 33 32 30 30 30 31 28 24 23 24 17 14 16 15 13 13 20 26 26 26 25 26 25 24 25 30 36
48 51 51 54 52 48 47 43 38 38 38 32 30 29 29 32 33 31 31 31 31 28 24 28 26 22 23 19 21 20 19 19 16 16 16 16 22 31 27 30 30 29 33 33 39
49 53 54 53 50 48 46 37 34 35 32 35 34 32 33 34 31 31 32 28 26 24 25 25 24 22 18 16 18 17 16 15 17 18 19 21 21 22 27 32 36 35 36 39 39
48 53 52 51 50 48 43 38 40 35 29 31 32 29 32 34 31 30 30 27 25 23 22 21 20 20 19 18 19 19 20 20 20 23 28 28 23 21 26 30 33 37 38 38 38
46 52 50 51 47 44 41 41 41 36 30 28 29 33 35 34 30 31 31 29 26 24 23 22 21 20 19 20 23 24 25 30 28 26 22 24 21 25 25 29 34 34 37 38 39
46 50 51 49 43 40 40 42 38 34 13 28 31 37 34 32 29 29 32 30 26 25 24 23 23 21 21 24 32 27 31 31 30 28 28 26 25 28 26 31 34 36 39 40 41
48 49 50 48 44 42 41 37 34 28 17 26 31 31 30 28 27 29 31 32 30 28 27 26 27 27 28 29 33 34 31 31 31 29 23 25 26 28 31 35 35 39 40 42 45
48 50 50 45 40 42 38 33 28 21 21 27 28 30 29 27 26 27 27 27 26 25 28 27 28 31 34 31 33 32 30 25 22 21 21 32 28 29 34 34 39 39 41 45 45
49 49 48 44 42 39 34 32 19 19 21 27 29 27 28 27 27 25 26 25 28 28 24 24 24 31 36 32 29 29 31 25 18 21 23 24 25 29 35 34 39 39 43 45 44
48 46 44 44 41 37 31 28 19 21 21 27 28 28 25 26 27 24 28 26 25 28 26 25 25 30 33 34 33 29 29 32 27 28 24 28 31 35 34 37 38 39 43 44 43
45 44 43 43 40 34 30 26 19 22 27 27 27 25 24 26 25 27 25 27 28 31 30 28 24 26 29 35 35 34 35 28 29 22 20 25 26 25 33 36 38 39 42 44 44
43 38 42 44 39 31 28 25 25 25 27 25 23 24 22 24 24 26 25 26 32 31 32 29 28 30 32 31 30 32 29 28 27 22 23 21 24 35 34 35 39 40 43 43 44
40 32 43 44 32 31 28 20 25 24 31 28 28 26 23 23 22 27 27 27 32 33 29 30 28 27 27 28 31 32 30 28 29 22 26 22 25 33 34 36 39 40 43 44 44
36 35 43 42 28 29 23 23 23 25 27 26 26 27 26 24 23 25 30 28 31 33 34 32 28 26 26 25 28 30 28 28 27 29 23 21 26 29 31 34 37 40 42 43 43
37 30 35 38 33 26 22 21 22 25 26 25 26 27 25 24 25 25 29 27 31 31 35 35 27 28 23 26 29 29 26 29 30 26 26 28 28 28 30 30 34 36 38 40 42
38 33 34 29 29 24 22 20 20 21 24 26 26 27 28 24 23 24 28 28 28 30 32 31 26 26 26 28 27 27 27 26 26 26 26 27 27 29 30 31 32 33 34 35 37
33 33 34 30 29 26 21 19 19 21 23 23 25 27 28 26 26 24 25 29 30 29 29 30 27 27 24 25 26 27 28 28 28 27 27 27 28 31 32 32 32 32 33 34 35
34 33 29 29 29 26 21 19 18 22 24 25 25 28 27 27 28 28 29 29 30 30 29 29 27 25 23 24 23 22 29 29 29 30 28 27 29 30 31 33 33 33 33 34 35